| time (UTC) | temp F | wind direction | speed MPH | gust MPH | rain 1hr in | rain 24hr in | rain mn in | humidity % | barometer mb |
| 20260831051007 | 61 | 260 | 4.0 | 9.0 | 0.00 | 0.14 | 0.14 | 91 | 1015.1 |
| 20260831050905 | 61 | 267 | 4.0 | 9.0 | 0.00 | 0.14 | 0.14 | 91 | 1015.1 |
| 20260831050801 | 61 | 255 | 4.0 | 10.0 | 0.00 | 0.14 | 0.14 | 90 | 1015.1 |
| 20260831050707 | 61 | 276 | 5.0 | 10.0 | 0.00 | 0.14 | 0.14 | 90 | 1015.1 |
| 20260831050606 | 61 | 231 | 5.0 | 13.0 | 0.00 | 0.14 | 0.14 | 90 | 1015.1 |
| 20260831050506 | 61 | 256 | 5.0 | 13.0 | 0.00 | 0.14 | 0.14 | 90 | 1015.1 |
| 20260831050406 | 61 | 208 | 5.0 | 13.0 | 0.00 | 0.14 | 0.14 | 90 | 1015.1 |
| 20260831050306 | 61 | 230 | 5.0 | 13.0 | 0.00 | 0.14 | 0.14 | 90 | 1015.1 |
| 20260831050301 | 61 | 229 | 5.0 | 13.0 | 0.00 | 0.14 | 0.14 | 90 | 1015.1 |
| 20260831050206 | 61 | 224 | 6.0 | 13.0 | 0.00 | 0.14 | 0.14 | 90 | 1015.0 |
| 20260831050107 | 61 | 225 | 6.0 | 13.0 | 0.00 | 0.14 | 0.14 | 90 | 1015.1 |
| 20260831050005 | 61 | 269 | 6.0 | 13.0 | 0.00 | 0.14 | 0.14 | 90 | 1015.1 |
| 20260831045904 | 61 | 260 | 6.0 | 13.0 | 0.00 | 0.14 | 0.14 | 90 | 1015.1 |
| 20260831045801 | 61 | 219 | 6.0 | 13.0 | 0.00 | 0.14 | 0.14 | 90 | 1015.0 |
| 20260831045702 | 61 | 212 | 6.0 | 13.0 | 0.00 | 0.14 | 0.14 | 90 | 1015.0 |
| 20260831045602 | 61 | 183 | 6.0 | 11.0 | 0.00 | 0.14 | 0.14 | 91 | 1015.0 |
| 20260831045502 | 61 | 234 | 5.0 | 11.0 | 0.00 | 0.14 | 0.14 | 91 | 1015.0 |
| 20260831045401 | 61 | 260 | 6.0 | 11.0 | 0.00 | 0.14 | 0.14 | 91 | 1015.1 |
| 20260831045301 | 61 | 226 | 6.0 | 11.0 | 0.00 | 0.14 | 0.14 | 91 | 1015.1 |
| 20260831045201 | 61 | 240 | 6.0 | 14.0 | 0.00 | 0.14 | 0.14 | 91 | 1015.0 |
| 20260831045101 | 61 | 236 | 6.0 | 14.0 | 0.00 | 0.14 | 0.14 | 91 | 1015.0 |
| 20260831045001 | 61 | 230 | 6.0 | 14.0 | 0.00 | 0.14 | 0.14 | 91 | 1015.0 |
| 20260831044901 | 61 | 221 | 6.0 | 14.0 | 0.00 | 0.14 | 0.14 | 91 | 1014.9 |
| 20260831044801 | 61 | 219 | 6.0 | 14.0 | 0.00 | 0.15 | 0.14 | 91 | 1015.0 |
| 20260831044702 | 61 | 223 | 6.0 | 14.0 | 0.00 | 0.15 | 0.14 | 91 | 1014.9 |
| 20260831044601 | 61 | 219 | 6.0 | 14.0 | 0.00 | 0.15 | 0.14 | 91 | 1015.0 |
| 20260831044501 | 61 | 258 | 6.0 | 14.0 | 0.00 | 0.15 | 0.14 | 91 | 1014.9 |
| 20260831044401 | 60 | 209 | 6.0 | 14.0 | 0.00 | 0.15 | 0.14 | 91 | 1014.8 |
| 20260831044301 | 60 | 216 | 6.0 | 14.0 | 0.00 | 0.15 | 0.14 | 91 | 1014.9 |
| 20260831044201 | 60 | 211 | 6.0 | 13.0 | 0.00 | 0.15 | 0.14 | 91 | 1014.9 |
| 20260831044101 | 60 | 193 | 6.0 | 12.0 | 0.00 | 0.15 | 0.14 | 91 | 1014.9 |
| 20260831044001 | 60 | 200 | 6.0 | 12.0 | 0.00 | 0.15 | 0.14 | 91 | 1014.8 |
| 20260831043901 | 60 | 216 | 6.0 | 14.0 | 0.00 | 0.15 | 0.14 | 91 | 1014.8 |
| 20260831043801 | 60 | 222 | 6.0 | 14.0 | 0.00 | 0.15 | 0.14 | 91 | 1014.9 |
| 20260831043701 | 60 | 236 | 6.0 | 14.0 | 0.00 | 0.15 | 0.14 | 91 | 1014.9 |
| 20260831043601 | 60 | 221 | 6.0 | 14.0 | 0.00 | 0.15 | 0.14 | 91 | 1014.9 |
| 20260831043501 | 60 | 221 | 6.0 | 14.0 | 0.00 | 0.15 | 0.14 | 91 | 1014.9 |
| 20260831043400 | 60 | 211 | 6.0 | 14.0 | 0.00 | 0.15 | 0.14 | 91 | 1014.9 |
| 20260831043300 | 60 | 205 | 6.0 | 14.0 | 0.00 | 0.15 | 0.14 | 91 | 1014.9 |
| 20260831043200 | 60 | 204 | 6.0 | 14.0 | 0.00 | 0.15 | 0.14 | 91 | 1014.9 |
| 20260831043100 | 60 | 228 | 6.0 | 14.0 | 0.00 | 0.15 | 0.14 | 91 | 1014.9 |
| 20260831043001 | 60 | 213 | 5.0 | 14.0 | 0.00 | 0.15 | 0.14 | 91 | 1015.0 |
| 20260831042901 | 60 | 212 | 6.0 | 12.0 | 0.00 | 0.15 | 0.14 | 91 | 1014.8 |
| 20260831042801 | 60 | 209 | 6.0 | 11.0 | 0.00 | 0.15 | 0.14 | 91 | 1015.0 |
| 20260831042701 | 60 | 255 | 6.0 | 11.0 | 0.00 | 0.15 | 0.14 | 91 | 1014.9 |
| 20260831042601 | 60 | 242 | 6.0 | 11.0 | 0.00 | 0.15 | 0.14 | 91 | 1014.9 |
| 20260831042500 | 60 | 248 | 6.0 | 12.0 | 0.00 | 0.15 | 0.14 | 91 | 1014.9 |
| 20260831042401 | 60 | 207 | 6.0 | 12.0 | 0.00 | 0.15 | 0.14 | 91 | 1014.9 |
| 20260831042301 | 60 | 221 | 6.0 | 12.0 | 0.00 | 0.15 | 0.14 | 90 | 1014.9 |
| 20260831042201 | 60 | 238 | 6.0 | 12.0 | 0.00 | 0.15 | 0.14 | 91 | 1014.9 |
| 20260831042101 | 60 | 231 | 5.0 | 12.0 | 0.00 | 0.15 | 0.14 | 91 | 1014.9 |
| 20260831042001 | 60 | 220 | 5.0 | 12.0 | 0.00 | 0.15 | 0.14 | 91 | 1014.9 |
| 20260831041901 | 60 | 234 | 5.0 | 13.0 | 0.00 | 0.15 | 0.14 | 91 | 1014.9 |
| 20260831041801 | 60 | 221 | 5.0 | 13.0 | 0.00 | 0.15 | 0.14 | 91 | 1014.9 |
| 20260831041701 | 60 | 248 | 5.0 | 13.0 | 0.00 | 0.15 | 0.14 | 90 | 1014.8 |
| 20260831041601 | 60 | 216 | 5.0 | 13.0 | 0.00 | 0.15 | 0.14 | 90 | 1014.8 |
| 20260831041501 | 60 | 205 | 5.0 | 13.0 | 0.00 | 0.15 | 0.14 | 90 | 1014.9 |
| 20260831041401 | 60 | 234 | 5.0 | 13.0 | 0.00 | 0.15 | 0.14 | 90 | 1014.9 |
| 20260831041301 | 60 | 246 | 5.0 | 13.0 | 0.00 | 0.15 | 0.14 | 91 | 1014.9 |
| 20260831041201 | 60 | 218 | 5.0 | 13.0 | 0.00 | 0.15 | 0.14 | 91 | 1014.8 |
| 20260831041101 | 60 | 234 | 6.0 | 13.0 | 0.00 | 0.15 | 0.14 | 91 | 1014.8 |
| 20260831041000 | 60 | 231 | 6.0 | 14.0 | 0.00 | 0.15 | 0.14 | 91 | 1014.8 |
| 20260831040900 | 60 | 254 | 6.0 | 14.0 | 0.00 | 0.15 | 0.14 | 91 | 1014.8 |
| 20260831040801 | 60 | 259 | 6.0 | 14.0 | 0.00 | 0.15 | 0.14 | 91 | 1014.8 |
| 20260831040700 | 60 | 232 | 6.0 | 14.0 | 0.00 | 0.15 | 0.14 | 91 | 1014.7 |
| 20260831040600 | 60 | 228 | 5.0 | 14.0 | 0.00 | 0.15 | 0.14 | 91 | 1014.8 |
| 20260831040524 | 60 | 220 | 5.0 | 14.0 | 0.00 | 0.15 | 0.14 | 90 | 1014.7 |
| 20260831040520 | 60 | 219 | 5.0 | 14.0 | 0.00 | 0.15 | 0.14 | 90 | 1014.8 |
| 20260831040513 | 60 | 220 | 5.0 | 14.0 | 0.00 | 0.15 | 0.14 | 91 | 1014.8 |
| 20260831040200 | 60 | 194 | 5.0 | 14.0 | 0.00 | 0.15 | 0.14 | 91 | 1014.8 |
| 20260831040100 | 60 | 222 | 4.0 | 14.0 | 0.00 | 0.15 | 0.14 | 91 | 1014.8 |
| 20260831040023 | 60 | 196 | 5.0 | 9.0 | 0.00 | 0.15 | 0.14 | 91 | 1014.7 |
| 20260831040020 | 60 | 225 | 4.0 | 9.0 | 0.00 | 0.15 | 0.14 | 91 | 1014.8 |
| 20260831040012 | 60 | 194 | 4.0 | 9.0 | 0.00 | 0.15 | 0.14 | 91 | 1014.7 |
| 20260831035701 | 60 | 227 | 4.0 | 9.0 | 0.00 | 0.15 | 0.14 | 91 | 1014.8 |
| 20260831035601 | 60 | 202 | 4.0 | 10.0 | 0.00 | 0.15 | 0.14 | 91 | 1014.8 |
| 20260831035502 | 60 | 217 | 4.0 | 10.0 | 0.00 | 0.15 | 0.14 | 91 | 1014.7 |
| 20260831035401 | 60 | 221 | 4.0 | 10.0 | 0.00 | 0.15 | 0.14 | 91 | 1014.7 |
| 20260831035306 | 60 | 178 | 4.0 | 10.0 | 0.00 | 0.15 | 0.14 | 91 | 1014.6 |
| 20260831035201 | 60 | 198 | 4.0 | 10.0 | 0.00 | 0.15 | 0.14 | 91 | 1014.7 |
| 20260831035101 | 60 | 229 | 4.0 | 10.0 | 0.00 | 0.15 | 0.14 | 91 | 1014.6 |
| 20260831035025 | 60 | 206 | 4.0 | 10.0 | 0.00 | 0.15 | 0.14 | 91 | 1014.6 |
| 20260831035021 | 60 | 225 | 4.0 | 10.0 | 0.00 | 0.15 | 0.14 | 91 | 1014.6 |
| 20260831035014 | 60 | 225 | 4.0 | 10.0 | 0.00 | 0.15 | 0.14 | 90 | 1014.6 |
| 20260831034701 | 60 | 227 | 5.0 | 10.0 | 0.01 | 0.15 | 0.14 | 91 | 1014.6 |
| 20260831034601 | 60 | 204 | 5.0 | 10.0 | 0.01 | 0.15 | 0.14 | 91 | 1014.6 |
| 20260831034501 | 60 | 259 | 5.0 | 11.0 | 0.01 | 0.15 | 0.14 | 91 | 1014.6 |
| 20260831034401 | 60 | 234 | 4.0 | 11.0 | 0.01 | 0.15 | 0.14 | 91 | 1014.6 |
| 20260831034301 | 60 | 212 | 4.0 | 11.0 | 0.01 | 0.15 | 0.14 | 91 | 1014.6 |
| 20260831034201 | 60 | 205 | 4.0 | 11.0 | 0.01 | 0.15 | 0.14 | 91 | 1014.7 |
| 20260831034101 | 60 | 198 | 4.0 | 11.0 | 0.01 | 0.15 | 0.14 | 91 | 1014.6 |
| 20260831034023 | 60 | 209 | 4.0 | 11.0 | 0.02 | 0.15 | 0.14 | 91 | 1014.7 |
| 20260831034019 | 60 | 216 | 4.0 | 11.0 | 0.02 | 0.15 | 0.14 | 91 | 1014.7 |
| 20260831034011 | 60 | 203 | 4.0 | 11.0 | 0.02 | 0.15 | 0.14 | 91 | 1014.7 |
| 20260831033701 | 60 | 190 | 4.0 | 11.0 | 0.02 | 0.15 | 0.14 | 91 | 1014.7 |
| 20260831033601 | 60 | 226 | 4.0 | 11.0 | 0.02 | 0.15 | 0.14 | 91 | 1014.7 |
| 20260831033501 | 60 | 199 | 4.0 | 9.0 | 0.02 | 0.15 | 0.14 | 91 | 1014.8 |
| 20260831033400 | 60 | 219 | 4.0 | 9.0 | 0.02 | 0.15 | 0.14 | 91 | 1014.8 |
| 20260831033301 | 60 | 207 | 4.0 | 9.0 | 0.03 | 0.15 | 0.14 | 91 | 1014.7 |
| 20260831033200 | 60 | 217 | 4.0 | 9.0 | 0.03 | 0.15 | 0.14 | 91 | 1014.8 |
| 20260831033100 | 60 | 217 | 4.0 | 8.0 | 0.03 | 0.15 | 0.14 | 91 | 1014.7 |
| 20260831033023 | 60 | 214 | 4.0 | 8.0 | 0.03 | 0.15 | 0.14 | 91 | 1014.6 |
| 20260831033019 | 60 | 248 | 4.0 | 8.0 | 0.03 | 0.15 | 0.14 | 91 | 1014.8 |
| 20260831033012 | 60 | 207 | 4.0 | 8.0 | 0.03 | 0.15 | 0.14 | 91 | 1014.7 |
| 20260831032701 | 60 | 221 | 4.0 | 8.0 | 0.04 | 0.15 | 0.14 | 91 | 1014.7 |
| 20260831032601 | 60 | 209 | 4.0 | 8.0 | 0.04 | 0.15 | 0.14 | 91 | 1014.7 |
| 20260831032501 | 60 | 207 | 4.0 | 9.0 | 0.04 | 0.15 | 0.14 | 91 | 1014.8 |
| 20260831032401 | 60 | 206 | 4.0 | 9.0 | 0.05 | 0.15 | 0.14 | 91 | 1014.8 |
| 20260831032301 | 60 | 233 | 4.0 | 9.0 | 0.06 | 0.15 | 0.14 | 91 | 1014.8 |
| 20260831032201 | 60 | 235 | 4.0 | 9.0 | 0.06 | 0.15 | 0.14 | 91 | 1014.8 |
| 20260831032101 | 60 | 227 | 4.0 | 9.0 | 0.08 | 0.15 | 0.14 | 91 | 1014.8 |
| 20260831032025 | 60 | 210 | 4.0 | 9.0 | 0.08 | 0.15 | 0.14 | 91 | 1014.8 |
| 20260831032021 | 60 | 215 | 4.0 | 9.0 | 0.09 | 0.15 | 0.14 | 92 | 1014.8 |
| 20260831032013 | 60 | 211 | 4.0 | 9.0 | 0.10 | 0.15 | 0.14 | 92 | 1014.8 |
| 20260831031701 | 60 | 236 | 4.0 | 9.0 | 0.11 | 0.15 | 0.14 | 92 | 1014.8 |
| 20260831031601 | 60 | 243 | 4.0 | 9.0 | 0.12 | 0.15 | 0.14 | 92 | 1014.8 |
| 20260831031501 | 60 | 215 | 4.0 | 8.0 | 0.12 | 0.15 | 0.14 | 92 | 1014.8 |
| 20260831031401 | 60 | 259 | 3.0 | 8.0 | 0.12 | 0.15 | 0.14 | 92 | 1014.8 |
| 20260831031301 | 60 | 232 | 3.0 | 8.0 | 0.12 | 0.15 | 0.14 | 92 | 1014.7 |
| 20260831031201 | 60 | 218 | 3.0 | 8.0 | 0.12 | 0.15 | 0.14 | 92 | 1014.8 |
| 20260831031101 | 60 | 285 | 3.0 | 8.0 | 0.12 | 0.15 | 0.14 | 92 | 1014.8 |
| 20260831031000 | 60 | 230 | 3.0 | 8.0 | 0.12 | 0.15 | 0.14 | 92 | 1014.8 |
| 20260831030900 | 60 | 257 | 3.0 | 8.0 | 0.12 | 0.15 | 0.14 | 92 | 1014.8 |
| 20260831030802 | 60 | 225 | 3.0 | 8.0 | 0.12 | 0.15 | 0.14 | 92 | 1014.8 |
| 20260831030758 | 61 | 225 | 3.0 | 8.0 | 0.12 | 0.15 | 0.14 | 92 | 1014.8 |
| 20260831030658 | 60 | 225 | 3.0 | 8.0 | 0.12 | 0.15 | 0.14 | 92 | 1014.8 |
| 20260831030558 | 61 | 246 | 3.0 | 8.0 | 0.12 | 0.15 | 0.14 | 92 | 1014.9 |
| 20260831030458 | 60 | 227 | 3.0 | 6.0 | 0.12 | 0.15 | 0.14 | 92 | 1014.9 |
| 20260831030356 | 60 | 219 | 3.0 | 6.0 | 0.12 | 0.15 | 0.14 | 91 | 1014.9 |
| 20260831030301 | 61 | 219 | 3.0 | 6.0 | 0.13 | 0.15 | 0.14 | 91 | 1014.9 |
| 20260831030255 | 61 | 219 | 3.0 | 6.0 | 0.13 | 0.15 | 0.14 | 91 | 1014.9 |
| 20260831030153 | 61 | 219 | 3.0 | 6.0 | 0.13 | 0.15 | 0.14 | 91 | 1014.9 |
| 20260831030054 | 61 | 228 | 3.0 | 6.0 | 0.13 | 0.15 | 0.14 | 91 | 1014.9 |
| 20260831025951 | 61 | 223 | 3.0 | 6.0 | 0.13 | 0.15 | 0.14 | 91 | 1014.9 |
| 20260831025848 | 61 | 223 | 3.0 | 6.0 | 0.13 | 0.15 | 0.14 | 91 | 1014.9 |
| 20260831025800 | 61 | 221 | 2.0 | 6.0 | 0.13 | 0.15 | 0.14 | 91 | 1014.9 |
| 20260831025746 | 61 | 221 | 2.0 | 6.0 | 0.13 | 0.15 | 0.14 | 91 | 1014.9 |
| 20260831025646 | 61 | 220 | 2.0 | 6.0 | 0.13 | 0.15 | 0.14 | 91 | 1014.9 |
| 20260831025546 | 61 | 225 | 2.0 | 6.0 | 0.13 | 0.15 | 0.14 | 91 | 1014.9 |
| 20260831025528 | 61 | 315 | 2.0 | 4.0 | 0.14 | 0.15 | 0.14 | 91 | 1014.3 |
| 20260831025520 | 61 | 219 | 2.0 | 5.0 | 0.13 | 0.15 | 0.14 | 91 | 1014.8 |
| 20260831025516 | 61 | 228 | 2.0 | 4.0 | 0.14 | 0.15 | 0.14 | 91 | 1014.5 |
| 20260831025240 | 61 | 320 | 2.0 | 4.0 | 0.14 | 0.15 | 0.14 | 91 | 1014.3 |
| 20260831025140 | 61 | 320 | 2.0 | 6.0 | 0.14 | 0.15 | 0.14 | 91 | 1014.1 |
| 20260831025039 | 61 | 320 | 2.0 | 6.0 | 0.14 | 0.15 | 0.14 | 90 | 1013.9 |
| 20260831024939 | 61 | 320 | 3.0 | 6.0 | 0.14 | 0.15 | 0.14 | 90 | 1013.9 |
| 20260831024838 | 61 | 320 | 3.0 | 7.0 | 0.14 | 0.15 | 0.13 | 90 | 1014.2 |
| 20260831024801 | 61 | 265 | 3.0 | 7.0 | 0.14 | 0.15 | 0.13 | 90 | 1014.3 |
| 20260831024738 | 61 | 264 | 3.0 | 7.0 | 0.13 | 0.14 | 0.13 | 90 | 1014.3 |
| 20260831024635 | 61 | 263 | 3.0 | 7.0 | 0.13 | 0.14 | 0.13 | 90 | 1014.4 |
| 20260831024535 | 61 | 264 | 3.0 | 7.0 | 0.13 | 0.14 | 0.13 | 90 | 1014.5 |
| 20260831024433 | 61 | 260 | 4.0 | 7.0 | 0.13 | 0.14 | 0.13 | 90 | 1014.7 |
| 20260831024332 | 61 | 254 | 4.0 | 7.0 | 0.13 | 0.14 | 0.13 | 90 | 1014.9 |
| 20260831024301 | 61 | 258 | 4.0 | 8.0 | 0.13 | 0.14 | 0.13 | 90 | 1015.0 |
| 20260831024232 | 61 | 259 | 4.0 | 8.0 | 0.13 | 0.14 | 0.13 | 90 | 1015.0 |
| 20260831024132 | 61 | 263 | 4.0 | 8.0 | 0.13 | 0.14 | 0.13 | 90 | 1015.0 |
| 20260831024032 | 61 | 257 | 4.0 | 8.0 | 0.13 | 0.14 | 0.13 | 90 | 1015.0 |
| 20260831024028 | 61 | 245 | 4.0 | 8.0 | 0.13 | 0.13 | 0.13 | 90 | 1015.2 |
| 20260831024015 | 61 | 241 | 4.0 | 8.0 | 0.13 | 0.13 | 0.13 | 90 | 1015.2 |
| 20260831024011 | 61 | 243 | 4.0 | 8.0 | 0.13 | 0.13 | 0.13 | 90 | 1015.2 |
| 20260831023732 | 61 | 250 | 4.0 | 8.0 | 0.13 | 0.13 | 0.12 | 90 | 1015.2 |
| 20260831023632 | 61 | 259 | 4.0 | 8.0 | 0.12 | 0.13 | 0.12 | 89 | 1015.2 |
| 20260831023532 | 61 | 263 | 5.0 | 12.0 | 0.12 | 0.13 | 0.12 | 89 | 1015.2 |
| 20260831023432 | 61 | 245 | 5.0 | 12.0 | 0.12 | 0.13 | 0.11 | 89 | 1015.2 |
| 20260831023332 | 61 | 267 | 6.0 | 12.0 | 0.11 | 0.12 | 0.11 | 89 | 1015.2 |
| 20260831023301 | 61 | 265 | 6.0 | 13.0 | 0.11 | 0.12 | 0.11 | 89 | 1015.1 |
| 20260831023232 | 61 | 261 | 6.0 | 15.0 | 0.11 | 0.12 | 0.11 | 89 | 1015.1 |
| 20260831023131 | 61 | 264 | 7.0 | 15.0 | 0.11 | 0.12 | 0.11 | 89 | 1015.1 |
| 20260831023029 | 61 | 284 | 8.0 | 15.0 | 0.11 | 0.12 | 0.11 | 89 | 1015.2 |
| 20260831022930 | 62 | 236 | 8.0 | 15.0 | 0.11 | 0.12 | 0.11 | 88 | 1015.3 |
| 20260831022829 | 62 | 273 | 9.0 | 15.0 | 0.11 | 0.12 | 0.11 | 89 | 1015.4 |
| 20260831022801 | 62 | 275 | 9.0 | 15.0 | 0.11 | 0.12 | 0.10 | 88 | 1015.4 |
| 20260831022729 | 62 | 277 | 9.0 | 15.0 | 0.11 | 0.12 | 0.10 | 88 | 1015.4 |
| 20260831022628 | 62 | 273 | 10.0 | 16.0 | 0.10 | 0.11 | 0.10 | 88 | 1015.4 |
| 20260831022528 | 62 | 262 | 10.0 | 16.0 | 0.10 | 0.11 | 0.09 | 88 | 1015.6 |
| 20260831022428 | 62 | 269 | 10.0 | 16.0 | 0.09 | 0.10 | 0.09 | 88 | 1015.6 |
| 20260831022328 | 62 | 257 | 10.0 | 16.0 | 0.09 | 0.09 | 0.09 | 88 | 1015.6 |
| 20260831022301 | 62 | 234 | 10.0 | 16.0 | 0.09 | 0.09 | 0.08 | 88 | 1015.7 |
| 20260831022227 | 62 | 254 | 10.0 | 18.0 | 0.08 | 0.09 | 0.06 | 88 | 1015.7 |
| 20260831022122 | 62 | 265 | 10.0 | 18.0 | 0.07 | 0.08 | 0.06 | 88 | 1016.0 |
| 20260831022022 | 62 | 274 | 10.0 | 18.0 | 0.06 | 0.07 | 0.06 | 88 | 1016.0 |
| 20260831021922 | 62 | 282 | 10.0 | 18.0 | 0.06 | 0.06 | 0.06 | 88 | 1015.8 |
| 20260831021821 | 62 | 278 | 10.0 | 18.0 | 0.05 | 0.06 | 0.04 | 87 | 1016.1 |
| 20260831021801 | 62 | 259 | 10.0 | 18.0 | 0.04 | 0.05 | 0.03 | 87 | 1016.1 |
| 20260831021721 | 62 | 269 | 10.0 | 18.0 | 0.03 | 0.04 | 0.03 | 87 | 1016.1 |
| 20260831021616 | 62 | 253 | 10.0 | 18.0 | 0.02 | 0.03 | 0.02 | 87 | 1015.7 |
| 20260831021516 | 62 | 248 | 10.0 | 18.0 | 0.02 | 0.03 | 0.02 | 87 | 1016.1 |
| 20260831021416 | 62 | 262 | 11.0 | 18.0 | 0.02 | 0.03 | 0.02 | 87 | 1015.6 |
| 20260831021316 | 62 | 246 | 10.0 | 18.0 | 0.02 | 0.03 | 0.02 | 87 | 1015.7 |
| 20260831021301 | 62 | 259 | 10.0 | 18.0 | 0.02 | 0.03 | 0.02 | 87 | 1015.7 |
| 20260831021215 | 62 | 278 | 10.0 | 17.0 | 0.02 | 0.03 | 0.02 | 87 | 1015.6 |
| 20260831021110 | 62 | 263 | 10.0 | 18.0 | 0.02 | 0.03 | 0.02 | 87 | 1015.7 |
| 20260831021010 | 62 | 271 | 10.0 | 18.0 | 0.02 | 0.03 | 0.02 | 87 | 1015.6 |
| 20260831020910 | 62 | 271 | 10.0 | 18.0 | 0.02 | 0.03 | 0.02 | 86 | 1015.4 |
| 20260831020809 | 62 | 285 | 10.0 | 18.0 | 0.02 | 0.03 | 0.02 | 86 | 1015.6 |
| 20260831020800 | 62 | 249 | 10.0 | 18.0 | 0.02 | 0.03 | 0.02 | 86 | 1015.6 |
| 20260831020710 | 63 | 256 | 10.0 | 18.0 | 0.02 | 0.03 | 0.02 | 86 | 1015.4 |
| 20260831020603 | 63 | 295 | 10.0 | 27.0 | 0.02 | 0.03 | 0.02 | 86 | 1015.4 |
| 20260831020503 | 63 | 286 | 11.0 | 27.0 | 0.02 | 0.03 | 0.02 | 87 | 1015.1 |
| 20260831020404 | 63 | 252 | 11.0 | 29.0 | 0.02 | 0.03 | 0.02 | 87 | 1014.9 |
| 20260831020304 | 63 | 259 | 12.0 | 29.0 | 0.02 | 0.02 | 0.02 | 87 | 1014.8 |
| 20260831020300 | 63 | 269 | 12.0 | 29.0 | 0.02 | 0.02 | 0.02 | 87 | 1014.8 |
| 20260831020203 | 63 | 264 | 12.0 | 29.0 | 0.02 | 0.02 | 0.02 | 87 | 1014.8 |
| 20260831020002 | 63 | 254 | 12.0 | 29.0 | 0.02 | 0.02 | 0.02 | 87 | 1014.8 |
| 20260831015901 | 63 | 313 | 12.0 | 29.0 | 0.02 | 0.02 | 0.02 | 87 | 1014.7 |
| 20260831015802 | 63 | 287 | 11.0 | 29.0 | 0.02 | 0.02 | 0.02 | 87 | 1015.0 |
| 20260831015701 | 63 | 257 | 10.0 | 29.0 | 0.02 | 0.02 | 0.01 | 87 | 1014.9 |
| 20260831015602 | 63 | 267 | 9.0 | 29.0 | 0.01 | 0.02 | 0.01 | 86 | 1014.9 |
| 20260831015520 | 63 | 302 | 8.0 | 29.0 | 0.01 | 0.02 | 0.00 | 86 | 1015.0 |
| 20260831015516 | 63 | 290 | 6.0 | 19.0 | 0.00 | 0.01 | 0.00 | 86 | 1014.7 |
| 20260831015512 | 63 | 313 | 5.0 | 19.0 | 0.00 | 0.01 | 0.00 | 86 | 1014.7 |
| 20260831015202 | 63 | 273 | 4.0 | 17.0 | 0.00 | 0.01 | 0.00 | 86 | 1014.6 |
| 20260831015101 | 63 | 294 | 3.0 | 16.0 | 0.00 | 0.01 | 0.00 | 86 | 1014.4 |
| 20260831015001 | 63 | 271 | 2.0 | 13.0 | 0.00 | 0.01 | 0.00 | 86 | 1014.3 |
| 20260831014901 | 63 | 288 | 1.0 | 11.0 | 0.00 | 0.01 | 0.00 | 86 | 1013.7 |
| 20260831014801 | 63 | 273 | 0.0 | 7.0 | 0.00 | 0.01 | 0.00 | 85 | 1013.2 |
| 20260831014701 | 63 | 249 | 0.0 | 4.0 | 0.00 | 0.01 | 0.00 | 85 | 1012.8 |
| 20260831014601 | 63 | 105 | 0.0 | 2.0 | 0.00 | 0.01 | 0.00 | 85 | 1012.6 |
| 20260831014500 | 63 | 105 | 0.0 | 1.0 | 0.00 | 0.01 | 0.00 | 85 | 1012.5 |
| 20260831014400 | 63 | 105 | 0.0 | 1.0 | 0.00 | 0.01 | 0.00 | 85 | 1012.4 |
| 20260831014301 | 63 | 105 | 0.0 | 1.0 | 0.00 | 0.01 | 0.00 | 85 | 1012.4 |
| 20260831014201 | 63 | 105 | 0.0 | 1.0 | 0.00 | 0.01 | 0.00 | 85 | 1012.3 |
| 20260831014059 | 63 | 105 | 0.0 | 1.0 | 0.00 | 0.01 | 0.00 | 85 | 1012.1 |
| 20260831013957 | 63 | 105 | 0.0 | 1.0 | 0.00 | 0.01 | 0.00 | 85 | 1012.3 |
| 20260831013852 | 63 | 105 | 0.0 | 2.0 | 0.00 | 0.01 | 0.00 | 85 | 1012.3 |
| 20260831013801 | 63 | 105 | 0.0 | 2.0 | 0.00 | 0.01 | 0.00 | 85 | 1012.3 |
| 20260831013752 | 63 | 105 | 0.0 | 2.0 | 0.00 | 0.01 | 0.00 | 85 | 1012.3 |
| 20260831013652 | 63 | 105 | 0.0 | 2.0 | 0.00 | 0.01 | 0.00 | 85 | 1012.3 |
| 20260831013552 | 63 | 105 | 0.0 | 2.0 | 0.00 | 0.01 | 0.00 | 85 | 1012.3 |
| 20260831013451 | 63 | 105 | 0.0 | 2.0 | 0.00 | 0.01 | 0.00 | 85 | 1012.3 |
| 20260831013351 | 63 | 105 | 0.0 | 2.0 | 0.00 | 0.01 | 0.00 | 85 | 1012.3 |
| 20260831013300 | 63 | 105 | 0.0 | 2.0 | 0.00 | 0.01 | 0.00 | 85 | 1012.3 |
| 20260831013250 | 63 | 105 | 0.0 | 2.0 | 0.00 | 0.01 | 0.00 | 85 | 1012.3 |
| 20260831013149 | 63 | 105 | 1.0 | 2.0 | 0.00 | 0.01 | 0.00 | 85 | 1012.3 |
| 20260831013048 | 63 | 105 | 0.0 | 2.0 | 0.00 | 0.01 | 0.00 | 85 | 1012.3 |
| 20260831012946 | 63 | 105 | 0.0 | 2.0 | 0.00 | 0.01 | 0.00 | 85 | 1012.3 |
| 20260831012844 | 63 | 105 | 1.0 | 2.0 | 0.00 | 0.01 | 0.00 | 85 | 1012.3 |
| 20260831012801 | 63 | 105 | 1.0 | 2.0 | 0.00 | 0.01 | 0.00 | 84 | 1012.3 |
| 20260831012744 | 63 | 105 | 1.0 | 2.0 | 0.00 | 0.01 | 0.00 | 84 | 1012.3 |
| 20260831012644 | 63 | 105 | 1.0 | 2.0 | 0.00 | 0.01 | 0.00 | 84 | 1012.3 |
| 20260831012542 | 63 | 105 | 1.0 | 2.0 | 0.00 | 0.01 | 0.00 | 85 | 1012.3 |
| 20260831012441 | 63 | 105 | 1.0 | 2.0 | 0.00 | 0.01 | 0.00 | 85 | 1012.3 |
| 20260831012342 | 63 | 105 | 1.0 | 2.0 | 0.00 | 0.01 | 0.00 | 85 | 1012.3 |
| 20260831012300 | 63 | 105 | 1.0 | 2.0 | 0.00 | 0.01 | 0.00 | 85 | 1012.4 |
| 20260831012241 | 63 | 105 | 1.0 | 2.0 | 0.00 | 0.01 | 0.00 | 85 | 1012.4 |
| 20260831012139 | 63 | 105 | 1.0 | 2.0 | 0.00 | 0.01 | 0.00 | 85 | 1012.4 |
| 20260831012040 | 63 | 104 | 1.0 | 2.0 | 0.00 | 0.01 | 0.00 | 85 | 1012.4 |
| 20260831012028 | 63 | 105 | 1.0 | 3.0 | 0.00 | 0.01 | 0.00 | 85 | 1012.4 |
| 20260831012017 | 63 | 105 | 1.0 | 2.0 | 0.00 | 0.01 | 0.00 | 85 | 1012.4 |
| 20260831012013 | 63 | 105 | 1.0 | 2.0 | 0.00 | 0.01 | 0.00 | 85 | 1012.3 |
| 20260831011740 | 63 | 105 | 1.0 | 3.0 | 0.00 | 0.01 | 0.00 | 85 | 1012.4 |
| 20260831011640 | 63 | 105 | 1.0 | 3.0 | 0.00 | 0.01 | 0.00 | 85 | 1012.4 |
| 20260831011540 | 63 | 105 | 1.0 | 3.0 | 0.00 | 0.01 | 0.00 | 85 | 1012.4 |
| 20260831011440 | 63 | 105 | 1.0 | 3.0 | 0.00 | 0.01 | 0.00 | 85 | 1012.4 |
| 20260831011339 | 63 | 105 | 1.0 | 3.0 | 0.00 | 0.01 | 0.00 | 85 | 1012.4 |
| 20260831011301 | 63 | 105 | 1.0 | 3.0 | 0.00 | 0.01 | 0.00 | 85 | 1012.4 |
| 20260831011237 | 63 | 105 | 1.0 | 3.0 | 0.00 | 0.01 | 0.00 | 85 | 1012.4 |
| 20260831011136 | 63 | 105 | 1.0 | 3.0 | 0.00 | 0.01 | 0.00 | 85 | 1012.5 |
| 20260831011036 | 63 | 105 | 1.0 | 3.0 | 0.00 | 0.01 | 0.00 | 85 | 1012.4 |
| 20260831010934 | 63 | 105 | 1.0 | 3.0 | 0.00 | 0.01 | 0.00 | 85 | 1012.4 |
| 20260831010834 | 63 | 105 | 1.0 | 3.0 | 0.00 | 0.01 | 0.00 | 85 | 1012.4 |
| 20260831010801 | 63 | 105 | 1.0 | 3.0 | 0.00 | 0.01 | 0.00 | 85 | 1012.4 |
| 20260831010733 | 63 | 105 | 1.0 | 3.0 | 0.00 | 0.01 | 0.00 | 85 | 1012.4 |
| 20260831010632 | 63 | 106 | 1.0 | 2.0 | 0.00 | 0.01 | 0.00 | 85 | 1012.4 |
| 20260831010531 | 63 | 107 | 1.0 | 2.0 | 0.00 | 0.01 | 0.00 | 85 | 1012.4 |
| 20260831010431 | 63 | 106 | 0.0 | 2.0 | 0.00 | 0.01 | 0.00 | 85 | 1012.4 |
| 20260831010301 | 63 | 107 | 0.0 | 2.0 | 0.00 | 0.01 | 0.00 | 85 | 1012.5 |
| 20260831010230 | 63 | 107 | 0.0 | 2.0 | 0.00 | 0.01 | 0.00 | 85 | 1012.5 |
| 20260831010129 | 63 | 107 | 0.0 | 3.0 | 0.00 | 0.01 | 0.00 | 85 | 1012.5 |
| 20260831010029 | 63 | 107 | 0.0 | 3.0 | 0.00 | 0.01 | 0.00 | 85 | 1012.5 |
| 20260831005930 | 63 | 107 | 1.0 | 3.0 | 0.00 | 0.01 | 0.00 | 85 | 1012.5 |
| 20260831005801 | 63 | 107 | 1.0 | 3.0 | 0.00 | 0.01 | 0.00 | 85 | 1012.5 |
| 20260831005729 | 63 | 107 | 1.0 | 3.0 | 0.00 | 0.01 | 0.00 | 85 | 1012.5 |
| 20260831005629 | 63 | 107 | 1.0 | 3.0 | 0.00 | 0.01 | 0.00 | 85 | 1012.6 |
| 20260831005529 | 63 | 107 | 1.0 | 3.0 | 0.00 | 0.01 | 0.00 | 85 | 1012.6 |
| 20260831005429 | 63 | 107 | 1.0 | 3.0 | 0.00 | 0.01 | 0.00 | 85 | 1012.6 |
| 20260831005329 | 63 | 107 | 1.0 | 3.0 | 0.00 | 0.01 | 0.00 | 85 | 1012.6 |
| 20260831005301 | 63 | 107 | 1.0 | 3.0 | 0.00 | 0.01 | 0.00 | 85 | 1012.7 |
| 20260831005229 | 63 | 107 | 1.0 | 3.0 | 0.00 | 0.01 | 0.00 | 85 | 1012.7 |
| 20260831005129 | 63 | 107 | 1.0 | 3.0 | 0.00 | 0.01 | 0.00 | 85 | 1012.7 |
| 20260831005029 | 63 | 107 | 1.0 | 3.0 | 0.00 | 0.01 | 0.00 | 85 | 1012.7 |
| 20260831004929 | 63 | 107 | 1.0 | 3.0 | 0.00 | 0.01 | 0.00 | 85 | 1012.7 |
| 20260831004829 | 63 | 107 | 1.0 | 3.0 | 0.00 | 0.01 | 0.00 | 85 | 1012.7 |
| 20260831004801 | 63 | 107 | 0.0 | 3.0 | 0.00 | 0.01 | 0.00 | 85 | 1012.7 |
| 20260831004729 | 63 | 107 | 0.0 | 3.0 | 0.00 | 0.01 | 0.00 | 85 | 1012.7 |
| 20260831004629 | 63 | 107 | 0.0 | 3.0 | 0.00 | 0.01 | 0.00 | 85 | 1012.7 |
| 20260831004529 | 63 | 105 | 0.0 | 2.0 | 0.00 | 0.01 | 0.00 | 85 | 1012.7 |
| 20260831004515 | 63 | 105 | 0.0 | 2.0 | 0.00 | 0.01 | 0.00 | 85 | 1012.7 |
| 20260831004511 | 63 | 106 | 0.0 | 2.0 | 0.00 | 0.01 | 0.00 | 85 | 1012.7 |
| 20260831004228 | 63 | 106 | 0.0 | 2.0 | 0.00 | 0.01 | 0.00 | 85 | 1012.7 |
| 20260831004128 | 63 | 106 | 0.0 | 2.0 | 0.00 | 0.01 | 0.00 | 85 | 1012.7 |
| 20260831004029 | 63 | 106 | 0.0 | 2.0 | 0.00 | 0.01 | 0.00 | 85 | 1012.7 |
| 20260831003929 | 63 | 106 | 0.0 | 2.0 | 0.00 | 0.01 | 0.00 | 85 | 1012.7 |
| 20260831003800 | 63 | 106 | 0.0 | 2.0 | 0.00 | 0.01 | 0.00 | 85 | 1012.7 |
| 20260831003729 | 63 | 106 | 0.0 | 2.0 | 0.00 | 0.01 | 0.00 | 85 | 1012.7 |
| 20260831003629 | 63 | 106 | 1.0 | 2.0 | 0.00 | 0.01 | 0.00 | 85 | 1012.7 |
| 20260831003529 | 63 | 106 | 1.0 | 2.0 | 0.00 | 0.01 | 0.00 | 85 | 1012.7 |
| 20260831003515 | 63 | 106 | 1.0 | 2.0 | 0.00 | 0.01 | 0.00 | 85 | 1012.7 |
| 20260831003511 | 63 | 106 | 1.0 | 2.0 | 0.00 | 0.01 | 0.00 | 85 | 1012.7 |
| 20260831003224 | 63 | 106 | 1.0 | 2.0 | 0.00 | 0.01 | 0.00 | 85 | 1012.7 |
| 20260831003122 | 63 | 106 | 0.0 | 2.0 | 0.00 | 0.01 | 0.00 | 85 | 1012.7 |
| 20260831003022 | 63 | 106 | 1.0 | 2.0 | 0.00 | 0.01 | 0.00 | 85 | 1012.8 |
| 20260831002922 | 63 | 106 | 1.0 | 2.0 | 0.00 | 0.01 | 0.00 | 85 | 1012.8 |
| 20260831002801 | 63 | 106 | 1.0 | 2.0 | 0.00 | 0.01 | 0.00 | 85 | 1012.7 |
| 20260831002721 | 63 | 106 | 1.0 | 2.0 | 0.00 | 0.01 | 0.00 | 85 | 1012.7 |
| 20260831002619 | 63 | 106 | 1.0 | 2.0 | 0.00 | 0.01 | 0.00 | 84 | 1012.7 |
| 20260831002519 | 63 | 106 | 1.0 | 2.0 | 0.00 | 0.01 | 0.00 | 84 | 1012.8 |
| 20260831002515 | 63 | 106 | 1.0 | 2.0 | 0.00 | 0.01 | 0.00 | 84 | 1012.8 |
| 20260831002511 | 63 | 106 | 1.0 | 2.0 | 0.00 | 0.01 | 0.00 | 84 | 1012.8 |
| 20260831002217 | 63 | 106 | 1.0 | 2.0 | 0.00 | 0.01 | 0.00 | 84 | 1012.9 |
| 20260831002117 | 63 | 106 | 1.0 | 2.0 | 0.00 | 0.01 | 0.00 | 84 | 1012.8 |
| 20260831002017 | 63 | 106 | 1.0 | 2.0 | 0.00 | 0.01 | 0.00 | 84 | 1012.8 |
| 20260831001917 | 63 | 106 | 1.0 | 2.0 | 0.00 | 0.01 | 0.00 | 84 | 1012.8 |
| 20260831001801 | 63 | 106 | 1.0 | 2.0 | 0.00 | 0.01 | 0.00 | 84 | 1012.9 |
| 20260831001718 | 63 | 106 | 1.0 | 2.0 | 0.00 | 0.01 | 0.00 | 84 | 1012.9 |
| 20260831001617 | 63 | 106 | 1.0 | 2.0 | 0.00 | 0.01 | 0.00 | 84 | 1012.9 |
| 20260831001514 | 63 | 106 | 1.0 | 2.0 | 0.00 | 0.01 | 0.00 | 84 | 1012.9 |
| 20260831001414 | 63 | 106 | 1.0 | 2.0 | 0.00 | 0.01 | 0.00 | 84 | 1012.9 |
| 20260831001314 | 63 | 105 | 1.0 | 2.0 | 0.00 | 0.01 | 0.00 | 84 | 1012.9 |
| 20260831001300 | 63 | 106 | 1.0 | 2.0 | 0.00 | 0.01 | 0.00 | 84 | 1012.9 |
| 20260831001213 | 63 | 106 | 1.0 | 2.0 | 0.00 | 0.01 | 0.00 | 84 | 1012.9 |
| 20260831001114 | 63 | 106 | 1.0 | 2.0 | 0.00 | 0.01 | 0.00 | 84 | 1012.9 |
| 20260831001013 | 63 | 105 | 1.0 | 2.0 | 0.00 | 0.01 | 0.00 | 84 | 1012.9 |
| 20260831000913 | 63 | 106 | 1.0 | 2.0 | 0.00 | 0.01 | 0.00 | 84 | 1012.9 |
| 20260831000801 | 63 | 105 | 0.0 | 2.0 | 0.00 | 0.01 | 0.00 | 84 | 1013.0 |
| 20260831000713 | 63 | 105 | 0.0 | 2.0 | 0.00 | 0.01 | 0.00 | 84 | 1013.0 |
| 20260831000613 | 63 | 105 | 0.0 | 2.0 | 0.00 | 0.01 | 0.00 | 84 | 1013.0 |
| 20260831000521 | 63 | 105 | 0.0 | 2.0 | 0.00 | 0.01 | 0.00 | 84 | 1013.0 |
| 20260831000517 | 63 | 105 | 0.0 | 2.0 | 0.00 | 0.01 | 0.00 | 84 | 1013.0 |
| 20260831000513 | 63 | 105 | 0.0 | 2.0 | 0.00 | 0.01 | 0.00 | 84 | 1013.0 |
| 20260831000211 | 63 | 105 | 1.0 | 2.0 | 0.00 | 0.01 | 0.00 | 84 | 1013.0 |
| 20260831000112 | 63 | 105 | 1.0 | 2.0 | 0.00 | 0.01 | 0.00 | 84 | 1013.0 |
| 20260831000011 | 63 | 105 | 1.0 | 2.0 | 0.00 | 0.01 | 0.00 | 84 | 1013.0 |
| 20260830235911 | 63 | 105 | 1.0 | 2.0 | 0.00 | 0.01 | 0.00 | 84 | 1013.0 |
| 20260830235801 | 63 | 105 | 1.0 | 2.0 | 0.00 | 0.01 | 0.00 | 83 | 1013.0 |
| 20260830235711 | 63 | 105 | 1.0 | 2.0 | 0.00 | 0.01 | 0.00 | 83 | 1013.0 |
| 20260830235611 | 63 | 105 | 1.0 | 2.0 | 0.00 | 0.01 | 0.00 | 83 | 1013.1 |
| 20260830235511 | 63 | 105 | 1.0 | 2.0 | 0.00 | 0.01 | 0.00 | 83 | 1013.0 |
| 20260830235411 | 63 | 105 | 1.0 | 2.0 | 0.00 | 0.01 | 0.00 | 83 | 1013.0 |
| 20260830235301 | 63 | 105 | 1.0 | 2.0 | 0.00 | 0.01 | 0.00 | 83 | 1013.0 |
| 20260830235211 | 63 | 105 | 1.0 | 2.0 | 0.00 | 0.01 | 0.00 | 83 | 1013.0 |
| 20260830235111 | 63 | 105 | 1.0 | 2.0 | 0.00 | 0.01 | 0.00 | 83 | 1013.0 |
| 20260830235011 | 63 | 105 | 1.0 | 2.0 | 0.00 | 0.01 | 0.00 | 83 | 1013.0 |
| 20260830234911 | 63 | 105 | 1.0 | 2.0 | 0.00 | 0.01 | 0.00 | 83 | 1013.0 |
| 20260830234801 | 63 | 105 | 1.0 | 2.0 | 0.00 | 0.01 | 0.00 | 83 | 1013.0 |
| 20260830234712 | 63 | 105 | 1.0 | 2.0 | 0.00 | 0.01 | 0.00 | 83 | 1013.0 |
| 20260830234612 | 63 | 105 | 1.0 | 2.0 | 0.00 | 0.01 | 0.00 | 83 | 1013.0 |
| 20260830234511 | 63 | 105 | 1.0 | 2.0 | 0.00 | 0.01 | 0.00 | 83 | 1013.0 |
| 20260830234407 | 64 | 105 | 1.0 | 2.0 | 0.00 | 0.01 | 0.00 | 83 | 1013.0 |
| 20260830234301 | 64 | 105 | 1.0 | 2.0 | 0.00 | 0.01 | 0.00 | 83 | 1013.0 |
| 20260830234208 | 63 | 105 | 1.0 | 2.0 | 0.00 | 0.01 | 0.00 | 83 | 1013.0 |
| 20260830234107 | 64 | 105 | 1.0 | 2.0 | 0.00 | 0.01 | 0.00 | 83 | 1013.0 |
| 20260830234020 | 64 | 105 | 1.0 | 2.0 | 0.00 | 0.01 | 0.00 | 83 | 1013.0 |
| 20260830234016 | 64 | 105 | 1.0 | 2.0 | 0.00 | 0.01 | 0.00 | 83 | 1013.0 |
| 20260830234012 | 64 | 105 | 1.0 | 2.0 | 0.00 | 0.01 | 0.00 | 83 | 1013.0 |
| 20260830233708 | 64 | 105 | 1.0 | 2.0 | 0.00 | 0.01 | 0.00 | 83 | 1013.0 |
| 20260830233608 | 64 | 105 | 1.0 | 2.0 | 0.00 | 0.01 | 0.00 | 83 | 1013.0 |
| 20260830233521 | 64 | 105 | 1.0 | 2.0 | 0.00 | 0.01 | 0.00 | 83 | 1013.0 |
| 20260830233517 | 64 | 105 | 1.0 | 2.0 | 0.00 | 0.01 | 0.00 | 83 | 1013.1 |
| 20260830233513 | 64 | 105 | 1.0 | 2.0 | 0.00 | 0.01 | 0.00 | 83 | 1013.1 |
| 20260830233207 | 64 | 105 | 1.0 | 2.0 | 0.00 | 0.01 | 0.00 | 83 | 1013.1 |
| 20260830233108 | 64 | 105 | 1.0 | 2.0 | 0.00 | 0.01 | 0.00 | 83 | 1013.1 |
| 20260830233008 | 64 | 105 | 1.0 | 2.0 | 0.00 | 0.01 | 0.00 | 83 | 1013.1 |
| 20260830232908 | 64 | 106 | 1.0 | 2.0 | 0.00 | 0.01 | 0.00 | 83 | 1013.1 |
| 20260830232807 | 64 | 106 | 1.0 | 2.0 | 0.00 | 0.01 | 0.00 | 83 | 1013.1 |
| 20260830232759 | 64 | 106 | 1.0 | 2.0 | 0.00 | 0.01 | 0.00 | 83 | 1013.1 |
| 20260830232707 | 64 | 106 | 1.0 | 4.0 | 0.00 | 0.01 | 0.00 | 83 | 1013.1 |
| 20260830232607 | 64 | 106 | 0.0 | 4.0 | 0.00 | 0.01 | 0.00 | 83 | 1013.1 |
| 20260830232503 | 64 | 106 | 0.0 | 4.0 | 0.00 | 0.01 | 0.00 | 83 | 1013.1 |
| 20260830232403 | 64 | 106 | 0.0 | 4.0 | 0.00 | 0.01 | 0.00 | 83 | 1013.1 |
| 20260830232306 | 64 | 106 | 1.0 | 4.0 | 0.00 | 0.01 | 0.00 | 83 | 1013.1 |
| 20260830232301 | 64 | 106 | 1.0 | 4.0 | 0.00 | 0.01 | 0.00 | 83 | 1013.1 |
| 20260830232204 | 64 | 106 | 1.0 | 4.0 | 0.00 | 0.01 | 0.00 | 83 | 1013.1 |
| 20260830232103 | 64 | 106 | 1.0 | 4.0 | 0.00 | 0.01 | 0.00 | 83 | 1013.1 |
| 20260830232004 | 64 | 106 | 1.0 | 4.0 | 0.00 | 0.01 | 0.00 | 83 | 1013.2 |
| 20260830231904 | 64 | 107 | 1.0 | 4.0 | 0.00 | 0.01 | 0.00 | 83 | 1013.2 |
| 20260830231804 | 64 | 107 | 1.0 | 4.0 | 0.00 | 0.01 | 0.00 | 83 | 1013.2 |
| 20260830231759 | 64 | 107 | 1.0 | 4.0 | 0.00 | 0.01 | 0.00 | 83 | 1013.2 |
| 20260830231704 | 64 | 123 | 1.0 | 3.0 | 0.00 | 0.01 | 0.00 | 83 | 1013.2 |
| 20260830231604 | 64 | 124 | 1.0 | 3.0 | 0.00 | 0.01 | 0.00 | 83 | 1013.2 |
| 20260830231504 | 64 | 123 | 1.0 | 3.0 | 0.00 | 0.01 | 0.00 | 83 | 1013.2 |
| 20260830231404 | 64 | 124 | 1.0 | 3.0 | 0.00 | 0.01 | 0.00 | 83 | 1013.2 |
| 20260830231303 | 64 | 124 | 1.0 | 3.0 | 0.00 | 0.01 | 0.00 | 83 | 1013.2 |
| 20260830231259 | 64 | 124 | 1.0 | 3.0 | 0.00 | 0.01 | 0.00 | 83 | 1013.2 |
| 20260830231203 | 64 | 125 | 1.0 | 3.0 | 0.00 | 0.01 | 0.00 | 84 | 1013.2 |
| 20260830231103 | 64 | 125 | 1.0 | 3.0 | 0.00 | 0.01 | 0.00 | 84 | 1013.2 |
| 20260830231003 | 64 | 125 | 1.0 | 3.0 | 0.00 | 0.01 | 0.00 | 83 | 1013.2 |
| 20260830230903 | 64 | 125 | 1.0 | 3.0 | 0.00 | 0.01 | 0.00 | 84 | 1013.2 |
| 20260830230804 | 64 | 125 | 1.0 | 3.0 | 0.00 | 0.01 | 0.00 | 84 | 1013.2 |
| 20260830230800 | 64 | 125 | 1.0 | 3.0 | 0.00 | 0.01 | 0.00 | 84 | 1013.2 |
| 20260830230704 | 64 | 126 | 1.0 | 3.0 | 0.00 | 0.01 | 0.00 | 84 | 1013.2 |
| 20260830230603 | 64 | 127 | 1.0 | 3.0 | 0.00 | 0.01 | 0.00 | 83 | 1013.2 |
| 20260830230501 | 64 | 127 | 1.0 | 3.0 | 0.00 | 0.01 | 0.00 | 84 | 1013.2 |
| 20260830230401 | 64 | 127 | 1.0 | 3.0 | 0.00 | 0.01 | 0.00 | 84 | 1013.3 |
| 20260830230304 | 64 | 127 | 1.0 | 2.0 | 0.00 | 0.01 | 0.00 | 84 | 1013.3 |
| 20260830230300 | 64 | 127 | 1.0 | 2.0 | 0.00 | 0.01 | 0.00 | 84 | 1013.3 |
| 20260830230202 | 64 | 128 | 1.0 | 2.0 | 0.00 | 0.01 | 0.00 | 84 | 1013.3 |
| 20260830230002 | 64 | 128 | 1.0 | 2.0 | 0.00 | 0.01 | 0.00 | 84 | 1013.3 |
| 20260830225902 | 64 | 128 | 1.0 | 2.0 | 0.00 | 0.01 | 0.00 | 84 | 1013.3 |
| 20260830225803 | 64 | 128 | 1.0 | 2.0 | 0.00 | 0.01 | 0.00 | 84 | 1013.4 |
| 20260830225759 | 64 | 128 | 1.0 | 2.0 | 0.00 | 0.01 | 0.00 | 84 | 1013.4 |
| 20260830225702 | 64 | 128 | 0.0 | 2.0 | 0.00 | 0.01 | 0.00 | 84 | 1013.4 |
| 20260830225601 | 64 | 128 | 0.0 | 2.0 | 0.00 | 0.01 | 0.00 | 84 | 1013.4 |
| 20260830225501 | 64 | 128 | 0.0 | 2.0 | 0.00 | 0.01 | 0.00 | 84 | 1013.4 |
| 20260830225401 | 64 | 128 | 0.0 | 2.0 | 0.00 | 0.01 | 0.00 | 84 | 1013.4 |
| 20260830225305 | 64 | 128 | 0.0 | 2.0 | 0.00 | 0.01 | 0.00 | 84 | 1013.4 |
| 20260830225300 | 64 | 128 | 0.0 | 2.0 | 0.00 | 0.01 | 0.00 | 84 | 1013.4 |
| 20260830225201 | 64 | 128 | 0.0 | 3.0 | 0.00 | 0.01 | 0.00 | 84 | 1013.3 |
| 20260830225101 | 64 | 128 | 0.0 | 3.0 | 0.00 | 0.01 | 0.00 | 84 | 1013.4 |
| 20260830225001 | 64 | 128 | 1.0 | 3.0 | 0.00 | 0.01 | 0.00 | 84 | 1013.4 |
| 20260830224901 | 64 | 128 | 1.0 | 3.0 | 0.00 | 0.01 | 0.00 | 84 | 1013.4 |
| 20260830224804 | 64 | 128 | 1.0 | 3.0 | 0.00 | 0.01 | 0.00 | 84 | 1013.4 |
| 20260830224759 | 64 | 128 | 1.0 | 3.0 | 0.00 | 0.01 | 0.00 | 84 | 1013.4 |
| 20260830224700 | 64 | 128 | 1.0 | 3.0 | 0.00 | 0.01 | 0.00 | 83 | 1013.4 |
| 20260830224601 | 64 | 128 | 1.0 | 3.0 | 0.00 | 0.01 | 0.00 | 83 | 1013.4 |
| 20260830224501 | 64 | 128 | 1.0 | 3.0 | 0.00 | 0.01 | 0.00 | 83 | 1013.4 |
| 20260830224401 | 64 | 128 | 1.0 | 3.0 | 0.00 | 0.01 | 0.00 | 83 | 1013.4 |
| 20260830224301 | 64 | 129 | 1.0 | 3.0 | 0.00 | 0.01 | 0.00 | 83 | 1013.4 |
| 20260830224252 | 64 | 129 | 1.0 | 3.0 | 0.00 | 0.01 | 0.00 | 83 | 1013.4 |
| 20260830224200 | 64 | 129 | 1.0 | 3.0 | 0.00 | 0.01 | 0.00 | 83 | 1013.4 |
| 20260830224100 | 64 | 131 | 1.0 | 3.0 | 0.00 | 0.01 | 0.00 | 83 | 1013.4 |
| 20260830224014 | 64 | 132 | 1.0 | 3.0 | 0.00 | 0.01 | 0.00 | 83 | 1013.3 |
| 20260830224005 | 64 | 131 | 1.0 | 3.0 | 0.00 | 0.01 | 0.00 | 83 | 1013.4 |
| 20260830224001 | 64 | 131 | 1.0 | 3.0 | 0.00 | 0.01 | 0.00 | 83 | 1013.3 |
| 20260830223957 | 64 | 132 | 1.0 | 3.0 | 0.00 | 0.01 | 0.00 | 83 | 1013.3 |
| 20260830223700 | 64 | 132 | 1.0 | 3.0 | 0.00 | 0.01 | 0.00 | 83 | 1013.3 |
| 20260830223604 | 64 | 132 | 1.0 | 3.0 | 0.00 | 0.01 | 0.00 | 83 | 1013.3 |
| 20260830223501 | 65 | 132 | 1.0 | 3.0 | 0.00 | 0.01 | 0.00 | 83 | 1013.4 |
| 20260830223401 | 65 | 134 | 1.0 | 3.0 | 0.00 | 0.01 | 0.00 | 83 | 1013.4 |
| 20260830223301 | 65 | 136 | 1.0 | 3.0 | 0.00 | 0.01 | 0.00 | 82 | 1013.4 |
| 20260830223240 | 65 | 136 | 1.0 | 3.0 | 0.00 | 0.01 | 0.00 | 82 | 1013.4 |
| 20260830223202 | 65 | 136 | 1.0 | 3.0 | 0.00 | 0.01 | 0.00 | 82 | 1013.4 |
| 20260830223102 | 65 | 136 | 0.0 | 3.0 | 0.00 | 0.01 | 0.00 | 82 | 1013.4 |
| 20260830223005 | 65 | 136 | 0.0 | 2.0 | 0.00 | 0.01 | 0.00 | 83 | 1013.5 |
| 20260830223001 | 65 | 137 | 0.0 | 2.0 | 0.00 | 0.01 | 0.00 | 82 | 1013.4 |
| 20260830222957 | 65 | 136 | 0.0 | 2.0 | 0.00 | 0.01 | 0.00 | 82 | 1013.4 |
| 20260830222953 | 65 | 136 | 0.0 | 2.0 | 0.00 | 0.01 | 0.00 | 83 | 1013.5 |
| 20260830222701 | 65 | 136 | 0.0 | 2.0 | 0.00 | 0.01 | 0.00 | 83 | 1013.5 |
| 20260830222601 | 65 | 136 | 0.0 | 2.0 | 0.00 | 0.01 | 0.00 | 82 | 1013.5 |
| 20260830222501 | 65 | 136 | 0.0 | 2.0 | 0.00 | 0.01 | 0.00 | 82 | 1013.5 |
| 20260830222401 | 65 | 136 | 0.0 | 2.0 | 0.00 | 0.01 | 0.00 | 82 | 1013.5 |
| 20260830222301 | 65 | 136 | 0.0 | 2.0 | 0.00 | 0.01 | 0.00 | 82 | 1013.5 |
| 20260830222228 | 65 | 136 | 1.0 | 3.0 | 0.00 | 0.01 | 0.00 | 82 | 1013.6 |
| 20260830222224 | 65 | 136 | 0.0 | 2.0 | 0.00 | 0.01 | 0.00 | 82 | 1013.5 |
| 20260830222220 | 65 | 136 | 0.0 | 2.0 | 0.00 | 0.01 | 0.00 | 82 | 1013.5 |
| 20260830222212 | 65 | 136 | 0.0 | 2.0 | 0.00 | 0.01 | 0.00 | 82 | 1013.5 |
| 20260830221953 | 65 | 136 | 0.0 | 2.0 | 0.00 | 0.01 | 0.00 | 82 | 1013.5 |
| 20260830221949 | 65 | 136 | 1.0 | 3.0 | 0.00 | 0.01 | 0.00 | 82 | 1013.6 |
| 20260830221702 | 65 | 136 | 1.0 | 3.0 | 0.00 | 0.01 | 0.00 | 82 | 1013.6 |
| 20260830221600 | 65 | 136 | 1.0 | 3.0 | 0.00 | 0.01 | 0.00 | 82 | 1013.6 |
| 20260830221500 | 65 | 136 | 1.0 | 3.0 | 0.00 | 0.01 | 0.00 | 82 | 1013.6 |
| 20260830221359 | 65 | 136 | 1.0 | 3.0 | 0.00 | 0.01 | 0.00 | 82 | 1013.6 |
| 20260830221239 | 65 | 136 | 1.0 | 3.0 | 0.00 | 0.01 | 0.00 | 82 | 1013.6 |
| 20260830221227 | 65 | 137 | 1.0 | 2.0 | 0.00 | 0.01 | 0.00 | 82 | 1013.7 |
| 20260830221223 | 65 | 136 | 1.0 | 3.0 | 0.00 | 0.01 | 0.00 | 82 | 1013.6 |
| 20260830221218 | 65 | 136 | 1.0 | 3.0 | 0.00 | 0.01 | 0.00 | 82 | 1013.6 |
| 20260830220957 | 65 | 136 | 1.0 | 3.0 | 0.00 | 0.01 | 0.00 | 82 | 1013.6 |
| 20260830220953 | 65 | 136 | 1.0 | 3.0 | 0.00 | 0.01 | 0.00 | 82 | 1013.7 |
| 20260830220949 | 65 | 137 | 1.0 | 2.0 | 0.00 | 0.01 | 0.00 | 82 | 1013.7 |
| 20260830220656 | 65 | 138 | 1.0 | 2.0 | 0.00 | 0.01 | 0.00 | 82 | 1013.7 |
| 20260830220556 | 65 | 138 | 1.0 | 2.0 | 0.00 | 0.01 | 0.00 | 82 | 1013.7 |
| 20260830220458 | 65 | 138 | 1.0 | 2.0 | 0.00 | 0.01 | 0.00 | 82 | 1013.7 |
| 20260830220454 | 65 | 138 | 1.0 | 2.0 | 0.00 | 0.01 | 0.00 | 82 | 1013.7 |
| 20260830220450 | 65 | 138 | 1.0 | 2.0 | 0.00 | 0.01 | 0.00 | 82 | 1013.7 |
| 20260830220155 | 65 | 138 | 0.0 | 2.0 | 0.00 | 0.01 | 0.00 | 82 | 1013.7 |
| 20260830220052 | 65 | 138 | 0.0 | 2.0 | 0.00 | 0.01 | 0.00 | 83 | 1013.7 |
| 20260830215952 | 65 | 138 | 0.0 | 2.0 | 0.00 | 0.01 | 0.01 | 82 | 1013.8 |
| 20260830215852 | 65 | 138 | 0.0 | 2.0 | 0.00 | 0.01 | 0.01 | 82 | 1013.7 |
| 20260830215737 | 65 | 138 | 0.0 | 2.0 | 0.00 | 0.01 | 0.01 | 82 | 1013.7 |
| 20260830215648 | 65 | 138 | 0.0 | 2.0 | 0.00 | 0.01 | 0.01 | 82 | 1013.8 |
| 20260830215548 | 65 | 138 | 0.0 | 2.0 | 0.00 | 0.01 | 0.01 | 82 | 1013.8 |
| 20260830215448 | 65 | 138 | 0.0 | 2.0 | 0.00 | 0.01 | 0.01 | 82 | 1013.9 |
| 20260830215348 | 65 | 138 | 0.0 | 2.0 | 0.00 | 0.01 | 0.01 | 82 | 1013.9 |
| 20260830215237 | 65 | 138 | 0.0 | 2.0 | 0.00 | 0.01 | 0.01 | 82 | 1013.9 |
| 20260830215147 | 65 | 138 | 1.0 | 3.0 | 0.00 | 0.01 | 0.01 | 82 | 1013.8 |
| 20260830215047 | 65 | 138 | 1.0 | 3.0 | 0.00 | 0.01 | 0.01 | 82 | 1013.9 |
| 20260830214955 | 65 | 138 | 1.0 | 3.0 | 0.00 | 0.01 | 0.01 | 82 | 1013.9 |
| 20260830214951 | 65 | 138 | 1.0 | 3.0 | 0.00 | 0.01 | 0.01 | 82 | 1013.9 |
| 20260830214947 | 65 | 138 | 1.0 | 3.0 | 0.00 | 0.01 | 0.01 | 82 | 1013.8 |
| 20260830214640 | 65 | 138 | 1.0 | 3.0 | 0.00 | 0.01 | 0.01 | 82 | 1013.8 |
| 20260830214541 | 65 | 138 | 1.0 | 3.0 | 0.00 | 0.01 | 0.01 | 82 | 1013.8 |
| 20260830214459 | 65 | 138 | 1.0 | 3.0 | 0.00 | 0.01 | 0.01 | 82 | 1013.8 |
| 20260830214454 | 65 | 138 | 1.0 | 3.0 | 0.00 | 0.01 | 0.01 | 82 | 1013.9 |
| 20260830214450 | 65 | 138 | 1.0 | 3.0 | 0.00 | 0.01 | 0.01 | 82 | 1013.9 |
| 20260830214134 | 65 | 138 | 1.0 | 3.0 | 0.00 | 0.01 | 0.01 | 82 | 1013.9 |
| 20260830214038 | 65 | 140 | 1.0 | 2.0 | 0.00 | 0.01 | 0.01 | 83 | 1013.9 |
| 20260830213932 | 65 | 140 | 1.0 | 2.0 | 0.00 | 0.01 | 0.01 | 82 | 1013.9 |
| 20260830213830 | 65 | 140 | 1.0 | 2.0 | 0.00 | 0.01 | 0.01 | 82 | 1013.9 |
| 20260830213730 | 65 | 140 | 1.0 | 2.0 | 0.00 | 0.01 | 0.01 | 82 | 1013.9 |
| 20260830213630 | 65 | 140 | 1.0 | 2.0 | 0.00 | 0.01 | 0.01 | 82 | 1013.9 |
| 20260830213529 | 65 | 140 | 1.0 | 2.0 | 0.00 | 0.01 | 0.01 | 82 | 1013.9 |
| 20260830213430 | 65 | 140 | 1.0 | 2.0 | 0.00 | 0.01 | 0.01 | 82 | 1013.9 |
| 20260830213330 | 65 | 140 | 1.0 | 2.0 | 0.00 | 0.01 | 0.01 | 82 | 1013.9 |
| 20260830213229 | 65 | 140 | 1.0 | 2.0 | 0.00 | 0.01 | 0.01 | 82 | 1013.9 |
| 20260830213129 | 65 | 140 | 1.0 | 2.0 | 0.00 | 0.01 | 0.01 | 82 | 1013.8 |
| 20260830213033 | 65 | 140 | 1.0 | 2.0 | 0.00 | 0.01 | 0.01 | 82 | 1013.8 |
| 20260830213003 | 65 | 140 | 0.0 | 2.0 | 0.00 | 0.01 | 0.01 | 82 | 1013.9 |
| 20260830212949 | 65 | 140 | 1.0 | 2.0 | 0.00 | 0.01 | 0.01 | 82 | 1013.9 |
| 20260830212944 | 65 | 140 | 1.0 | 2.0 | 0.00 | 0.01 | 0.01 | 82 | 1013.9 |
| 20260830212729 | 65 | 140 | 0.0 | 2.0 | 0.00 | 0.01 | 0.01 | 81 | 1013.9 |
| 20260830212628 | 65 | 140 | 0.0 | 2.0 | 0.00 | 0.01 | 0.01 | 81 | 1013.9 |
| 20260830212532 | 65 | 140 | 0.0 | 2.0 | 0.00 | 0.01 | 0.01 | 81 | 1013.8 |
| 20260830212429 | 65 | 140 | 0.0 | 2.0 | 0.00 | 0.01 | 0.01 | 81 | 1013.9 |
| 20260830212328 | 65 | 140 | 0.0 | 2.0 | 0.00 | 0.01 | 0.01 | 82 | 1013.9 |
| 20260830212229 | 65 | 140 | 0.0 | 1.0 | 0.00 | 0.01 | 0.01 | 82 | 1013.9 |
| 20260830212129 | 65 | 140 | 0.0 | 2.0 | 0.00 | 0.01 | 0.01 | 81 | 1013.9 |
| 20260830212037 | 65 | 140 | 0.0 | 2.0 | 0.00 | 0.01 | 0.01 | 81 | 1013.9 |
| 20260830211952 | 65 | 140 | 0.0 | 2.0 | 0.00 | 0.01 | 0.01 | 81 | 1013.9 |
| 20260830211948 | 65 | 140 | 0.0 | 2.0 | 0.00 | 0.01 | 0.01 | 81 | 1013.9 |
| 20260830211944 | 65 | 140 | 0.0 | 2.0 | 0.00 | 0.01 | 0.01 | 81 | 1013.9 |
| 20260830211728 | 65 | 140 | 0.0 | 2.0 | 0.00 | 0.01 | 0.01 | 81 | 1013.9 |
| 20260830211628 | 65 | 140 | 0.0 | 2.0 | 0.00 | 0.01 | 0.01 | 81 | 1013.9 |
| 20260830211528 | 65 | 140 | 1.0 | 2.0 | 0.00 | 0.01 | 0.01 | 81 | 1013.9 |
| 20260830211429 | 65 | 140 | 1.0 | 2.0 | 0.00 | 0.01 | 0.01 | 81 | 1013.9 |
| 20260830211324 | 65 | 140 | 1.0 | 2.0 | 0.00 | 0.01 | 0.01 | 81 | 1013.9 |
| 20260830211225 | 65 | 140 | 1.0 | 2.0 | 0.00 | 0.01 | 0.01 | 81 | 1013.9 |
| 20260830211124 | 65 | 140 | 1.0 | 2.0 | 0.00 | 0.01 | 0.01 | 81 | 1013.9 |
| 20260830211025 | 65 | 140 | 1.0 | 2.0 | 0.00 | 0.01 | 0.01 | 82 | 1013.9 |
| 20260830210924 | 65 | 140 | 1.0 | 2.0 | 0.00 | 0.01 | 0.01 | 81 | 1013.9 |
| 20260830210820 | 65 | 140 | 1.0 | 2.0 | 0.00 | 0.01 | 0.01 | 81 | 1013.9 |
| 20260830210720 | 65 | 140 | 1.0 | 2.0 | 0.00 | 0.01 | 0.01 | 81 | 1013.9 |
| 20260830210620 | 65 | 141 | 1.0 | 2.0 | 0.00 | 0.01 | 0.01 | 81 | 1013.9 |
| 20260830210524 | 65 | 141 | 1.0 | 2.0 | 0.00 | 0.01 | 0.01 | 81 | 1014.1 |
| 20260830210420 | 65 | 141 | 1.0 | 2.0 | 0.00 | 0.01 | 0.01 | 81 | 1013.9 |
| 20260830210320 | 65 | 141 | 1.0 | 3.0 | 0.00 | 0.01 | 0.01 | 81 | 1014.1 |
| 20260830210223 | 65 | 141 | 1.0 | 4.0 | 0.00 | 0.01 | 0.01 | 81 | 1014.1 |
| 20260830210219 | 65 | 141 | 1.0 | 4.0 | 0.00 | 0.01 | 0.01 | 81 | 1013.9 |
| 20260830210207 | 65 | 141 | 1.0 | 4.0 | 0.00 | 0.01 | 0.01 | 81 | 1014.1 |
| 20260830210203 | 65 | 141 | 1.0 | 4.0 | 0.00 | 0.01 | 0.01 | 81 | 1013.9 |
| 20260830205944 | 65 | 141 | 1.0 | 4.0 | 0.00 | 0.01 | 0.01 | 81 | 1013.9 |
| 20260830205940 | 65 | 141 | 1.0 | 4.0 | 0.00 | 0.01 | 0.01 | 81 | 1013.9 |
| 20260830205714 | 65 | 141 | 1.0 | 4.0 | 0.00 | 0.01 | 0.01 | 81 | 1013.9 |
| 20260830205614 | 65 | 141 | 1.0 | 4.0 | 0.00 | 0.01 | 0.01 | 81 | 1013.9 |
| 20260830205512 | 65 | 141 | 1.0 | 4.0 | 0.00 | 0.01 | 0.01 | 81 | 1013.9 |
| 20260830205411 | 65 | 141 | 1.0 | 4.0 | 0.00 | 0.01 | 0.01 | 81 | 1013.9 |
| 20260830205310 | 65 | 142 | 1.0 | 4.0 | 0.00 | 0.01 | 0.01 | 81 | 1013.9 |
| 20260830205209 | 65 | 142 | 1.0 | 3.0 | 0.00 | 0.01 | 0.01 | 81 | 1013.9 |
| 20260830205108 | 65 | 142 | 1.0 | 3.0 | 0.00 | 0.01 | 0.01 | 80 | 1013.9 |
| 20260830205006 | 65 | 142 | 1.0 | 3.0 | 0.00 | 0.01 | 0.01 | 80 | 1014.1 |
| 20260830204906 | 65 | 142 | 0.0 | 3.0 | 0.00 | 0.01 | 0.01 | 81 | 1014.1 |
| 20260830204807 | 65 | 142 | 0.0 | 2.0 | 0.00 | 0.01 | 0.01 | 81 | 1014.1 |
| 20260830204706 | 65 | 142 | 0.0 | 2.0 | 0.00 | 0.01 | 0.01 | 81 | 1014.1 |
| 20260830204606 | 65 | 142 | 0.0 | 2.0 | 0.00 | 0.01 | 0.01 | 81 | 1014.1 |
| 20260830204505 | 65 | 142 | 0.0 | 2.0 | 0.00 | 0.01 | 0.01 | 81 | 1014.1 |
| 20260830204404 | 65 | 142 | 0.0 | 2.0 | 0.00 | 0.01 | 0.01 | 81 | 1014.1 |
| 20260830204304 | 65 | 142 | 0.0 | 2.0 | 0.00 | 0.01 | 0.01 | 81 | 1014.1 |
| 20260830204204 | 65 | 142 | 0.0 | 2.0 | 0.00 | 0.01 | 0.01 | 80 | 1014.1 |
| 20260830204104 | 65 | 142 | 0.0 | 2.0 | 0.00 | 0.01 | 0.01 | 80 | 1013.9 |
| 20260830204003 | 65 | 142 | 0.0 | 2.0 | 0.00 | 0.01 | 0.01 | 80 | 1014.1 |
| 20260830203902 | 65 | 142 | 0.0 | 2.0 | 0.00 | 0.01 | 0.01 | 80 | 1014.1 |
| 20260830203801 | 65 | 142 | 0.0 | 2.0 | 0.00 | 0.01 | 0.01 | 80 | 1014.1 |
| 20260830203702 | 65 | 142 | 0.0 | 2.0 | 0.00 | 0.01 | 0.01 | 80 | 1014.1 |
| 20260830203602 | 65 | 142 | 0.0 | 2.0 | 0.00 | 0.01 | 0.01 | 80 | 1014.1 |
| 20260830203501 | 65 | 142 | 0.0 | 2.0 | 0.00 | 0.01 | 0.01 | 80 | 1014.1 |
| 20260830203401 | 65 | 142 | 0.0 | 2.0 | 0.00 | 0.01 | 0.01 | 80 | 1014.1 |
| 20260830203302 | 65 | 142 | 0.0 | 2.0 | 0.00 | 0.01 | 0.01 | 79 | 1014.1 |
| 20260830203201 | 65 | 142 | 0.0 | 2.0 | 0.00 | 0.01 | 0.01 | 79 | 1014.1 |
| 20260830203101 | 65 | 142 | 0.0 | 2.0 | 0.00 | 0.01 | 0.01 | 79 | 1014.1 |
| 20260830203002 | 65 | 142 | 0.0 | 2.0 | 0.00 | 0.01 | 0.01 | 79 | 1014.1 |
| 20260830202901 | 66 | 142 | 0.0 | 1.0 | 0.00 | 0.01 | 0.01 | 79 | 1014.1 |
| 20260830202801 | 66 | 142 | 0.0 | 3.0 | 0.00 | 0.01 | 0.01 | 79 | 1014.2 |
| 20260830202729 | 66 | 142 | 0.0 | 3.0 | 0.00 | 0.01 | 0.01 | 79 | 1014.2 |
| 20260830202701 | 66 | 142 | 1.0 | 3.0 | 0.00 | 0.01 | 0.01 | 79 | 1014.2 |
| 20260830202601 | 66 | 142 | 1.0 | 5.0 | 0.00 | 0.01 | 0.01 | 79 | 1014.1 |
| 20260830202501 | 66 | 142 | 1.0 | 5.0 | 0.00 | 0.01 | 0.01 | 79 | 1014.1 |
| 20260830202404 | 66 | 142 | 1.0 | 5.0 | 0.00 | 0.01 | 0.01 | 79 | 1014.1 |
| 20260830202301 | 66 | 142 | 1.0 | 5.0 | 0.00 | 0.01 | 0.01 | 79 | 1014.1 |
| 20260830202201 | 66 | 142 | 1.0 | 5.0 | 0.00 | 0.01 | 0.01 | 78 | 1014.1 |
| 20260830202101 | 66 | 142 | 1.0 | 5.0 | 0.00 | 0.01 | 0.01 | 78 | 1014.1 |
| 20260830202006 | 66 | 142 | 1.0 | 5.0 | 0.00 | 0.01 | 0.01 | 79 | 1013.9 |
| 20260830201901 | 66 | 142 | 1.0 | 5.0 | 0.00 | 0.01 | 0.01 | 79 | 1013.9 |
| 20260830201801 | 66 | 142 | 1.0 | 5.0 | 0.00 | 0.01 | 0.01 | 79 | 1013.9 |
| 20260830201728 | 66 | 142 | 1.0 | 5.0 | 0.00 | 0.01 | 0.01 | 79 | 1013.9 |
| 20260830201701 | 66 | 144 | 1.0 | 5.0 | 0.00 | 0.01 | 0.01 | 79 | 1013.9 |
| 20260830201600 | 66 | 198 | 1.0 | 2.0 | 0.00 | 0.01 | 0.01 | 79 | 1014.1 |
| 20260830201504 | 66 | 201 | 1.0 | 2.0 | 0.00 | 0.01 | 0.01 | 79 | 1014.1 |
| 20260830201400 | 66 | 201 | 1.0 | 2.0 | 0.00 | 0.01 | 0.01 | 79 | 1014.1 |
| 20260830201229 | 66 | 263 | 1.0 | 2.0 | 0.00 | 0.01 | 0.01 | 79 | 1013.9 |
| 20260830201158 | 66 | 263 | 1.0 | 2.0 | 0.00 | 0.01 | 0.01 | 79 | 1013.9 |
| 20260830201056 | 66 | 263 | 1.0 | 2.0 | 0.00 | 0.01 | 0.01 | 78 | 1014.1 |
| 20260830200958 | 66 | 263 | 1.0 | 2.0 | 0.00 | 0.01 | 0.01 | 78 | 1013.9 |
| 20260830200852 | 66 | 263 | 0.0 | 2.0 | 0.00 | 0.01 | 0.01 | 78 | 1013.9 |
| 20260830200752 | 66 | 266 | 0.0 | 2.0 | 0.00 | 0.01 | 0.01 | 78 | 1013.9 |
| 20260830200730 | 66 | 267 | 0.0 | 2.0 | 0.00 | 0.01 | 0.01 | 78 | 1013.9 |
| 20260830200652 | 66 | 267 | 0.0 | 2.0 | 0.00 | 0.01 | 0.01 | 78 | 1013.9 |
| 20260830200552 | 66 | 267 | 0.0 | 2.0 | 0.00 | 0.01 | 0.01 | 78 | 1014.1 |
| 20260830200455 | 67 | 267 | 0.0 | 2.0 | 0.00 | 0.01 | 0.01 | 78 | 1014.1 |
| 20260830200443 | 67 | 267 | 0.0 | 1.0 | 0.00 | 0.01 | 0.01 | 77 | 1014.1 |
| 20260830200439 | 67 | 267 | 0.0 | 2.0 | 0.00 | 0.01 | 0.01 | 77 | 1014.1 |
| 20260830200431 | 67 | 267 | 0.0 | 1.0 | 0.00 | 0.01 | 0.01 | 78 | 1014.1 |
| 20260830200211 | 67 | 267 | 0.0 | 1.0 | 0.00 | 0.01 | 0.01 | 77 | 1014.1 |
| 20260830200207 | 67 | 267 | 0.0 | 1.0 | 0.00 | 0.01 | 0.01 | 77 | 1013.9 |
| 20260830195952 | 67 | 267 | 0.0 | 1.0 | 0.00 | 0.01 | 0.01 | 77 | 1014.1 |
| 20260830195944 | 67 | 267 | 0.0 | 1.0 | 0.00 | 0.01 | 0.01 | 77 | 1014.1 |
| 20260830195940 | 67 | 267 | 0.0 | 1.0 | 0.00 | 0.01 | 0.01 | 77 | 1014.1 |
| 20260830195644 | 67 | 267 | 0.0 | 1.0 | 0.00 | 0.01 | 0.01 | 76 | 1014.1 |
| 20260830195542 | 67 | 267 | 0.0 | 1.0 | 0.00 | 0.01 | 0.01 | 76 | 1014.1 |
| 20260830195442 | 67 | 267 | 0.0 | 1.0 | 0.00 | 0.01 | 0.01 | 76 | 1014.2 |
| 20260830195340 | 67 | 267 | 0.0 | 1.0 | 0.00 | 0.01 | 0.01 | 76 | 1014.1 |
| 20260830195228 | 67 | 267 | 0.0 | 1.0 | 0.00 | 0.01 | 0.01 | 76 | 1014.2 |
| 20260830195138 | 67 | 267 | 0.0 | 2.0 | 0.00 | 0.01 | 0.01 | 76 | 1014.2 |
| 20260830195035 | 67 | 267 | 1.0 | 3.0 | 0.00 | 0.01 | 0.01 | 76 | 1014.1 |
| 20260830194936 | 67 | 267 | 1.0 | 3.0 | 0.00 | 0.01 | 0.01 | 76 | 1014.2 |
| 20260830194836 | 67 | 267 | 1.0 | 3.0 | 0.00 | 0.01 | 0.01 | 76 | 1014.2 |
| 20260830194728 | 67 | 267 | 1.0 | 3.0 | 0.00 | 0.01 | 0.01 | 76 | 1014.2 |
| 20260830194635 | 67 | 267 | 1.0 | 3.0 | 0.00 | 0.01 | 0.01 | 76 | 1014.2 |
| 20260830194534 | 67 | 267 | 1.0 | 3.0 | 0.00 | 0.01 | 0.01 | 76 | 1014.2 |
| 20260830194434 | 67 | 267 | 1.0 | 3.0 | 0.00 | 0.01 | 0.01 | 76 | 1014.2 |
| 20260830194331 | 67 | 267 | 1.0 | 3.0 | 0.00 | 0.01 | 0.01 | 76 | 1014.3 |
| 20260830194228 | 67 | 267 | 1.0 | 3.0 | 0.00 | 0.01 | 0.01 | 75 | 1014.2 |
| 20260830194130 | 67 | 267 | 1.0 | 3.0 | 0.00 | 0.01 | 0.01 | 75 | 1014.3 |
| 20260830194029 | 67 | 267 | 1.0 | 3.0 | 0.00 | 0.01 | 0.01 | 75 | 1014.3 |
| 20260830193929 | 67 | 279 | 0.0 | 2.0 | 0.00 | 0.01 | 0.01 | 75 | 1014.2 |
| 20260830193829 | 67 | 279 | 1.0 | 2.0 | 0.00 | 0.01 | 0.01 | 75 | 1014.2 |
| 20260830193729 | 68 | 279 | 1.0 | 2.0 | 0.00 | 0.01 | 0.01 | 75 | 1014.2 |
| 20260830193629 | 68 | 279 | 0.0 | 2.0 | 0.00 | 0.01 | 0.01 | 75 | 1014.2 |
| 20260830193529 | 68 | 279 | 0.0 | 2.0 | 0.00 | 0.01 | 0.01 | 75 | 1014.2 |
| 20260830193449 | 68 | 279 | 0.0 | 1.0 | 0.00 | 0.01 | 0.01 | 75 | 1014.2 |
| 20260830193445 | 68 | 279 | 0.0 | 1.0 | 0.00 | 0.01 | 0.01 | 75 | 1014.2 |
| 20260830193441 | 68 | 279 | 0.0 | 1.0 | 0.00 | 0.01 | 0.01 | 75 | 1014.2 |
| 20260830193124 | 68 | 279 | 0.0 | 2.0 | 0.00 | 0.01 | 0.01 | 74 | 1014.2 |
| 20260830193024 | 68 | 279 | 0.0 | 2.0 | 0.00 | 0.01 | 0.01 | 74 | 1014.1 |
| 20260830192923 | 68 | 279 | 0.0 | 2.0 | 0.00 | 0.01 | 0.01 | 74 | 1014.1 |
| 20260830192824 | 68 | 279 | 0.0 | 2.0 | 0.00 | 0.01 | 0.01 | 74 | 1014.1 |
| 20260830192723 | 68 | 279 | 1.0 | 2.0 | 0.00 | 0.01 | 0.01 | 74 | 1014.2 |
| 20260830192619 | 68 | 279 | 1.0 | 4.0 | 0.00 | 0.01 | 0.01 | 74 | 1014.2 |
| 20260830192518 | 68 | 279 | 1.0 | 4.0 | 0.00 | 0.01 | 0.01 | 74 | 1014.2 |
| 20260830192418 | 68 | 279 | 1.0 | 4.0 | 0.00 | 0.01 | 0.01 | 74 | 1014.3 |
| 20260830192318 | 68 | 279 | 1.0 | 4.0 | 0.00 | 0.01 | 0.01 | 73 | 1014.3 |
| 20260830192218 | 68 | 279 | 1.0 | 4.0 | 0.00 | 0.01 | 0.01 | 73 | 1014.3 |
| 20260830192113 | 68 | 279 | 1.0 | 4.0 | 0.00 | 0.01 | 0.01 | 73 | 1014.2 |
| 20260830192014 | 68 | 279 | 1.0 | 4.0 | 0.00 | 0.01 | 0.01 | 73 | 1014.2 |
| 20260830191914 | 68 | 279 | 1.0 | 4.0 | 0.00 | 0.01 | 0.01 | 72 | 1014.2 |
| 20260830191814 | 69 | 279 | 1.0 | 4.0 | 0.00 | 0.01 | 0.01 | 72 | 1014.2 |
| 20260830191711 | 69 | 279 | 1.0 | 4.0 | 0.00 | 0.01 | 0.01 | 72 | 1014.2 |
| 20260830191608 | 69 | 273 | 0.0 | 4.0 | 0.00 | 0.01 | 0.01 | 72 | 1014.2 |
| 20260830191506 | 69 | 273 | 0.0 | 4.0 | 0.00 | 0.01 | 0.01 | 73 | 1014.2 |
| 20260830191406 | 69 | 261 | 0.0 | 2.0 | 0.00 | 0.01 | 0.01 | 73 | 1014.1 |
| 20260830191306 | 69 | 261 | 0.0 | 0.0 | 0.00 | 0.01 | 0.01 | 72 | 1014.1 |
| 20260830191205 | 69 | 261 | 0.0 | 0.0 | 0.00 | 0.01 | 0.01 | 72 | 1014.1 |
| 20260830191101 | 69 | 261 | 0.0 | 0.0 | 0.00 | 0.01 | 0.01 | 72 | 1014.1 |
| 20260830191001 | 69 | 261 | 0.0 | 0.0 | 0.00 | 0.01 | 0.01 | 72 | 1014.1 |
| 20260830190934 | 69 | 261 | 0.0 | 1.0 | 0.00 | 0.01 | 0.01 | 71 | 1014.1 |
| 20260830190925 | 69 | 261 | 0.0 | 0.0 | 0.00 | 0.01 | 0.01 | 71 | 1013.9 |
| 20260830190921 | 69 | 261 | 0.0 | 0.0 | 0.00 | 0.01 | 0.01 | 71 | 1014.1 |
| 20260830190702 | 69 | 261 | 0.0 | 1.0 | 0.00 | 0.01 | 0.01 | 71 | 1014.1 |
| 20260830190602 | 69 | 261 | 0.0 | 1.0 | 0.00 | 0.01 | 0.01 | 71 | 1014.1 |
| 20260830190501 | 69 | 261 | 0.0 | 1.0 | 0.00 | 0.01 | 0.01 | 71 | 1014.1 |
| 20260830190401 | 69 | 261 | 0.0 | 1.0 | 0.00 | 0.01 | 0.01 | 71 | 1014.1 |
| 20260830190301 | 69 | 261 | 0.0 | 1.0 | 0.00 | 0.01 | 0.01 | 71 | 1014.1 |
| 20260830190201 | 70 | 261 | 0.0 | 1.0 | 0.00 | 0.01 | 0.01 | 71 | 1014.1 |
| 20260830190001 | 70 | 261 | 0.0 | 1.0 | 0.00 | 0.01 | 0.01 | 70 | 1014.1 |
| 20260830185901 | 70 | 261 | 0.0 | 1.0 | 0.00 | 0.01 | 0.01 | 70 | 1014.1 |
| 20260830185801 | 70 | 261 | 0.0 | 1.0 | 0.00 | 0.01 | 0.01 | 69 | 1014.1 |
| 20260830185700 | 70 | 261 | 0.0 | 1.0 | 0.00 | 0.01 | 0.01 | 70 | 1014.1 |
| 20260830185601 | 70 | 261 | 0.0 | 1.0 | 0.00 | 0.01 | 0.01 | 70 | 1014.1 |
| 20260830185501 | 70 | 261 | 0.0 | 1.0 | 0.00 | 0.01 | 0.01 | 69 | 1014.1 |
| 20260830185401 | 70 | 261 | 0.0 | 1.0 | 0.00 | 0.01 | 0.01 | 69 | 1014.1 |
| 20260830185301 | 70 | 261 | 0.0 | 1.0 | 0.00 | 0.01 | 0.01 | 69 | 1014.1 |
| 20260830185201 | 70 | 261 | 0.0 | 1.0 | 0.00 | 0.01 | 0.01 | 69 | 1014.1 |
| 20260830185101 | 71 | 261 | 0.0 | 1.0 | 0.00 | 0.01 | 0.01 | 69 | 1014.1 |
| 20260830185002 | 71 | 261 | 0.0 | 1.0 | 0.00 | 0.01 | 0.01 | 69 | 1014.1 |
| 20260830184901 | 71 | 261 | 0.0 | 1.0 | 0.00 | 0.01 | 0.01 | 69 | 1014.1 |
| 20260830184801 | 71 | 261 | 0.0 | 1.0 | 0.00 | 0.01 | 0.01 | 69 | 1014.1 |
| 20260830184700 | 71 | 261 | 0.0 | 1.0 | 0.00 | 0.01 | 0.01 | 69 | 1014.1 |
| 20260830184600 | 71 | 261 | 0.0 | 1.0 | 0.00 | 0.01 | 0.01 | 68 | 1014.1 |
| 20260830184500 | 71 | 261 | 0.0 | 1.0 | 0.00 | 0.01 | 0.01 | 68 | 1014.1 |
| 20260830184401 | 71 | 261 | 0.0 | 1.0 | 0.00 | 0.01 | 0.01 | 68 | 1014.1 |
| 20260830184300 | 71 | 261 | 0.0 | 0.0 | 0.00 | 0.01 | 0.01 | 68 | 1014.1 |
| 20260830184200 | 71 | 261 | 0.0 | 0.0 | 0.00 | 0.01 | 0.01 | 68 | 1014.1 |
| 20260830184101 | 71 | 261 | 0.0 | 0.0 | 0.00 | 0.01 | 0.01 | 68 | 1014.1 |
| 20260830184001 | 72 | 261 | 0.0 | 1.0 | 0.00 | 0.01 | 0.01 | 67 | 1014.1 |
| 20260830183902 | 72 | 261 | 0.0 | 1.0 | 0.00 | 0.01 | 0.01 | 67 | 1013.9 |
| 20260830183802 | 72 | 261 | 0.0 | 1.0 | 0.00 | 0.01 | 0.01 | 67 | 1013.9 |
| 20260830183701 | 72 | 261 | 0.0 | 1.0 | 0.00 | 0.01 | 0.01 | 67 | 1013.9 |
| 20260830183601 | 72 | 261 | 0.0 | 1.0 | 0.00 | 0.01 | 0.01 | 67 | 1013.9 |
| 20260830183501 | 72 | 261 | 0.0 | 1.0 | 0.00 | 0.01 | 0.01 | 67 | 1013.8 |
| 20260830183429 | 72 | 261 | 0.0 | 1.0 | 0.00 | 0.01 | 0.01 | 66 | 1013.8 |
| 20260830183420 | 72 | 261 | 0.0 | 1.0 | 0.00 | 0.01 | 0.01 | 67 | 1013.9 |
| 20260830183416 | 72 | 261 | 0.0 | 1.0 | 0.00 | 0.01 | 0.01 | 66 | 1013.9 |
| 20260830183156 | 72 | 261 | 0.0 | 1.0 | 0.00 | 0.01 | 0.01 | 66 | 1013.8 |
| 20260830183054 | 72 | 261 | 0.0 | 1.0 | 0.00 | 0.01 | 0.01 | 66 | 1013.8 |
| 20260830182954 | 73 | 261 | 0.0 | 1.0 | 0.00 | 0.01 | 0.01 | 65 | 1013.8 |
| 20260830182853 | 73 | 261 | 0.0 | 1.0 | 0.00 | 0.01 | 0.01 | 65 | 1013.8 |
| 20260830182753 | 73 | 261 | 0.0 | 1.0 | 0.00 | 0.01 | 0.01 | 64 | 1013.8 |
| 20260830182702 | 73 | 261 | 0.0 | 1.0 | 0.00 | 0.01 | 0.01 | 63 | 1013.8 |
| 20260830182654 | 73 | 261 | 0.0 | 1.0 | 0.00 | 0.01 | 0.01 | 63 | 1013.8 |
| 20260830182553 | 73 | 261 | 0.0 | 1.0 | 0.00 | 0.01 | 0.01 | 63 | 1013.7 |
| 20260830182452 | 73 | 261 | 0.0 | 1.0 | 0.00 | 0.01 | 0.01 | 63 | 1013.7 |
| 20260830182350 | 73 | 261 | 0.0 | 1.0 | 0.00 | 0.01 | 0.01 | 63 | 1013.7 |
| 20260830182248 | 73 | 261 | 0.0 | 1.0 | 0.00 | 0.01 | 0.01 | 63 | 1013.7 |
| 20260830182202 | 73 | 261 | 0.0 | 1.0 | 0.00 | 0.01 | 0.01 | 63 | 1013.7 |
| 20260830182158 | 74 | 261 | 1.0 | 2.0 | 0.00 | 0.01 | 0.01 | 62 | 1013.7 |
| 20260830182152 | 73 | 261 | 0.0 | 1.0 | 0.00 | 0.01 | 0.01 | 63 | 1013.7 |
| 20260830182148 | 73 | 261 | 0.0 | 2.0 | 0.00 | 0.01 | 0.01 | 62 | 1013.7 |
| 20260830182144 | 73 | 261 | 0.0 | 2.0 | 0.00 | 0.01 | 0.01 | 62 | 1013.7 |
| 20260830181917 | 73 | 261 | 0.0 | 2.0 | 0.00 | 0.01 | 0.01 | 62 | 1013.7 |
| 20260830181913 | 74 | 261 | 1.0 | 2.0 | 0.00 | 0.01 | 0.01 | 62 | 1013.7 |
| 20260830181643 | 74 | 261 | 1.0 | 2.0 | 0.00 | 0.01 | 0.01 | 62 | 1013.7 |
| 20260830181543 | 74 | 261 | 1.0 | 2.0 | 0.00 | 0.01 | 0.01 | 62 | 1013.7 |
| 20260830181443 | 74 | 261 | 1.0 | 2.0 | 0.00 | 0.01 | 0.01 | 62 | 1013.7 |
| 20260830181342 | 74 | 261 | 1.0 | 2.0 | 0.00 | 0.01 | 0.01 | 62 | 1013.7 |
| 20260830181242 | 74 | 261 | 1.0 | 2.0 | 0.00 | 0.01 | 0.01 | 61 | 1013.7 |
| 20260830181202 | 74 | 261 | 1.0 | 2.0 | 0.00 | 0.01 | 0.01 | 61 | 1013.7 |
| 20260830181139 | 74 | 261 | 1.0 | 2.0 | 0.00 | 0.01 | 0.01 | 61 | 1013.7 |
| 20260830181038 | 74 | 261 | 1.0 | 2.0 | 0.00 | 0.01 | 0.01 | 61 | 1013.7 |
| 20260830180938 | 74 | 261 | 1.0 | 2.0 | 0.00 | 0.01 | 0.01 | 61 | 1013.7 |
| 20260830180837 | 74 | 261 | 1.0 | 2.0 | 0.00 | 0.01 | 0.01 | 61 | 1013.7 |
| 20260830180738 | 74 | 261 | 1.0 | 2.0 | 0.00 | 0.01 | 0.01 | 61 | 1013.6 |
| 20260830180701 | 74 | 261 | 1.0 | 2.0 | 0.00 | 0.01 | 0.01 | 61 | 1013.7 |
| 20260830180638 | 74 | 261 | 1.0 | 2.0 | 0.00 | 0.01 | 0.01 | 61 | 1013.7 |
| 20260830180536 | 74 | 261 | 1.0 | 2.0 | 0.00 | 0.01 | 0.01 | 61 | 1013.7 |
| 20260830180436 | 74 | 261 | 1.0 | 2.0 | 0.00 | 0.01 | 0.01 | 61 | 1013.7 |
| 20260830180333 | 74 | 261 | 1.0 | 2.0 | 0.00 | 0.01 | 0.01 | 60 | 1013.7 |
| 20260830180233 | 74 | 261 | 1.0 | 2.0 | 0.00 | 0.01 | 0.01 | 60 | 1013.7 |
| 20260830180200 | 74 | 261 | 1.0 | 2.0 | 0.00 | 0.01 | 0.01 | 60 | 1013.7 |
| 20260830180134 | 74 | 261 | 1.0 | 2.0 | 0.00 | 0.01 | 0.01 | 60 | 1013.7 |
| 20260830180034 | 74 | 261 | 1.0 | 3.0 | 0.00 | 0.01 | 0.01 | 60 | 1013.7 |
| 20260830175934 | 74 | 261 | 1.0 | 3.0 | 0.00 | 0.01 | 0.01 | 60 | 1013.7 |
| 20260830175833 | 74 | 261 | 1.0 | 3.0 | 0.00 | 0.01 | 0.01 | 60 | 1013.7 |
| 20260830175733 | 74 | 261 | 1.0 | 3.0 | 0.00 | 0.01 | 0.01 | 60 | 1013.7 |
| 20260830175700 | 74 | 261 | 1.0 | 3.0 | 0.00 | 0.01 | 0.01 | 59 | 1013.7 |
| 20260830175634 | 74 | 261 | 1.0 | 3.0 | 0.00 | 0.01 | 0.01 | 59 | 1013.7 |
| 20260830175534 | 75 | 261 | 1.0 | 3.0 | 0.00 | 0.01 | 0.01 | 60 | 1013.7 |
| 20260830175434 | 75 | 261 | 1.0 | 3.0 | 0.00 | 0.01 | 0.01 | 60 | 1013.7 |
| 20260830175332 | 75 | 261 | 1.0 | 3.0 | 0.00 | 0.01 | 0.01 | 59 | 1013.6 |
| 20260830175232 | 75 | 261 | 1.0 | 3.0 | 0.00 | 0.01 | 0.01 | 59 | 1013.7 |
| 20260830175200 | 75 | 261 | 2.0 | 3.0 | 0.00 | 0.01 | 0.01 | 60 | 1013.7 |
| 20260830175132 | 75 | 261 | 2.0 | 3.0 | 0.00 | 0.01 | 0.01 | 60 | 1013.7 |
| 20260830175032 | 75 | 261 | 2.0 | 3.0 | 0.00 | 0.01 | 0.01 | 59 | 1013.7 |
| 20260830174932 | 75 | 261 | 2.0 | 3.0 | 0.00 | 0.01 | 0.01 | 59 | 1013.7 |
| 20260830174830 | 75 | 261 | 2.0 | 4.0 | 0.00 | 0.01 | 0.01 | 59 | 1013.6 |
| 20260830174701 | 75 | 261 | 2.0 | 4.0 | 0.00 | 0.01 | 0.01 | 59 | 1013.6 |
| 20260830174629 | 75 | 261 | 2.0 | 4.0 | 0.00 | 0.01 | 0.01 | 59 | 1013.6 |
| 20260830174530 | 75 | 261 | 2.0 | 4.0 | 0.00 | 0.01 | 0.01 | 59 | 1013.6 |
| 20260830174431 | 75 | 262 | 2.0 | 4.0 | 0.00 | 0.01 | 0.01 | 59 | 1013.6 |
| 20260830174427 | 75 | 262 | 2.0 | 4.0 | 0.00 | 0.01 | 0.01 | 59 | 1013.5 |
| 20260830174417 | 75 | 261 | 2.0 | 4.0 | 0.00 | 0.01 | 0.01 | 59 | 1013.6 |
| 20260830174413 | 75 | 262 | 2.0 | 4.0 | 0.00 | 0.01 | 0.01 | 59 | 1013.6 |
| 20260830174130 | 75 | 262 | 2.0 | 4.0 | 0.00 | 0.01 | 0.01 | 58 | 1013.5 |
| 20260830174029 | 75 | 262 | 2.0 | 4.0 | 0.00 | 0.01 | 0.01 | 58 | 1013.6 |
| 20260830173931 | 75 | 262 | 2.0 | 4.0 | 0.00 | 0.01 | 0.01 | 59 | 1013.6 |
| 20260830173916 | 75 | 263 | 2.0 | 4.0 | 0.00 | 0.01 | 0.01 | 58 | 1013.6 |
| 20260830173912 | 75 | 263 | 2.0 | 4.0 | 0.00 | 0.01 | 0.01 | 58 | 1013.6 |
| 20260830173626 | 76 | 263 | 2.0 | 4.0 | 0.00 | 0.01 | 0.01 | 58 | 1013.6 |
| 20260830173526 | 76 | 263 | 2.0 | 6.0 | 0.00 | 0.01 | 0.01 | 58 | 1013.6 |
| 20260830173425 | 76 | 263 | 2.0 | 7.0 | 0.00 | 0.01 | 0.01 | 57 | 1013.6 |
| 20260830173326 | 76 | 263 | 3.0 | 7.0 | 0.00 | 0.01 | 0.01 | 57 | 1013.6 |
| 20260830173226 | 76 | 263 | 3.0 | 7.0 | 0.00 | 0.01 | 0.01 | 57 | 1013.6 |
| 20260830173201 | 76 | 264 | 3.0 | 7.0 | 0.00 | 0.01 | 0.01 | 57 | 1013.5 |
| 20260830173125 | 76 | 264 | 3.0 | 7.0 | 0.00 | 0.01 | 0.01 | 57 | 1013.5 |
| 20260830173023 | 76 | 264 | 3.0 | 7.0 | 0.00 | 0.01 | 0.01 | 57 | 1013.5 |
| 20260830172924 | 76 | 264 | 4.0 | 7.0 | 0.00 | 0.01 | 0.01 | 56 | 1013.5 |
| 20260830172823 | 76 | 265 | 4.0 | 7.0 | 0.00 | 0.01 | 0.01 | 56 | 1013.5 |
| 20260830172701 | 76 | 265 | 4.0 | 8.0 | 0.00 | 0.01 | 0.01 | 57 | 1013.5 |
| 20260830172621 | 76 | 256 | 4.0 | 8.0 | 0.00 | 0.01 | 0.01 | 57 | 1013.5 |
| 20260830172522 | 76 | 293 | 4.0 | 8.0 | 0.00 | 0.01 | 0.01 | 56 | 1013.5 |
| 20260830172422 | 76 | 246 | 4.0 | 8.0 | 0.00 | 0.01 | 0.01 | 56 | 1013.5 |
| 20260830172322 | 76 | 269 | 3.0 | 8.0 | 0.00 | 0.01 | 0.01 | 57 | 1013.5 |
| 20260830172222 | 76 | 279 | 3.0 | 8.0 | 0.00 | 0.01 | 0.01 | 57 | 1013.5 |
| 20260830172200 | 76 | 275 | 3.0 | 8.0 | 0.00 | 0.01 | 0.01 | 57 | 1013.5 |
| 20260830172120 | 76 | 261 | 3.0 | 8.0 | 0.00 | 0.01 | 0.01 | 56 | 1013.5 |
| 20260830172019 | 76 | 262 | 3.0 | 8.0 | 0.00 | 0.01 | 0.01 | 56 | 1013.6 |
| 20260830171921 | 76 | 253 | 3.0 | 8.0 | 0.00 | 0.01 | 0.01 | 56 | 1013.6 |
| 20260830171819 | 76 | 261 | 3.0 | 8.0 | 0.00 | 0.01 | 0.01 | 57 | 1013.6 |
| 20260830171719 | 76 | 238 | 3.0 | 6.0 | 0.00 | 0.01 | 0.01 | 57 | 1013.5 |
| 20260830171701 | 76 | 265 | 3.0 | 6.0 | 0.00 | 0.01 | 0.01 | 57 | 1013.5 |
| 20260830171619 | 76 | 267 | 3.0 | 6.0 | 0.00 | 0.01 | 0.01 | 56 | 1013.5 |
| 20260830171513 | 76 | 275 | 2.0 | 6.0 | 0.00 | 0.01 | 0.01 | 56 | 1013.6 |
| 20260830171413 | 76 | 218 | 3.0 | 5.0 | 0.00 | 0.01 | 0.01 | 56 | 1013.6 |
| 20260830171313 | 76 | 243 | 3.0 | 7.0 | 0.00 | 0.01 | 0.01 | 56 | 1013.6 |
| 20260830171213 | 76 | 243 | 3.0 | 7.0 | 0.00 | 0.01 | 0.01 | 57 | 1013.5 |
| 20260830171201 | 77 | 243 | 3.0 | 7.0 | 0.00 | 0.01 | 0.01 | 56 | 1013.5 |
| 20260830171113 | 77 | 243 | 3.0 | 7.0 | 0.00 | 0.01 | 0.01 | 56 | 1013.5 |
| 20260830171014 | 77 | 244 | 3.0 | 7.0 | 0.00 | 0.01 | 0.01 | 55 | 1013.5 |
| 20260830170914 | 77 | 246 | 3.0 | 7.0 | 0.00 | 0.01 | 0.01 | 56 | 1013.5 |
| 20260830170812 | 77 | 245 | 3.0 | 8.0 | 0.00 | 0.01 | 0.01 | 56 | 1013.5 |
| 20260830170712 | 77 | 230 | 3.0 | 8.0 | 0.00 | 0.01 | 0.01 | 56 | 1013.5 |
| 20260830170701 | 77 | 231 | 3.0 | 8.0 | 0.00 | 0.01 | 0.01 | 56 | 1013.5 |
| 20260830170612 | 77 | 252 | 3.0 | 8.0 | 0.00 | 0.01 | 0.01 | 56 | 1013.5 |
| 20260830170512 | 77 | 254 | 4.0 | 8.0 | 0.00 | 0.01 | 0.01 | 56 | 1013.5 |
| 20260830170412 | 77 | 257 | 4.0 | 8.0 | 0.00 | 0.01 | 0.01 | 56 | 1013.5 |
| 20260830170312 | 77 | 280 | 4.0 | 10.0 | 0.00 | 0.01 | 0.01 | 55 | 1013.5 |
| 20260830170210 | 77 | 244 | 4.0 | 10.0 | 0.00 | 0.01 | 0.01 | 55 | 1013.5 |
| 20260830170201 | 77 | 216 | 4.0 | 10.0 | 0.00 | 0.01 | 0.01 | 55 | 1013.5 |
| 20260830170110 | 77 | 215 | 4.0 | 10.0 | 0.00 | 0.01 | 0.01 | 55 | 1013.5 |
| 20260830170009 | 77 | 215 | 4.0 | 10.0 | 0.00 | 0.01 | 0.01 | 54 | 1013.5 |
| 20260830165909 | 77 | 250 | 4.0 | 10.0 | 0.00 | 0.01 | 0.01 | 54 | 1013.5 |
| 20260830165810 | 77 | 267 | 4.0 | 10.0 | 0.00 | 0.01 | 0.01 | 55 | 1013.5 |
| 20260830165710 | 77 | 264 | 4.0 | 10.0 | 0.00 | 0.01 | 0.01 | 55 | 1013.5 |
| 20260830165701 | 77 | 266 | 4.0 | 10.0 | 0.00 | 0.01 | 0.01 | 55 | 1013.5 |
| 20260830165610 | 77 | 240 | 4.0 | 10.0 | 0.00 | 0.01 | 0.01 | 54 | 1013.5 |
| 20260830165510 | 77 | 266 | 4.0 | 10.0 | 0.00 | 0.01 | 0.01 | 54 | 1013.5 |
| 20260830165410 | 77 | 198 | 4.0 | 10.0 | 0.00 | 0.01 | 0.01 | 55 | 1013.5 |
| 20260830165310 | 77 | 225 | 4.0 | 7.0 | 0.00 | 0.01 | 0.01 | 55 | 1013.5 |
| 20260830165210 | 77 | 221 | 4.0 | 8.0 | 0.00 | 0.01 | 0.01 | 54 | 1013.4 |
| 20260830165201 | 77 | 205 | 4.0 | 8.0 | 0.00 | 0.01 | 0.01 | 54 | 1013.4 |
| 20260830165109 | 77 | 214 | 4.0 | 8.0 | 0.00 | 0.01 | 0.01 | 55 | 1013.4 |
| 20260830165009 | 77 | 213 | 4.0 | 10.0 | 0.00 | 0.01 | 0.01 | 55 | 1013.4 |
| 20260830164909 | 77 | 284 | 4.0 | 10.0 | 0.00 | 0.01 | 0.01 | 55 | 1013.4 |
| 20260830164809 | 77 | 242 | 5.0 | 10.0 | 0.00 | 0.01 | 0.01 | 55 | 1013.4 |
| 20260830164710 | 77 | 256 | 5.0 | 10.0 | 0.00 | 0.01 | 0.01 | 55 | 1013.4 |
| 20260830164700 | 77 | 258 | 5.0 | 10.0 | 0.00 | 0.01 | 0.01 | 55 | 1013.4 |
| 20260830164605 | 77 | 260 | 5.0 | 11.0 | 0.00 | 0.01 | 0.01 | 54 | 1013.4 |
| 20260830164506 | 77 | 250 | 5.0 | 11.0 | 0.00 | 0.01 | 0.01 | 55 | 1013.5 |
| 20260830164406 | 77 | 213 | 5.0 | 11.0 | 0.00 | 0.01 | 0.01 | 55 | 1013.5 |
| 20260830164305 | 77 | 265 | 5.0 | 11.0 | 0.00 | 0.01 | 0.01 | 55 | 1013.5 |
| 20260830164201 | 77 | 243 | 6.0 | 11.0 | 0.00 | 0.01 | 0.01 | 54 | 1013.4 |
| 20260830164106 | 77 | 202 | 5.0 | 11.0 | 0.00 | 0.01 | 0.01 | 56 | 1013.4 |
| 20260830164006 | 77 | 228 | 5.0 | 11.0 | 0.00 | 0.01 | 0.01 | 56 | 1013.5 |
| 20260830163906 | 77 | 223 | 5.0 | 11.0 | 0.00 | 0.01 | 0.01 | 54 | 1013.5 |
| 20260830163806 | 77 | 229 | 5.0 | 11.0 | 0.00 | 0.01 | 0.01 | 56 | 1013.5 |
| 20260830163701 | 77 | 234 | 5.0 | 11.0 | 0.00 | 0.01 | 0.01 | 56 | 1013.5 |
| 20260830163606 | 77 | 240 | 5.0 | 10.0 | 0.00 | 0.01 | 0.01 | 55 | 1013.5 |
| 20260830163505 | 77 | 254 | 5.0 | 10.0 | 0.00 | 0.01 | 0.01 | 55 | 1013.5 |
| 20260830163405 | 77 | 260 | 5.0 | 10.0 | 0.00 | 0.01 | 0.01 | 56 | 1013.5 |
| 20260830163306 | 77 | 246 | 5.0 | 10.0 | 0.00 | 0.01 | 0.01 | 55 | 1013.4 |
| 20260830163200 | 77 | 271 | 5.0 | 10.0 | 0.00 | 0.01 | 0.01 | 55 | 1013.5 |
| 20260830163105 | 77 | 288 | 5.0 | 10.0 | 0.00 | 0.01 | 0.01 | 54 | 1013.5 |
| 20260830163005 | 77 | 236 | 6.0 | 10.0 | 0.00 | 0.01 | 0.01 | 54 | 1013.5 |
| 20260830162905 | 77 | 263 | 6.0 | 11.0 | 0.00 | 0.01 | 0.01 | 54 | 1013.5 |
| 20260830162805 | 77 | 286 | 6.0 | 11.0 | 0.00 | 0.01 | 0.01 | 54 | 1013.5 |
| 20260830162701 | 77 | 254 | 6.0 | 11.0 | 0.00 | 0.01 | 0.01 | 54 | 1013.5 |
| 20260830162602 | 77 | 248 | 6.0 | 11.0 | 0.00 | 0.01 | 0.01 | 55 | 1013.5 |
| 20260830162502 | 77 | 259 | 6.0 | 11.0 | 0.00 | 0.01 | 0.01 | 55 | 1013.5 |
| 20260830162402 | 77 | 271 | 7.0 | 11.0 | 0.00 | 0.01 | 0.01 | 55 | 1013.5 |
| 20260830162305 | 77 | 260 | 7.0 | 11.0 | 0.00 | 0.01 | 0.01 | 55 | 1013.5 |
| 20260830162205 | 77 | 271 | 7.0 | 11.0 | 0.00 | 0.01 | 0.01 | 54 | 1013.5 |
| 20260830162201 | 77 | 286 | 7.0 | 11.0 | 0.00 | 0.01 | 0.01 | 54 | 1013.5 |
| 20260830162102 | 77 | 266 | 7.0 | 12.0 | 0.00 | 0.01 | 0.01 | 54 | 1013.5 |
| 20260830162002 | 77 | 264 | 7.0 | 12.0 | 0.00 | 0.01 | 0.01 | 54 | 1013.5 |
| 20260830161901 | 77 | 281 | 7.0 | 12.0 | 0.00 | 0.01 | 0.01 | 54 | 1013.5 |
| 20260830161802 | 77 | 288 | 7.0 | 12.0 | 0.00 | 0.01 | 0.01 | 54 | 1013.5 |
| 20260830161705 | 77 | 288 | 7.0 | 12.0 | 0.00 | 0.01 | 0.01 | 54 | 1013.5 |
| 20260830161701 | 77 | 287 | 7.0 | 12.0 | 0.00 | 0.01 | 0.01 | 54 | 1013.5 |
| 20260830161653 | 77 | 291 | 7.0 | 12.0 | 0.00 | 0.01 | 0.01 | 54 | 1013.5 |
| 20260830161644 | 77 | 247 | 6.0 | 12.0 | 0.00 | 0.01 | 0.01 | 54 | 1013.5 |
| 20260830161640 | 77 | 276 | 6.0 | 12.0 | 0.00 | 0.01 | 0.01 | 54 | 1013.5 |
| 20260830161425 | 77 | 261 | 6.0 | 12.0 | 0.00 | 0.01 | 0.01 | 54 | 1013.5 |
| 20260830161417 | 77 | 278 | 7.0 | 12.0 | 0.00 | 0.01 | 0.01 | 54 | 1013.5 |
| 20260830161413 | 77 | 291 | 7.0 | 12.0 | 0.00 | 0.01 | 0.01 | 54 | 1013.5 |
| 20260830161101 | 77 | 270 | 6.0 | 12.0 | 0.00 | 0.01 | 0.01 | 54 | 1013.5 |
| 20260830161001 | 77 | 240 | 6.0 | 12.0 | 0.00 | 0.01 | 0.01 | 54 | 1013.5 |
| 20260830160901 | 77 | 286 | 6.0 | 12.0 | 0.00 | 0.01 | 0.01 | 55 | 1013.5 |
| 20260830160805 | 77 | 242 | 7.0 | 12.0 | 0.00 | 0.01 | 0.01 | 55 | 1013.5 |
| 20260830160701 | 77 | 286 | 6.0 | 12.0 | 0.00 | 0.01 | 0.01 | 54 | 1013.5 |
| 20260830160647 | 77 | 228 | 6.0 | 10.0 | 0.00 | 0.01 | 0.01 | 54 | 1013.5 |
| 20260830160642 | 77 | 211 | 6.0 | 12.0 | 0.00 | 0.01 | 0.01 | 54 | 1013.5 |
| 20260830160638 | 77 | 273 | 6.0 | 12.0 | 0.00 | 0.01 | 0.01 | 55 | 1013.5 |
| 20260830160423 | 77 | 233 | 6.0 | 12.0 | 0.00 | 0.01 | 0.01 | 55 | 1013.5 |
| 20260830160418 | 77 | 296 | 6.0 | 12.0 | 0.00 | 0.01 | 0.01 | 54 | 1013.5 |
| 20260830160411 | 77 | 228 | 6.0 | 10.0 | 0.00 | 0.01 | 0.01 | 54 | 1013.5 |
| 20260830160100 | 77 | 239 | 5.0 | 10.0 | 0.00 | 0.01 | 0.01 | 54 | 1013.5 |
| 20260830160001 | 77 | 277 | 5.0 | 10.0 | 0.00 | 0.01 | 0.01 | 54 | 1013.5 |
| 20260830155901 | 77 | 255 | 5.0 | 11.0 | 0.00 | 0.01 | 0.01 | 54 | 1013.5 |
| 20260830155801 | 77 | 261 | 5.0 | 11.0 | 0.00 | 0.01 | 0.01 | 55 | 1013.5 |
| 20260830155701 | 77 | 232 | 5.0 | 11.0 | 0.00 | 0.01 | 0.01 | 54 | 1013.5 |
| 20260830155601 | 77 | 279 | 5.0 | 11.0 | 0.00 | 0.01 | 0.01 | 55 | 1013.5 |
| 20260830155501 | 78 | 238 | 5.0 | 11.0 | 0.00 | 0.01 | 0.01 | 55 | 1013.5 |
| 20260830155401 | 78 | 268 | 5.0 | 11.0 | 0.00 | 0.01 | 0.01 | 54 | 1013.5 |
| 20260830155301 | 78 | 239 | 4.0 | 11.0 | 0.00 | 0.01 | 0.01 | 54 | 1013.5 |
| 20260830155201 | 78 | 252 | 5.0 | 11.0 | 0.00 | 0.01 | 0.01 | 54 | 1013.5 |
| 20260830155101 | 78 | 257 | 5.0 | 11.0 | 0.00 | 0.01 | 0.01 | 54 | 1013.5 |
| 20260830155001 | 78 | 250 | 5.0 | 11.0 | 0.00 | 0.01 | 0.01 | 55 | 1013.5 |
| 20260830154901 | 78 | 280 | 5.0 | 11.0 | 0.00 | 0.01 | 0.01 | 54 | 1013.5 |
| 20260830154800 | 78 | 242 | 5.0 | 11.0 | 0.00 | 0.01 | 0.01 | 55 | 1013.5 |
| 20260830154701 | 78 | 259 | 5.0 | 11.0 | 0.00 | 0.01 | 0.01 | 55 | 1013.5 |
| 20260830154601 | 78 | 281 | 5.0 | 11.0 | 0.00 | 0.01 | 0.01 | 53 | 1013.5 |
| 20260830154501 | 78 | 239 | 6.0 | 11.0 | 0.00 | 0.01 | 0.01 | 54 | 1013.6 |
| 20260830154401 | 78 | 272 | 6.0 | 11.0 | 0.00 | 0.01 | 0.01 | 54 | 1013.5 |
| 20260830154301 | 78 | 233 | 7.0 | 11.0 | 0.00 | 0.01 | 0.01 | 54 | 1013.5 |
| 20260830154201 | 78 | 229 | 7.0 | 11.0 | 0.00 | 0.01 | 0.01 | 54 | 1013.5 |
| 20260830154101 | 78 | 216 | 6.0 | 11.0 | 0.00 | 0.01 | 0.01 | 53 | 1013.6 |
| 20260830154001 | 78 | 275 | 6.0 | 11.0 | 0.00 | 0.01 | 0.01 | 53 | 1013.6 |
| 20260830153925 | 78 | 248 | 6.0 | 11.0 | 0.00 | 0.01 | 0.01 | 53 | 1013.6 |
| 20260830153921 | 78 | 240 | 6.0 | 10.0 | 0.00 | 0.01 | 0.01 | 53 | 1013.6 |
| 20260830153914 | 78 | 270 | 6.0 | 10.0 | 0.00 | 0.01 | 0.01 | 53 | 1013.6 |
| 20260830153601 | 78 | 252 | 6.0 | 10.0 | 0.00 | 0.01 | 0.01 | 53 | 1013.5 |
| 20260830153501 | 78 | 286 | 5.0 | 10.0 | 0.00 | 0.01 | 0.01 | 53 | 1013.6 |
| 20260830153401 | 78 | 236 | 5.0 | 10.0 | 0.00 | 0.01 | 0.01 | 53 | 1013.6 |
| 20260830153301 | 78 | 263 | 5.0 | 10.0 | 0.00 | 0.01 | 0.01 | 53 | 1013.6 |
| 20260830153201 | 78 | 248 | 5.0 | 10.0 | 0.00 | 0.01 | 0.01 | 54 | 1013.6 |
| 20260830153101 | 78 | 198 | 5.0 | 10.0 | 0.00 | 0.01 | 0.01 | 54 | 1013.6 |
| 20260830153001 | 78 | 272 | 5.0 | 10.0 | 0.00 | 0.01 | 0.01 | 55 | 1013.6 |
| 20260830152901 | 78 | 283 | 6.0 | 12.0 | 0.00 | 0.01 | 0.01 | 54 | 1013.6 |
| 20260830152801 | 78 | 234 | 6.0 | 12.0 | 0.00 | 0.01 | 0.01 | 55 | 1013.6 |
| 20260830152701 | 78 | 260 | 6.0 | 12.0 | 0.00 | 0.01 | 0.01 | 54 | 1013.6 |
| 20260830152601 | 78 | 277 | 6.0 | 12.0 | 0.00 | 0.01 | 0.01 | 53 | 1013.6 |
| 20260830152501 | 78 | 204 | 6.0 | 12.0 | 0.00 | 0.01 | 0.01 | 53 | 1013.6 |
| 20260830152401 | 78 | 200 | 6.0 | 12.0 | 0.00 | 0.01 | 0.01 | 53 | 1013.6 |
| 20260830152301 | 78 | 207 | 6.0 | 15.0 | 0.00 | 0.01 | 0.01 | 53 | 1013.6 |
| 20260830152201 | 78 | 225 | 6.0 | 15.0 | 0.00 | 0.01 | 0.01 | 53 | 1013.7 |
| 20260830152102 | 78 | 263 | 6.0 | 15.0 | 0.00 | 0.01 | 0.01 | 53 | 1013.7 |
| 20260830152001 | 78 | 253 | 6.0 | 15.0 | 0.00 | 0.01 | 0.01 | 53 | 1013.6 |
| 20260830151924 | 78 | 275 | 6.0 | 15.0 | 0.00 | 0.01 | 0.01 | 54 | 1013.6 |
| 20260830151920 | 78 | 286 | 6.0 | 15.0 | 0.00 | 0.01 | 0.01 | 54 | 1013.6 |
| 20260830151911 | 78 | 254 | 6.0 | 15.0 | 0.00 | 0.01 | 0.01 | 54 | 1013.7 |
| 20260830151601 | 78 | 244 | 6.0 | 15.0 | 0.00 | 0.01 | 0.01 | 54 | 1013.6 |
| 20260830151501 | 78 | 251 | 6.0 | 15.0 | 0.00 | 0.01 | 0.01 | 54 | 1013.7 |
| 20260830151424 | 78 | 257 | 6.0 | 15.0 | 0.00 | 0.01 | 0.01 | 53 | 1013.7 |
| 20260830151420 | 78 | 285 | 6.0 | 14.0 | 0.00 | 0.01 | 0.01 | 53 | 1013.7 |
| 20260830151412 | 78 | 244 | 6.0 | 10.0 | 0.00 | 0.01 | 0.01 | 53 | 1013.6 |
| 20260830151147 | 78 | 261 | 6.0 | 10.0 | 0.00 | 0.01 | 0.01 | 54 | 1013.7 |
| 20260830151143 | 78 | 246 | 6.0 | 10.0 | 0.00 | 0.01 | 0.01 | 53 | 1013.6 |
| 20260830151139 | 78 | 208 | 6.0 | 10.0 | 0.00 | 0.01 | 0.01 | 53 | 1013.6 |
| 20260830150923 | 78 | 246 | 6.0 | 10.0 | 0.00 | 0.01 | 0.01 | 53 | 1013.6 |
| 20260830150919 | 78 | 271 | 6.0 | 10.0 | 0.00 | 0.01 | 0.01 | 53 | 1013.6 |
| 20260830150912 | 78 | 261 | 6.0 | 10.0 | 0.00 | 0.01 | 0.01 | 54 | 1013.7 |
| 20260830150601 | 78 | 209 | 6.0 | 10.0 | 0.00 | 0.01 | 0.01 | 53 | 1013.6 |
| 20260830150501 | 78 | 262 | 6.0 | 10.0 | 0.00 | 0.01 | 0.01 | 53 | 1013.6 |
| 20260830150424 | 78 | 256 | 6.0 | 10.0 | 0.00 | 0.01 | 0.01 | 53 | 1013.6 |
| 20260830150420 | 78 | 263 | 5.0 | 10.0 | 0.00 | 0.01 | 0.01 | 54 | 1013.7 |
| 20260830150412 | 79 | 271 | 5.0 | 10.0 | 0.00 | 0.01 | 0.01 | 54 | 1013.6 |
| 20260830150100 | 79 | 227 | 5.0 | 10.0 | 0.00 | 0.01 | 0.01 | 53 | 1013.7 |
| 20260830150001 | 79 | 260 | 5.0 | 10.0 | 0.00 | 0.01 | 0.01 | 54 | 1013.7 |
| 20260830145901 | 79 | 246 | 5.0 | 10.0 | 0.00 | 0.01 | 0.01 | 53 | 1013.7 |
| 20260830145801 | 79 | 273 | 5.0 | 9.0 | 0.00 | 0.01 | 0.01 | 53 | 1013.7 |
| 20260830145701 | 79 | 254 | 5.0 | 9.0 | 0.00 | 0.01 | 0.01 | 53 | 1013.7 |
| 20260830145601 | 79 | 229 | 5.0 | 9.0 | 0.00 | 0.01 | 0.01 | 54 | 1013.7 |
| 20260830145501 | 79 | 224 | 5.0 | 9.0 | 0.00 | 0.01 | 0.01 | 53 | 1013.6 |
| 20260830145424 | 79 | 275 | 5.0 | 10.0 | 0.00 | 0.01 | 0.01 | 53 | 1013.6 |
| 20260830145420 | 79 | 265 | 6.0 | 10.0 | 0.00 | 0.01 | 0.01 | 52 | 1013.6 |
| 20260830145412 | 79 | 249 | 6.0 | 10.0 | 0.00 | 0.01 | 0.01 | 53 | 1013.6 |
| 20260830145100 | 79 | 267 | 6.0 | 10.0 | 0.00 | 0.01 | 0.01 | 53 | 1013.6 |
| 20260830145000 | 79 | 275 | 6.0 | 10.0 | 0.00 | 0.01 | 0.01 | 53 | 1013.6 |
| 20260830144923 | 79 | 255 | 6.0 | 10.0 | 0.00 | 0.01 | 0.01 | 52 | 1013.6 |
| 20260830144919 | 79 | 290 | 6.0 | 10.0 | 0.00 | 0.01 | 0.01 | 53 | 1013.6 |
| 20260830144911 | 79 | 246 | 6.0 | 10.0 | 0.00 | 0.01 | 0.01 | 52 | 1013.6 |
| 20260830144602 | 79 | 294 | 6.0 | 10.0 | 0.00 | 0.01 | 0.01 | 52 | 1013.6 |
| 20260830144502 | 79 | 238 | 6.0 | 10.0 | 0.00 | 0.01 | 0.01 | 52 | 1013.7 |
| 20260830144402 | 79 | 271 | 6.0 | 10.0 | 0.00 | 0.01 | 0.01 | 53 | 1013.6 |
| 20260830144301 | 79 | 273 | 5.0 | 10.0 | 0.00 | 0.01 | 0.01 | 53 | 1013.7 |
| 20260830144201 | 79 | 256 | 6.0 | 9.0 | 0.00 | 0.01 | 0.01 | 52 | 1013.7 |
| 20260830144101 | 79 | 252 | 5.0 | 9.0 | 0.00 | 0.01 | 0.01 | 52 | 1013.7 |
| 20260830144003 | 79 | 217 | 5.0 | 9.0 | 0.00 | 0.01 | 0.01 | 52 | 1013.7 |
| 20260830143901 | 79 | 244 | 6.0 | 9.0 | 0.00 | 0.01 | 0.01 | 51 | 1013.7 |
| 20260830143801 | 80 | 237 | 6.0 | 11.0 | 0.00 | 0.01 | 0.01 | 52 | 1013.7 |
| 20260830143701 | 80 | 263 | 6.0 | 11.0 | 0.00 | 0.01 | 0.01 | 51 | 1013.6 |
| 20260830143651 | 80 | 309 | 6.0 | 11.0 | 0.00 | 0.01 | 0.01 | 51 | 1013.6 |
| 20260830143644 | 80 | 270 | 6.0 | 11.0 | 0.00 | 0.01 | 0.01 | 51 | 1013.6 |
| 20260830143640 | 80 | 275 | 6.0 | 11.0 | 0.00 | 0.01 | 0.01 | 51 | 1013.6 |
| 20260830143424 | 80 | 254 | 6.0 | 11.0 | 0.00 | 0.01 | 0.01 | 52 | 1013.6 |
| 20260830143420 | 80 | 302 | 6.0 | 11.0 | 0.00 | 0.01 | 0.01 | 51 | 1013.7 |
| 20260830143412 | 80 | 309 | 6.0 | 11.0 | 0.00 | 0.01 | 0.01 | 51 | 1013.6 |
| 20260830143101 | 80 | 251 | 7.0 | 12.0 | 0.00 | 0.01 | 0.01 | 50 | 1013.6 |
| 20260830143001 | 80 | 257 | 7.0 | 12.0 | 0.00 | 0.01 | 0.01 | 50 | 1013.7 |
| 20260830142901 | 80 | 257 | 7.0 | 12.0 | 0.00 | 0.01 | 0.01 | 51 | 1013.7 |
| 20260830142800 | 80 | 269 | 7.0 | 12.0 | 0.00 | 0.01 | 0.01 | 51 | 1013.7 |
| 20260830142701 | 80 | 323 | 6.0 | 12.0 | 0.00 | 0.01 | 0.01 | 51 | 1013.7 |
| 20260830142601 | 80 | 288 | 6.0 | 12.0 | 0.00 | 0.01 | 0.01 | 51 | 1013.7 |
| 20260830142501 | 80 | 294 | 6.0 | 12.0 | 0.00 | 0.01 | 0.01 | 50 | 1013.7 |
| 20260830142424 | 80 | 239 | 6.0 | 12.0 | 0.00 | 0.01 | 0.01 | 50 | 1013.7 |
| 20260830142420 | 80 | 282 | 5.0 | 12.0 | 0.00 | 0.01 | 0.01 | 51 | 1013.7 |
| 20260830142412 | 80 | 246 | 5.0 | 12.0 | 0.00 | 0.01 | 0.01 | 51 | 1013.7 |
| 20260830142100 | 80 | 277 | 4.0 | 12.0 | 0.00 | 0.01 | 0.01 | 52 | 1013.7 |
| 20260830141959 | 80 | 231 | 4.0 | 12.0 | 0.00 | 0.01 | 0.01 | 52 | 1013.7 |
| 20260830141859 | 80 | 272 | 4.0 | 12.0 | 0.00 | 0.01 | 0.01 | 53 | 1013.7 |
| 20260830141759 | 80 | 309 | 5.0 | 12.0 | 0.00 | 0.01 | 0.01 | 54 | 1013.7 |
| 20260830141703 | 80 | 328 | 5.0 | 12.0 | 0.00 | 0.01 | 0.01 | 53 | 1013.7 |
| 20260830141659 | 80 | 329 | 5.0 | 12.0 | 0.00 | 0.01 | 0.01 | 53 | 1013.7 |
| 20260830141559 | 80 | 285 | 5.0 | 12.0 | 0.00 | 0.01 | 0.01 | 52 | 1013.7 |
| 20260830141457 | 80 | 257 | 6.0 | 12.0 | 0.00 | 0.01 | 0.01 | 53 | 1013.8 |
| 20260830141358 | 80 | 265 | 6.0 | 12.0 | 0.00 | 0.01 | 0.01 | 52 | 1013.8 |
| 20260830141257 | 80 | 291 | 6.0 | 12.0 | 0.00 | 0.01 | 0.01 | 51 | 1013.8 |
| 20260830141201 | 80 | 277 | 7.0 | 12.0 | 0.00 | 0.01 | 0.01 | 51 | 1013.8 |
| 20260830141154 | 80 | 277 | 7.0 | 12.0 | 0.00 | 0.01 | 0.01 | 51 | 1013.8 |
| 20260830141053 | 80 | 284 | 7.0 | 12.0 | 0.00 | 0.01 | 0.01 | 52 | 1013.8 |
| 20260830140947 | 80 | 268 | 7.0 | 11.0 | 0.00 | 0.01 | 0.01 | 51 | 1013.8 |
| 20260830140847 | 80 | 277 | 7.0 | 11.0 | 0.00 | 0.01 | 0.01 | 52 | 1013.8 |
| 20260830140748 | 80 | 254 | 7.0 | 11.0 | 0.00 | 0.01 | 0.01 | 51 | 1013.8 |
| 20260830140701 | 80 | 263 | 6.0 | 11.0 | 0.00 | 0.01 | 0.01 | 51 | 1013.7 |
| 20260830140647 | 80 | 247 | 6.0 | 11.0 | 0.00 | 0.01 | 0.01 | 51 | 1013.7 |
| 20260830140546 | 80 | 284 | 6.0 | 11.0 | 0.00 | 0.01 | 0.01 | 51 | 1013.8 |
| 20260830140441 | 80 | 261 | 6.0 | 11.0 | 0.00 | 0.01 | 0.01 | 51 | 1013.8 |
| 20260830140341 | 80 | 265 | 6.0 | 11.0 | 0.00 | 0.01 | 0.01 | 51 | 1013.8 |
| 20260830140241 | 80 | 255 | 6.0 | 11.0 | 0.00 | 0.01 | 0.01 | 51 | 1013.8 |
| 20260830140200 | 80 | 248 | 5.0 | 11.0 | 0.00 | 0.01 | 0.01 | 51 | 1013.8 |
| 20260830140146 | 80 | 297 | 5.0 | 11.0 | 0.00 | 0.01 | 0.01 | 50 | 1013.9 |
| 20260830140142 | 80 | 257 | 5.0 | 11.0 | 0.00 | 0.01 | 0.01 | 51 | 1013.8 |
| 20260830140138 | 80 | 245 | 4.0 | 9.0 | 0.00 | 0.01 | 0.01 | 51 | 1013.9 |
| 20260830140134 | 80 | 275 | 5.0 | 11.0 | 0.00 | 0.01 | 0.01 | 50 | 1013.8 |
| 20260830140130 | 80 | 252 | 4.0 | 11.0 | 0.00 | 0.01 | 0.01 | 49 | 1013.8 |
| 20260830140126 | 80 | 246 | 4.0 | 9.0 | 0.00 | 0.01 | 0.01 | 50 | 1013.8 |
| 20260830140122 | 80 | 242 | 4.0 | 9.0 | 0.00 | 0.01 | 0.01 | 50 | 1013.8 |
| 20260830135649 | 80 | 245 | 4.0 | 9.0 | 0.00 | 0.01 | 0.01 | 51 | 1013.9 |
| 20260830135645 | 80 | 262 | 4.0 | 9.0 | 0.00 | 0.01 | 0.01 | 51 | 1013.8 |
| 20260830135641 | 80 | 250 | 4.0 | 9.0 | 0.00 | 0.01 | 0.01 | 52 | 1013.9 |
| 20260830135420 | 80 | 250 | 4.0 | 10.0 | 0.00 | 0.01 | 0.01 | 52 | 1013.8 |
| 20260830135416 | 80 | 263 | 4.0 | 11.0 | 0.00 | 0.01 | 0.01 | 53 | 1013.9 |
| 20260830135134 | 80 | 309 | 5.0 | 11.0 | 0.00 | 0.01 | 0.01 | 50 | 1013.9 |
| 20260830135033 | 80 | 309 | 6.0 | 14.0 | 0.00 | 0.01 | 0.01 | 51 | 1013.9 |
| 20260830134933 | 80 | 309 | 6.0 | 14.0 | 0.00 | 0.01 | 0.01 | 51 | 1013.9 |
| 20260830134829 | 80 | 267 | 7.0 | 14.0 | 0.00 | 0.01 | 0.01 | 51 | 1013.8 |
| 20260830134729 | 80 | 266 | 7.0 | 14.0 | 0.00 | 0.01 | 0.01 | 52 | 1013.9 |
| 20260830134705 | 80 | 269 | 8.0 | 14.0 | 0.00 | 0.01 | 0.01 | 50 | 1013.9 |
| 20260830134629 | 80 | 270 | 8.0 | 14.0 | 0.00 | 0.01 | 0.01 | 50 | 1013.9 |
| 20260830134529 | 80 | 274 | 8.0 | 14.0 | 0.00 | 0.01 | 0.01 | 50 | 1013.9 |
| 20260830134429 | 81 | 264 | 8.0 | 14.0 | 0.00 | 0.01 | 0.01 | 50 | 1013.9 |
| 20260830134330 | 81 | 272 | 8.0 | 14.0 | 0.00 | 0.01 | 0.01 | 51 | 1013.9 |
| 20260830134230 | 81 | 255 | 8.0 | 14.0 | 0.00 | 0.01 | 0.01 | 50 | 1013.9 |
| 20260830134202 | 81 | 269 | 8.0 | 14.0 | 0.00 | 0.01 | 0.01 | 50 | 1013.9 |
| 20260830134131 | 81 | 294 | 8.0 | 14.0 | 0.00 | 0.01 | 0.01 | 50 | 1013.9 |
| 20260830134029 | 81 | 270 | 7.0 | 14.0 | 0.00 | 0.01 | 0.01 | 51 | 1013.9 |
| 20260830133929 | 81 | 276 | 7.0 | 14.0 | 0.00 | 0.01 | 0.01 | 49 | 1013.8 |
| 20260830133829 | 81 | 308 | 7.0 | 14.0 | 0.00 | 0.01 | 0.01 | 51 | 1013.8 |
| 20260830133729 | 81 | 335 | 6.0 | 14.0 | 0.00 | 0.01 | 0.01 | 50 | 1013.8 |
| 20260830133701 | 81 | 266 | 6.0 | 14.0 | 0.00 | 0.01 | 0.01 | 50 | 1013.9 |
| 20260830133629 | 81 | 270 | 6.0 | 14.0 | 0.00 | 0.01 | 0.01 | 51 | 1013.9 |
| 20260830133529 | 81 | 275 | 5.0 | 14.0 | 0.00 | 0.01 | 0.01 | 50 | 1013.8 |
| 20260830133429 | 81 | 297 | 6.0 | 14.0 | 0.00 | 0.01 | 0.01 | 51 | 1013.8 |
| 20260830133422 | 81 | 234 | 5.0 | 9.0 | 0.00 | 0.01 | 0.01 | 52 | 1013.9 |
| 20260830133416 | 81 | 294 | 5.0 | 9.0 | 0.00 | 0.01 | 0.01 | 52 | 1013.9 |
| 20260830133412 | 81 | 318 | 5.0 | 9.0 | 0.00 | 0.01 | 0.01 | 52 | 1013.9 |
| 20260830133129 | 81 | 261 | 5.0 | 9.0 | 0.00 | 0.01 | 0.01 | 53 | 1013.9 |
| 20260830133029 | 81 | 314 | 5.0 | 9.0 | 0.00 | 0.01 | 0.01 | 52 | 1013.9 |
| 20260830132929 | 81 | 290 | 5.0 | 9.0 | 0.00 | 0.01 | 0.01 | 52 | 1013.9 |
| 20260830132829 | 81 | 288 | 5.0 | 11.0 | 0.00 | 0.01 | 0.01 | 52 | 1013.9 |
| 20260830132729 | 81 | 308 | 5.0 | 12.0 | 0.00 | 0.01 | 0.01 | 52 | 1013.9 |
| 20260830132701 | 81 | 295 | 6.0 | 12.0 | 0.00 | 0.01 | 0.01 | 51 | 1014.1 |
| 20260830132655 | 81 | 234 | 6.0 | 12.0 | 0.00 | 0.01 | 0.01 | 51 | 1014.1 |
| 20260830132645 | 81 | 240 | 6.0 | 12.0 | 0.00 | 0.01 | 0.01 | 51 | 1014.1 |
| 20260830132641 | 81 | 268 | 6.0 | 12.0 | 0.00 | 0.01 | 0.01 | 52 | 1014.1 |
| 20260830132637 | 81 | 256 | 5.0 | 12.0 | 0.00 | 0.01 | 0.01 | 50 | 1014.1 |
| 20260830132416 | 81 | 210 | 5.0 | 12.0 | 0.00 | 0.01 | 0.01 | 52 | 1013.9 |
| 20260830132412 | 81 | 220 | 5.0 | 12.0 | 0.00 | 0.01 | 0.01 | 52 | 1013.9 |
| 20260830132128 | 81 | 261 | 6.0 | 12.0 | 0.00 | 0.01 | 0.01 | 52 | 1014.1 |
| 20260830132029 | 81 | 240 | 6.0 | 12.0 | 0.00 | 0.01 | 0.01 | 52 | 1014.1 |
| 20260830131929 | 81 | 227 | 6.0 | 12.0 | 0.00 | 0.01 | 0.01 | 52 | 1014.1 |
| 20260830131829 | 81 | 267 | 6.0 | 12.0 | 0.00 | 0.01 | 0.01 | 52 | 1014.1 |
| 20260830131729 | 81 | 245 | 6.0 | 12.0 | 0.00 | 0.01 | 0.01 | 53 | 1014.2 |
| 20260830131701 | 80 | 285 | 6.0 | 12.0 | 0.00 | 0.01 | 0.01 | 53 | 1014.1 |
| 20260830131629 | 80 | 290 | 6.0 | 12.0 | 0.00 | 0.01 | 0.01 | 53 | 1014.1 |
| 20260830131529 | 80 | 313 | 6.0 | 12.0 | 0.00 | 0.01 | 0.01 | 52 | 1014.1 |
| 20260830131429 | 80 | 312 | 6.0 | 12.0 | 0.00 | 0.01 | 0.01 | 52 | 1014.1 |
| 20260830131329 | 80 | 270 | 6.0 | 12.0 | 0.00 | 0.01 | 0.01 | 52 | 1014.1 |
| 20260830131245 | 80 | 322 | 6.0 | 12.0 | 0.00 | 0.01 | 0.01 | 51 | 1014.2 |
| 20260830131241 | 80 | 273 | 5.0 | 12.0 | 0.00 | 0.01 | 0.01 | 52 | 1014.1 |
| 20260830131232 | 80 | 298 | 5.0 | 12.0 | 0.00 | 0.01 | 0.01 | 52 | 1014.1 |
| 20260830131030 | 80 | 320 | 5.0 | 12.0 | 0.00 | 0.01 | 0.01 | 52 | 1014.2 |
| 20260830130929 | 80 | 273 | 5.0 | 12.0 | 0.00 | 0.01 | 0.01 | 53 | 1014.1 |
| 20260830130829 | 80 | 296 | 5.0 | 12.0 | 0.00 | 0.01 | 0.01 | 53 | 1014.1 |
| 20260830130729 | 80 | 254 | 4.0 | 10.0 | 0.00 | 0.01 | 0.01 | 53 | 1014.1 |
| 20260830130701 | 80 | 298 | 4.0 | 10.0 | 0.00 | 0.01 | 0.01 | 53 | 1014.1 |
| 20260830130629 | 80 | 301 | 4.0 | 10.0 | 0.00 | 0.01 | 0.01 | 54 | 1014.1 |
| 20260830130529 | 80 | 299 | 5.0 | 9.0 | 0.00 | 0.01 | 0.01 | 53 | 1014.1 |
| 20260830130429 | 80 | 267 | 5.0 | 11.0 | 0.00 | 0.01 | 0.01 | 54 | 1014.2 |
| 20260830130416 | 80 | 306 | 6.0 | 11.0 | 0.00 | 0.01 | 0.01 | 52 | 1014.2 |
| 20260830130412 | 80 | 294 | 6.0 | 12.0 | 0.00 | 0.01 | 0.01 | 53 | 1014.2 |
| 20260830130129 | 79 | 294 | 6.0 | 12.0 | 0.00 | 0.01 | 0.01 | 52 | 1014.2 |
| 20260830130029 | 79 | 307 | 6.0 | 12.0 | 0.00 | 0.01 | 0.01 | 53 | 1014.2 |
| 20260830125929 | 79 | 275 | 6.0 | 12.0 | 0.00 | 0.01 | 0.01 | 54 | 1014.3 |
| 20260830125829 | 79 | 294 | 6.0 | 12.0 | 0.00 | 0.01 | 0.01 | 54 | 1014.2 |
| 20260830125729 | 79 | 270 | 6.0 | 12.0 | 0.00 | 0.01 | 0.01 | 53 | 1014.3 |
| 20260830125701 | 79 | 316 | 6.0 | 12.0 | 0.00 | 0.01 | 0.01 | 53 | 1014.3 |
| 20260830125628 | 79 | 271 | 6.0 | 12.0 | 0.00 | 0.01 | 0.01 | 53 | 1014.3 |
| 20260830125528 | 79 | 320 | 6.0 | 12.0 | 0.00 | 0.01 | 0.01 | 53 | 1014.3 |
| 20260830125428 | 79 | 283 | 6.0 | 12.0 | 0.00 | 0.01 | 0.01 | 54 | 1014.3 |
| 20260830125421 | 79 | 262 | 5.0 | 10.0 | 0.00 | 0.01 | 0.01 | 52 | 1014.3 |
| 20260830125417 | 79 | 299 | 5.0 | 12.0 | 0.00 | 0.01 | 0.01 | 53 | 1014.3 |
| 20260830125412 | 79 | 293 | 6.0 | 10.0 | 0.00 | 0.01 | 0.01 | 53 | 1014.3 |
| 20260830125128 | 79 | 296 | 5.0 | 10.0 | 0.00 | 0.01 | 0.01 | 52 | 1014.3 |
| 20260830125029 | 79 | 304 | 5.0 | 10.0 | 0.00 | 0.01 | 0.01 | 53 | 1014.3 |
| 20260830124929 | 79 | 281 | 5.0 | 10.0 | 0.00 | 0.01 | 0.01 | 53 | 1014.3 |
| 20260830124829 | 79 | 321 | 6.0 | 12.0 | 0.00 | 0.01 | 0.01 | 53 | 1014.3 |
| 20260830124729 | 79 | 309 | 6.0 | 12.0 | 0.00 | 0.01 | 0.01 | 53 | 1014.3 |
| 20260830124701 | 79 | 311 | 6.0 | 12.0 | 0.00 | 0.01 | 0.01 | 53 | 1014.3 |
| 20260830124627 | 79 | 316 | 6.0 | 12.0 | 0.00 | 0.01 | 0.01 | 53 | 1014.3 |
| 20260830124527 | 79 | 281 | 6.0 | 12.0 | 0.00 | 0.01 | 0.01 | 53 | 1014.3 |
| 20260830124427 | 79 | 241 | 6.0 | 12.0 | 0.00 | 0.01 | 0.01 | 53 | 1014.3 |
| 20260830124327 | 79 | 257 | 6.0 | 12.0 | 0.00 | 0.01 | 0.01 | 52 | 1014.3 |
| 20260830124227 | 79 | 243 | 6.0 | 12.0 | 0.00 | 0.01 | 0.01 | 52 | 1014.3 |
| 20260830124201 | 79 | 242 | 6.0 | 12.0 | 0.00 | 0.01 | 0.01 | 52 | 1014.3 |
| 20260830124121 | 79 | 270 | 6.0 | 12.0 | 0.00 | 0.01 | 0.01 | 52 | 1014.4 |
| 20260830124021 | 79 | 261 | 6.0 | 12.0 | 0.00 | 0.01 | 0.01 | 52 | 1014.3 |
| 20260830123921 | 79 | 257 | 6.0 | 12.0 | 0.00 | 0.01 | 0.01 | 54 | 1014.4 |
| 20260830123821 | 79 | 255 | 6.0 | 12.0 | 0.00 | 0.01 | 0.01 | 53 | 1014.3 |
| 20260830123721 | 79 | 223 | 6.0 | 12.0 | 0.00 | 0.01 | 0.01 | 54 | 1014.4 |
| 20260830123701 | 79 | 254 | 6.0 | 12.0 | 0.00 | 0.01 | 0.01 | 54 | 1014.4 |
| 20260830123615 | 79 | 264 | 6.0 | 14.0 | 0.00 | 0.01 | 0.01 | 54 | 1014.4 |
| 20260830123515 | 79 | 248 | 7.0 | 14.0 | 0.00 | 0.01 | 0.01 | 53 | 1014.3 |
| 20260830123426 | 79 | 263 | 6.0 | 14.0 | 0.00 | 0.01 | 0.01 | 54 | 1014.4 |
| 20260830123420 | 79 | 294 | 6.0 | 14.0 | 0.00 | 0.01 | 0.01 | 54 | 1014.3 |
| 20260830123416 | 79 | 321 | 6.0 | 14.0 | 0.00 | 0.01 | 0.01 | 54 | 1014.3 |
| 20260830123411 | 79 | 267 | 6.0 | 14.0 | 0.00 | 0.01 | 0.01 | 54 | 1014.4 |
| 20260830123111 | 79 | 259 | 7.0 | 14.0 | 0.00 | 0.01 | 0.01 | 54 | 1014.4 |
| 20260830123012 | 79 | 260 | 7.0 | 14.0 | 0.00 | 0.01 | 0.01 | 53 | 1014.4 |
| 20260830122911 | 79 | 275 | 7.0 | 14.0 | 0.00 | 0.01 | 0.01 | 54 | 1014.4 |
| 20260830122811 | 79 | 313 | 7.0 | 14.0 | 0.00 | 0.01 | 0.01 | 54 | 1014.4 |
| 20260830122708 | 79 | 311 | 7.0 | 14.0 | 0.00 | 0.01 | 0.01 | 53 | 1014.4 |
| 20260830122701 | 79 | 285 | 7.0 | 14.0 | 0.00 | 0.01 | 0.01 | 53 | 1014.4 |
| 20260830122605 | 79 | 322 | 7.0 | 13.0 | 0.00 | 0.01 | 0.01 | 54 | 1014.5 |
| 20260830122503 | 79 | 297 | 7.0 | 13.0 | 0.00 | 0.01 | 0.01 | 53 | 1014.4 |
| 20260830122403 | 79 | 340 | 7.0 | 13.0 | 0.00 | 0.01 | 0.01 | 53 | 1014.4 |
| 20260830122306 | 79 | 321 | 6.0 | 13.0 | 0.00 | 0.01 | 0.01 | 53 | 1014.4 |
| 20260830122205 | 79 | 321 | 6.0 | 13.0 | 0.00 | 0.01 | 0.01 | 54 | 1014.4 |
| 20260830122200 | 79 | 348 | 6.0 | 13.0 | 0.00 | 0.01 | 0.01 | 54 | 1014.4 |
| 20260830122102 | 79 | 302 | 6.0 | 11.0 | 0.00 | 0.01 | 0.01 | 54 | 1014.4 |
| 20260830122001 | 79 | 311 | 6.0 | 11.0 | 0.00 | 0.01 | 0.01 | 53 | 1014.4 |
| 20260830121901 | 79 | 312 | 5.0 | 11.0 | 0.00 | 0.01 | 0.01 | 55 | 1014.4 |
| 20260830121802 | 78 | 266 | 5.0 | 11.0 | 0.00 | 0.01 | 0.01 | 55 | 1014.3 |
| 20260830121701 | 78 | 278 | 6.0 | 11.0 | 0.00 | 0.01 | 0.01 | 56 | 1014.4 |
| 20260830121601 | 78 | 277 | 6.0 | 12.0 | 0.00 | 0.01 | 0.01 | 55 | 1014.4 |
| 20260830121501 | 78 | 269 | 6.0 | 12.0 | 0.00 | 0.01 | 0.01 | 54 | 1014.3 |
| 20260830121401 | 78 | 232 | 6.0 | 12.0 | 0.00 | 0.01 | 0.01 | 56 | 1014.4 |
| 20260830121302 | 78 | 279 | 6.0 | 12.0 | 0.00 | 0.01 | 0.01 | 57 | 1014.4 |
| 20260830121201 | 78 | 306 | 6.0 | 12.0 | 0.00 | 0.01 | 0.01 | 57 | 1014.4 |
| 20260830121101 | 78 | 306 | 7.0 | 12.0 | 0.00 | 0.01 | 0.01 | 56 | 1014.4 |
| 20260830121001 | 78 | 299 | 7.0 | 12.0 | 0.00 | 0.01 | 0.01 | 57 | 1014.4 |
| 20260830120902 | 78 | 300 | 7.0 | 12.0 | 0.00 | 0.01 | 0.01 | 56 | 1014.5 |
| 20260830120801 | 78 | 316 | 7.0 | 12.0 | 0.00 | 0.01 | 0.01 | 55 | 1014.4 |
| 20260830120700 | 78 | 317 | 6.0 | 12.0 | 0.00 | 0.01 | 0.01 | 56 | 1014.4 |
| 20260830120601 | 78 | 281 | 6.0 | 12.0 | 0.00 | 0.01 | 0.01 | 55 | 1014.5 |
| 20260830120501 | 78 | 312 | 7.0 | 12.0 | 0.00 | 0.01 | 0.01 | 54 | 1014.5 |
| 20260830120400 | 78 | 321 | 7.0 | 12.0 | 0.00 | 0.01 | 0.01 | 55 | 1014.5 |
| 20260830120300 | 78 | 307 | 7.0 | 12.0 | 0.00 | 0.01 | 0.01 | 56 | 1014.5 |
| 20260830120200 | 78 | 292 | 6.0 | 12.0 | 0.00 | 0.01 | 0.01 | 55 | 1014.5 |
| 20260830120100 | 78 | 311 | 6.0 | 12.0 | 0.00 | 0.01 | 0.01 | 55 | 1014.5 |
| 20260830120000 | 78 | 300 | 7.0 | 12.0 | 0.00 | 0.01 | 0.01 | 55 | 1014.5 |
| 20260830115900 | 78 | 241 | 7.0 | 13.0 | 0.00 | 0.01 | 0.01 | 55 | 1014.5 |
| 20260830115801 | 78 | 249 | 7.0 | 13.0 | 0.00 | 0.01 | 0.01 | 55 | 1014.5 |
| 20260830115701 | 78 | 278 | 7.0 | 13.0 | 0.00 | 0.01 | 0.01 | 54 | 1014.5 |
| 20260830115652 | 78 | 263 | 6.0 | 13.0 | 0.00 | 0.01 | 0.01 | 54 | 1014.5 |
| 20260830115643 | 78 | 230 | 6.0 | 13.0 | 0.00 | 0.01 | 0.01 | 55 | 1014.5 |
| 20260830115639 | 78 | 269 | 6.0 | 13.0 | 0.00 | 0.01 | 0.01 | 55 | 1014.5 |
| 20260830115421 | 78 | 300 | 6.0 | 13.0 | 0.00 | 0.01 | 0.01 | 55 | 1014.5 |
| 20260830115417 | 78 | 282 | 6.0 | 13.0 | 0.00 | 0.01 | 0.01 | 55 | 1014.5 |
| 20260830115413 | 78 | 263 | 6.0 | 13.0 | 0.00 | 0.01 | 0.01 | 54 | 1014.5 |
| 20260830115101 | 78 | 273 | 6.0 | 13.0 | 0.00 | 0.01 | 0.01 | 54 | 1014.5 |
| 20260830115001 | 78 | 290 | 6.0 | 13.0 | 0.00 | 0.01 | 0.01 | 56 | 1014.5 |
| 20260830114901 | 78 | 288 | 6.0 | 12.0 | 0.00 | 0.01 | 0.01 | 56 | 1014.5 |
| 20260830114801 | 78 | 317 | 6.0 | 12.0 | 0.00 | 0.01 | 0.01 | 56 | 1014.5 |
| 20260830114701 | 78 | 276 | 7.0 | 13.0 | 0.00 | 0.01 | 0.01 | 56 | 1014.5 |
| 20260830114653 | 78 | 306 | 8.0 | 15.0 | 0.00 | 0.01 | 0.01 | 55 | 1014.6 |
| 20260830114645 | 78 | 294 | 7.0 | 15.0 | 0.00 | 0.01 | 0.01 | 55 | 1014.5 |
| 20260830114641 | 78 | 288 | 8.0 | 15.0 | 0.00 | 0.01 | 0.01 | 56 | 1014.5 |
| 20260830114419 | 78 | 288 | 8.0 | 15.0 | 0.00 | 0.01 | 0.01 | 55 | 1014.5 |
| 20260830114415 | 78 | 294 | 8.0 | 15.0 | 0.00 | 0.01 | 0.01 | 54 | 1014.5 |
| 20260830114411 | 78 | 306 | 8.0 | 15.0 | 0.00 | 0.01 | 0.01 | 55 | 1014.6 |
| 20260830114101 | 78 | 275 | 8.0 | 15.0 | 0.00 | 0.01 | 0.01 | 55 | 1014.5 |
| 20260830114001 | 78 | 279 | 8.0 | 15.0 | 0.00 | 0.01 | 0.01 | 54 | 1014.5 |
| 20260830113901 | 78 | 232 | 8.0 | 15.0 | 0.00 | 0.01 | 0.01 | 53 | 1014.5 |
| 20260830113801 | 78 | 245 | 8.0 | 15.0 | 0.00 | 0.01 | 0.01 | 53 | 1014.6 |
| 20260830113700 | 78 | 250 | 7.0 | 15.0 | 0.00 | 0.01 | 0.01 | 54 | 1014.6 |
| 20260830113605 | 78 | 283 | 7.0 | 14.0 | 0.00 | 0.01 | 0.01 | 55 | 1014.5 |
| 20260830113502 | 77 | 238 | 6.0 | 14.0 | 0.00 | 0.01 | 0.01 | 55 | 1014.6 |
| 20260830113401 | 77 | 236 | 6.0 | 14.0 | 0.00 | 0.01 | 0.01 | 54 | 1014.5 |
| 20260830113301 | 77 | 265 | 6.0 | 14.0 | 0.00 | 0.01 | 0.01 | 54 | 1014.6 |
| 20260830113201 | 77 | 303 | 6.0 | 12.0 | 0.00 | 0.01 | 0.01 | 55 | 1014.6 |
| 20260830113102 | 77 | 248 | 6.0 | 12.0 | 0.00 | 0.01 | 0.01 | 55 | 1014.6 |
| 20260830113001 | 77 | 285 | 6.0 | 12.0 | 0.00 | 0.01 | 0.01 | 56 | 1014.6 |
| 20260830112901 | 77 | 215 | 7.0 | 12.0 | 0.00 | 0.01 | 0.01 | 57 | 1014.6 |
| 20260830112801 | 77 | 277 | 7.0 | 12.0 | 0.00 | 0.01 | 0.01 | 58 | 1014.6 |
| 20260830112700 | 77 | 219 | 7.0 | 12.0 | 0.00 | 0.01 | 0.01 | 57 | 1014.6 |
| 20260830112600 | 77 | 258 | 8.0 | 12.0 | 0.00 | 0.01 | 0.01 | 56 | 1014.6 |
| 20260830112501 | 77 | 260 | 8.0 | 12.0 | 0.00 | 0.01 | 0.01 | 56 | 1014.6 |
| 20260830112400 | 77 | 257 | 9.0 | 12.0 | 0.00 | 0.01 | 0.01 | 57 | 1014.6 |
| 20260830112300 | 76 | 249 | 9.0 | 13.0 | 0.00 | 0.01 | 0.01 | 57 | 1014.7 |
| 20260830112201 | 76 | 267 | 9.0 | 13.0 | 0.00 | 0.01 | 0.01 | 57 | 1014.6 |
| 20260830112101 | 76 | 234 | 9.0 | 13.0 | 0.00 | 0.01 | 0.01 | 56 | 1014.6 |
| 20260830112001 | 76 | 284 | 8.0 | 13.0 | 0.00 | 0.01 | 0.01 | 56 | 1014.6 |
| 20260830111921 | 76 | 266 | 8.0 | 13.0 | 0.00 | 0.01 | 0.01 | 55 | 1014.6 |
| 20260830111917 | 76 | 278 | 8.0 | 13.0 | 0.00 | 0.01 | 0.01 | 56 | 1014.6 |
| 20260830111912 | 76 | 278 | 8.0 | 13.0 | 0.00 | 0.01 | 0.01 | 55 | 1014.6 |
| 20260830111601 | 76 | 261 | 8.0 | 13.0 | 0.00 | 0.01 | 0.01 | 55 | 1014.7 |
| 20260830111500 | 76 | 277 | 8.0 | 13.0 | 0.00 | 0.01 | 0.01 | 57 | 1014.6 |
| 20260830111401 | 76 | 269 | 8.0 | 13.0 | 0.00 | 0.01 | 0.01 | 57 | 1014.7 |
| 20260830111301 | 76 | 255 | 8.0 | 11.0 | 0.00 | 0.01 | 0.01 | 56 | 1014.8 |
| 20260830111201 | 76 | 257 | 8.0 | 11.0 | 0.00 | 0.01 | 0.01 | 56 | 1014.8 |
| 20260830111101 | 76 | 268 | 7.0 | 11.0 | 0.00 | 0.01 | 0.01 | 56 | 1014.7 |
| 20260830111001 | 76 | 254 | 7.0 | 11.0 | 0.00 | 0.01 | 0.01 | 56 | 1014.8 |
| 20260830110901 | 76 | 234 | 7.0 | 11.0 | 0.00 | 0.01 | 0.01 | 56 | 1014.8 |
| 20260830110801 | 76 | 280 | 8.0 | 11.0 | 0.00 | 0.01 | 0.01 | 55 | 1014.8 |
| 20260830110701 | 76 | 273 | 8.0 | 11.0 | 0.00 | 0.01 | 0.01 | 55 | 1014.8 |
| 20260830110600 | 76 | 256 | 8.0 | 12.0 | 0.00 | 0.01 | 0.01 | 55 | 1014.8 |
| 20260830110501 | 76 | 257 | 8.0 | 12.0 | 0.00 | 0.01 | 0.01 | 55 | 1014.8 |
| 20260830110401 | 77 | 290 | 8.0 | 13.0 | 0.00 | 0.01 | 0.01 | 55 | 1014.8 |
| 20260830110301 | 77 | 321 | 7.0 | 13.0 | 0.00 | 0.01 | 0.01 | 54 | 1014.8 |
| 20260830110200 | 77 | 265 | 7.0 | 13.0 | 0.00 | 0.01 | 0.01 | 55 | 1014.8 |
| 20260830110100 | 77 | 271 | 7.0 | 13.0 | 0.00 | 0.01 | 0.01 | 55 | 1014.8 |
| 20260830110000 | 77 | 219 | 7.0 | 13.0 | 0.00 | 0.01 | 0.01 | 54 | 1014.8 |
| 20260830105900 | 77 | 292 | 7.0 | 13.0 | 0.00 | 0.01 | 0.01 | 55 | 1014.8 |
| 20260830105800 | 77 | 266 | 6.0 | 13.0 | 0.00 | 0.01 | 0.01 | 55 | 1014.9 |
| 20260830105700 | 77 | 305 | 6.0 | 13.0 | 0.00 | 0.01 | 0.01 | 55 | 1014.9 |
| 20260830105600 | 77 | 286 | 6.0 | 13.0 | 0.00 | 0.01 | 0.01 | 55 | 1014.9 |
| 20260830105501 | 77 | 271 | 5.0 | 13.0 | 0.00 | 0.01 | 0.01 | 57 | 1014.9 |
| 20260830105400 | 77 | 271 | 5.0 | 11.0 | 0.00 | 0.01 | 0.01 | 58 | 1014.9 |
| 20260830105300 | 77 | 229 | 5.0 | 11.0 | 0.00 | 0.01 | 0.01 | 57 | 1014.9 |
| 20260830105201 | 77 | 261 | 6.0 | 11.0 | 0.00 | 0.01 | 0.01 | 58 | 1014.9 |
| 20260830105101 | 77 | 295 | 6.0 | 11.0 | 0.00 | 0.01 | 0.01 | 57 | 1014.9 |
| 20260830105001 | 77 | 240 | 6.0 | 11.0 | 0.00 | 0.01 | 0.01 | 58 | 1014.9 |
| 20260830104901 | 76 | 284 | 5.0 | 11.0 | 0.00 | 0.01 | 0.01 | 57 | 1015.0 |
| 20260830104801 | 76 | 217 | 5.0 | 9.0 | 0.00 | 0.01 | 0.01 | 58 | 1015.0 |
| 20260830104701 | 76 | 212 | 6.0 | 9.0 | 0.00 | 0.01 | 0.01 | 58 | 1015.0 |
| 20260830104604 | 76 | 260 | 6.0 | 9.0 | 0.00 | 0.01 | 0.01 | 58 | 1015.0 |
| 20260830104505 | 76 | 275 | 6.0 | 9.0 | 0.00 | 0.01 | 0.01 | 58 | 1015.0 |
| 20260830104422 | 76 | 281 | 6.0 | 9.0 | 0.00 | 0.01 | 0.01 | 57 | 1015.0 |
| 20260830104418 | 76 | 265 | 6.0 | 10.0 | 0.00 | 0.01 | 0.01 | 58 | 1015.0 |
| 20260830104414 | 76 | 261 | 6.0 | 10.0 | 0.00 | 0.01 | 0.01 | 57 | 1015.0 |
| 20260830104101 | 76 | 257 | 6.0 | 11.0 | 0.00 | 0.01 | 0.01 | 58 | 1015.0 |
| 20260830104000 | 76 | 288 | 6.0 | 11.0 | 0.00 | 0.01 | 0.01 | 57 | 1015.0 |
| 20260830103901 | 76 | 280 | 6.0 | 11.0 | 0.00 | 0.01 | 0.01 | 58 | 1015.0 |
| 20260830103801 | 76 | 300 | 6.0 | 11.0 | 0.00 | 0.01 | 0.01 | 57 | 1015.1 |
| 20260830103700 | 76 | 251 | 6.0 | 11.0 | 0.00 | 0.01 | 0.01 | 59 | 1015.1 |
| 20260830103601 | 76 | 255 | 6.0 | 11.0 | 0.00 | 0.01 | 0.01 | 57 | 1015.0 |
| 20260830103501 | 76 | 273 | 6.0 | 11.0 | 0.00 | 0.01 | 0.01 | 57 | 1015.1 |
| 20260830103401 | 76 | 221 | 6.0 | 11.0 | 0.00 | 0.01 | 0.01 | 57 | 1015.1 |
| 20260830103301 | 76 | 284 | 6.0 | 11.0 | 0.00 | 0.01 | 0.01 | 57 | 1015.0 |
| 20260830103201 | 76 | 244 | 6.0 | 11.0 | 0.00 | 0.01 | 0.01 | 58 | 1015.1 |
| 20260830103101 | 76 | 241 | 7.0 | 11.0 | 0.00 | 0.01 | 0.01 | 57 | 1015.0 |
| 20260830103001 | 76 | 301 | 6.0 | 11.0 | 0.00 | 0.01 | 0.01 | 58 | 1015.1 |
| 20260830102901 | 75 | 308 | 6.0 | 11.0 | 0.00 | 0.01 | 0.01 | 58 | 1015.1 |
| 20260830102801 | 75 | 268 | 6.0 | 11.0 | 0.00 | 0.01 | 0.01 | 58 | 1015.1 |
| 20260830102700 | 75 | 282 | 6.0 | 11.0 | 0.00 | 0.01 | 0.01 | 58 | 1015.0 |
| 20260830102600 | 75 | 265 | 6.0 | 11.0 | 0.00 | 0.01 | 0.01 | 57 | 1015.1 |
| 20260830102500 | 75 | 279 | 5.0 | 11.0 | 0.00 | 0.01 | 0.01 | 59 | 1015.1 |
| 20260830102421 | 75 | 265 | 5.0 | 11.0 | 0.00 | 0.01 | 0.01 | 59 | 1015.2 |
| 20260830102417 | 75 | 304 | 5.0 | 14.0 | 0.00 | 0.01 | 0.01 | 59 | 1015.1 |
| 20260830102413 | 75 | 252 | 5.0 | 14.0 | 0.00 | 0.01 | 0.01 | 59 | 1015.2 |
| 20260830102100 | 75 | 235 | 6.0 | 14.0 | 0.00 | 0.01 | 0.01 | 58 | 1015.2 |
| 20260830102001 | 75 | 288 | 6.0 | 14.0 | 0.00 | 0.01 | 0.01 | 58 | 1015.2 |
| 20260830101924 | 75 | 223 | 7.0 | 14.0 | 0.00 | 0.01 | 0.01 | 58 | 1015.2 |
| 20260830101918 | 75 | 221 | 6.0 | 14.0 | 0.00 | 0.01 | 0.01 | 59 | 1015.2 |
| 20260830101914 | 75 | 231 | 6.0 | 14.0 | 0.00 | 0.01 | 0.01 | 59 | 1015.2 |
| 20260830101659 | 75 | 223 | 7.0 | 14.0 | 0.00 | 0.01 | 0.01 | 59 | 1015.2 |
| 20260830101557 | 75 | 250 | 7.0 | 14.0 | 0.00 | 0.01 | 0.01 | 59 | 1015.2 |
| 20260830101457 | 75 | 271 | 7.0 | 14.0 | 0.00 | 0.01 | 0.01 | 59 | 1015.3 |
| 20260830101357 | 75 | 237 | 7.0 | 14.0 | 0.00 | 0.01 | 0.01 | 59 | 1015.3 |
| 20260830101257 | 75 | 244 | 7.0 | 13.0 | 0.00 | 0.01 | 0.01 | 58 | 1015.3 |
| 20260830101201 | 75 | 256 | 7.0 | 13.0 | 0.00 | 0.01 | 0.01 | 58 | 1015.3 |
| 20260830101157 | 75 | 214 | 7.0 | 13.0 | 0.00 | 0.01 | 0.01 | 58 | 1015.3 |
| 20260830101057 | 74 | 225 | 7.0 | 14.0 | 0.00 | 0.01 | 0.01 | 57 | 1015.3 |
| 20260830100952 | 74 | 242 | 7.0 | 14.0 | 0.00 | 0.01 | 0.01 | 58 | 1015.3 |
| 20260830100853 | 74 | 233 | 7.0 | 14.0 | 0.00 | 0.01 | 0.01 | 59 | 1015.4 |
| 20260830100752 | 74 | 229 | 7.0 | 14.0 | 0.00 | 0.01 | 0.01 | 57 | 1015.3 |
| 20260830100700 | 74 | 194 | 7.0 | 14.0 | 0.00 | 0.01 | 0.01 | 58 | 1015.3 |
| 20260830100652 | 74 | 191 | 7.0 | 14.0 | 0.00 | 0.01 | 0.01 | 58 | 1015.3 |
| 20260830100553 | 74 | 198 | 7.0 | 14.0 | 0.00 | 0.01 | 0.01 | 60 | 1015.3 |
| 20260830100453 | 74 | 308 | 7.0 | 14.0 | 0.00 | 0.01 | 0.01 | 60 | 1015.3 |
| 20260830100422 | 74 | 188 | 7.0 | 14.0 | 0.00 | 0.01 | 0.01 | 58 | 1015.3 |
| 20260830100416 | 74 | 264 | 6.0 | 14.0 | 0.00 | 0.01 | 0.01 | 58 | 1015.3 |
| 20260830100413 | 74 | 228 | 7.0 | 14.0 | 0.00 | 0.01 | 0.01 | 59 | 1015.3 |
| 20260830100153 | 74 | 234 | 7.0 | 14.0 | 0.00 | 0.01 | 0.01 | 58 | 1015.3 |
| 20260830100052 | 74 | 205 | 7.0 | 14.0 | 0.00 | 0.01 | 0.01 | 59 | 1015.3 |
| 20260830095953 | 74 | 205 | 7.0 | 14.0 | 0.00 | 0.01 | 0.01 | 59 | 1015.3 |
| 20260830095853 | 74 | 215 | 7.0 | 14.0 | 0.00 | 0.01 | 0.01 | 59 | 1015.3 |
| 20260830095752 | 74 | 205 | 7.0 | 14.0 | 0.00 | 0.01 | 0.01 | 59 | 1015.3 |
| 20260830095700 | 74 | 255 | 7.0 | 14.0 | 0.00 | 0.01 | 0.01 | 60 | 1015.3 |
| 20260830095652 | 74 | 222 | 7.0 | 14.0 | 0.00 | 0.01 | 0.01 | 60 | 1015.3 |
| 20260830095553 | 74 | 269 | 7.0 | 14.0 | 0.00 | 0.01 | 0.01 | 59 | 1015.3 |
| 20260830095453 | 74 | 226 | 7.0 | 14.0 | 0.00 | 0.01 | 0.01 | 59 | 1015.3 |
| 20260830095426 | 74 | 284 | 6.0 | 14.0 | 0.00 | 0.01 | 0.01 | 60 | 1015.4 |
| 20260830095416 | 74 | 266 | 7.0 | 14.0 | 0.00 | 0.01 | 0.01 | 59 | 1015.3 |
| 20260830095412 | 74 | 275 | 7.0 | 14.0 | 0.00 | 0.01 | 0.01 | 60 | 1015.3 |
| 20260830095149 | 74 | 288 | 6.0 | 14.0 | 0.00 | 0.01 | 0.01 | 60 | 1015.4 |
| 20260830095049 | 74 | 275 | 6.0 | 12.0 | 0.00 | 0.01 | 0.01 | 61 | 1015.4 |
| 20260830094946 | 74 | 249 | 6.0 | 11.0 | 0.00 | 0.01 | 0.01 | 60 | 1015.3 |
| 20260830094847 | 74 | 252 | 6.0 | 12.0 | 0.00 | 0.01 | 0.01 | 61 | 1015.4 |
| 20260830094747 | 74 | 298 | 6.0 | 12.0 | 0.00 | 0.01 | 0.01 | 61 | 1015.4 |
| 20260830094702 | 74 | 263 | 6.0 | 12.0 | 0.00 | 0.01 | 0.01 | 61 | 1015.4 |
| 20260830094646 | 74 | 259 | 6.0 | 12.0 | 0.00 | 0.01 | 0.01 | 61 | 1015.4 |
| 20260830094546 | 74 | 284 | 6.0 | 12.0 | 0.00 | 0.01 | 0.01 | 60 | 1015.4 |
| 20260830094446 | 74 | 195 | 6.0 | 12.0 | 0.00 | 0.01 | 0.01 | 60 | 1015.4 |
| 20260830094346 | 74 | 217 | 6.0 | 12.0 | 0.00 | 0.01 | 0.01 | 61 | 1015.4 |
| 20260830094246 | 74 | 230 | 6.0 | 12.0 | 0.00 | 0.01 | 0.01 | 61 | 1015.4 |
| 20260830094200 | 74 | 257 | 6.0 | 12.0 | 0.00 | 0.01 | 0.01 | 61 | 1015.4 |
| 20260830094147 | 74 | 271 | 6.0 | 12.0 | 0.00 | 0.01 | 0.01 | 61 | 1015.4 |
| 20260830094047 | 74 | 217 | 6.0 | 12.0 | 0.00 | 0.01 | 0.01 | 61 | 1015.4 |
| 20260830093945 | 74 | 254 | 6.0 | 12.0 | 0.00 | 0.01 | 0.01 | 61 | 1015.4 |
| 20260830093845 | 73 | 272 | 6.0 | 11.0 | 0.00 | 0.01 | 0.01 | 62 | 1015.4 |
| 20260830093745 | 73 | 313 | 6.0 | 11.0 | 0.00 | 0.01 | 0.01 | 60 | 1015.4 |
| 20260830093701 | 73 | 220 | 6.0 | 11.0 | 0.00 | 0.01 | 0.01 | 62 | 1015.4 |
| 20260830093645 | 73 | 194 | 6.0 | 11.0 | 0.00 | 0.01 | 0.01 | 61 | 1015.4 |
| 20260830093541 | 73 | 227 | 6.0 | 11.0 | 0.00 | 0.01 | 0.01 | 62 | 1015.4 |
| 20260830093440 | 73 | 252 | 6.0 | 11.0 | 0.00 | 0.01 | 0.01 | 62 | 1015.4 |
| 20260830093338 | 73 | 226 | 6.0 | 11.0 | 0.00 | 0.01 | 0.01 | 61 | 1015.4 |
| 20260830093239 | 73 | 215 | 6.0 | 11.0 | 0.00 | 0.01 | 0.01 | 61 | 1015.4 |
| 20260830093200 | 73 | 216 | 5.0 | 11.0 | 0.00 | 0.01 | 0.01 | 63 | 1015.4 |
| 20260830093151 | 73 | 211 | 5.0 | 11.0 | 0.00 | 0.01 | 0.01 | 61 | 1015.4 |
| 20260830093147 | 73 | 233 | 5.0 | 11.0 | 0.00 | 0.01 | 0.01 | 62 | 1015.4 |
| 20260830093143 | 73 | 211 | 5.0 | 11.0 | 0.00 | 0.01 | 0.01 | 63 | 1015.5 |
| 20260830093139 | 73 | 215 | 5.0 | 11.0 | 0.00 | 0.01 | 0.01 | 63 | 1015.4 |
| 20260830092915 | 73 | 276 | 5.0 | 11.0 | 0.00 | 0.01 | 0.01 | 61 | 1015.5 |
| 20260830092911 | 73 | 224 | 5.0 | 11.0 | 0.00 | 0.01 | 0.01 | 62 | 1015.4 |
| 20260830092639 | 73 | 232 | 5.0 | 11.0 | 0.00 | 0.01 | 0.01 | 62 | 1015.4 |
| 20260830092539 | 73 | 229 | 5.0 | 11.0 | 0.00 | 0.01 | 0.01 | 63 | 1015.5 |
| 20260830092439 | 73 | 223 | 5.0 | 11.0 | 0.00 | 0.01 | 0.01 | 62 | 1015.4 |
| 20260830092425 | 73 | 250 | 6.0 | 11.0 | 0.00 | 0.01 | 0.01 | 62 | 1015.5 |
| 20260830092416 | 73 | 279 | 6.0 | 11.0 | 0.00 | 0.01 | 0.01 | 62 | 1015.4 |
| 20260830092412 | 73 | 249 | 6.0 | 11.0 | 0.00 | 0.01 | 0.01 | 62 | 1015.4 |
| 20260830092134 | 73 | 256 | 6.0 | 11.0 | 0.00 | 0.01 | 0.01 | 62 | 1015.5 |
| 20260830092034 | 73 | 233 | 6.0 | 11.0 | 0.00 | 0.01 | 0.01 | 61 | 1015.5 |
| 20260830091934 | 73 | 208 | 6.0 | 11.0 | 0.00 | 0.01 | 0.01 | 61 | 1015.5 |
| 20260830091927 | 73 | 221 | 7.0 | 11.0 | 0.00 | 0.01 | 0.01 | 62 | 1015.5 |
| 20260830091917 | 73 | 276 | 6.0 | 11.0 | 0.00 | 0.01 | 0.01 | 62 | 1015.4 |
| 20260830091913 | 73 | 222 | 6.0 | 11.0 | 0.00 | 0.01 | 0.01 | 62 | 1015.4 |
| 20260830091635 | 73 | 213 | 7.0 | 12.0 | 0.00 | 0.01 | 0.01 | 62 | 1015.5 |
| 20260830091535 | 72 | 253 | 7.0 | 12.0 | 0.00 | 0.01 | 0.01 | 62 | 1015.5 |
| 20260830091435 | 73 | 277 | 7.0 | 12.0 | 0.00 | 0.01 | 0.01 | 62 | 1015.4 |
| 20260830091335 | 72 | 282 | 7.0 | 12.0 | 0.00 | 0.01 | 0.01 | 62 | 1015.5 |
| 20260830091235 | 72 | 228 | 7.0 | 15.0 | 0.00 | 0.01 | 0.01 | 62 | 1015.5 |
| 20260830091200 | 72 | 279 | 7.0 | 15.0 | 0.00 | 0.01 | 0.01 | 62 | 1015.5 |
| 20260830091135 | 72 | 261 | 7.0 | 15.0 | 0.00 | 0.01 | 0.01 | 62 | 1015.5 |
| 20260830091035 | 72 | 202 | 7.0 | 15.0 | 0.00 | 0.01 | 0.01 | 62 | 1015.5 |
| 20260830090934 | 72 | 248 | 7.0 | 15.0 | 0.00 | 0.01 | 0.01 | 63 | 1015.5 |
| 20260830090836 | 72 | 267 | 7.0 | 15.0 | 0.00 | 0.01 | 0.01 | 63 | 1015.5 |
| 20260830090734 | 72 | 257 | 7.0 | 15.0 | 0.00 | 0.01 | 0.01 | 63 | 1015.6 |
| 20260830090701 | 72 | 227 | 7.0 | 15.0 | 0.00 | 0.01 | 0.01 | 63 | 1015.6 |
| 20260830090634 | 72 | 237 | 7.0 | 15.0 | 0.00 | 0.01 | 0.01 | 62 | 1015.6 |
| 20260830090534 | 72 | 236 | 7.0 | 15.0 | 0.00 | 0.01 | 0.01 | 63 | 1015.6 |
| 20260830090431 | 72 | 233 | 7.0 | 15.0 | 0.00 | 0.01 | 0.01 | 62 | 1015.6 |
| 20260830090330 | 72 | 192 | 7.0 | 15.0 | 0.00 | 0.01 | 0.01 | 64 | 1015.6 |
| 20260830090231 | 72 | 282 | 7.0 | 13.0 | 0.00 | 0.01 | 0.01 | 64 | 1015.6 |
| 20260830090200 | 72 | 255 | 7.0 | 13.0 | 0.00 | 0.01 | 0.01 | 64 | 1015.6 |
| 20260830090131 | 72 | 238 | 7.0 | 13.0 | 0.00 | 0.01 | 0.01 | 63 | 1015.6 |
| 20260830090032 | 72 | 255 | 7.0 | 13.0 | 0.00 | 0.01 | 0.01 | 63 | 1015.6 |
| 20260830085931 | 72 | 254 | 7.0 | 13.0 | 0.00 | 0.01 | 0.01 | 63 | 1015.6 |
| 20260830085831 | 72 | 267 | 6.0 | 12.0 | 0.00 | 0.01 | 0.01 | 63 | 1015.7 |
| 20260830085731 | 72 | 259 | 6.0 | 12.0 | 0.00 | 0.01 | 0.01 | 65 | 1015.6 |
| 20260830085700 | 72 | 290 | 6.0 | 12.0 | 0.00 | 0.01 | 0.01 | 65 | 1015.7 |
| 20260830085631 | 71 | 251 | 6.0 | 12.0 | 0.00 | 0.01 | 0.01 | 67 | 1015.7 |
| 20260830085530 | 71 | 213 | 6.0 | 12.0 | 0.00 | 0.01 | 0.01 | 66 | 1015.7 |
| 20260830085429 | 71 | 274 | 6.0 | 12.0 | 0.00 | 0.01 | 0.01 | 66 | 1015.6 |
| 20260830085329 | 71 | 267 | 6.0 | 11.0 | 0.00 | 0.01 | 0.01 | 65 | 1015.6 |
| 20260830085229 | 71 | 214 | 6.0 | 11.0 | 0.00 | 0.01 | 0.01 | 65 | 1015.6 |
| 20260830085201 | 71 | 227 | 7.0 | 11.0 | 0.00 | 0.01 | 0.01 | 65 | 1015.6 |
| 20260830085146 | 71 | 274 | 7.0 | 12.0 | 0.00 | 0.01 | 0.01 | 66 | 1015.6 |
| 20260830085142 | 71 | 242 | 7.0 | 11.0 | 0.00 | 0.01 | 0.01 | 65 | 1015.6 |
| 20260830085138 | 71 | 277 | 7.0 | 11.0 | 0.00 | 0.01 | 0.01 | 66 | 1015.6 |
| 20260830085134 | 71 | 300 | 7.0 | 11.0 | 0.00 | 0.01 | 0.01 | 65 | 1015.6 |
| 20260830084915 | 71 | 271 | 7.0 | 12.0 | 0.00 | 0.01 | 0.01 | 66 | 1015.5 |
| 20260830084911 | 71 | 290 | 7.0 | 12.0 | 0.00 | 0.01 | 0.01 | 66 | 1015.6 |
| 20260830084629 | 71 | 271 | 7.0 | 12.0 | 0.00 | 0.01 | 0.01 | 66 | 1015.6 |
| 20260830084526 | 71 | 260 | 7.0 | 12.0 | 0.00 | 0.01 | 0.01 | 66 | 1015.6 |
| 20260830084430 | 71 | 262 | 8.0 | 15.0 | 0.00 | 0.01 | 0.01 | 66 | 1015.5 |
| 20260830084426 | 71 | 285 | 7.0 | 12.0 | 0.00 | 0.01 | 0.01 | 66 | 1015.6 |
| 20260830084416 | 71 | 265 | 8.0 | 15.0 | 0.00 | 0.01 | 0.01 | 67 | 1015.6 |
| 20260830084412 | 71 | 272 | 8.0 | 15.0 | 0.00 | 0.01 | 0.01 | 66 | 1015.6 |
| 20260830084127 | 71 | 273 | 8.0 | 15.0 | 0.00 | 0.01 | 0.01 | 66 | 1015.5 |
| 20260830084026 | 71 | 292 | 8.0 | 15.0 | 0.00 | 0.01 | 0.01 | 66 | 1015.6 |
| 20260830083926 | 71 | 260 | 9.0 | 15.0 | 0.00 | 0.01 | 0.01 | 67 | 1015.6 |
| 20260830083827 | 70 | 264 | 8.0 | 15.0 | 0.00 | 0.01 | 0.01 | 66 | 1015.6 |
| 20260830083727 | 70 | 281 | 9.0 | 15.0 | 0.00 | 0.01 | 0.01 | 67 | 1015.6 |
| 20260830083700 | 70 | 286 | 9.0 | 15.0 | 0.00 | 0.01 | 0.01 | 66 | 1015.6 |
| 20260830083627 | 70 | 279 | 9.0 | 15.0 | 0.00 | 0.01 | 0.01 | 66 | 1015.6 |
| 20260830083526 | 70 | 273 | 9.0 | 15.0 | 0.00 | 0.01 | 0.01 | 66 | 1015.6 |
| 20260830083426 | 70 | 281 | 9.0 | 15.0 | 0.00 | 0.01 | 0.01 | 66 | 1015.6 |
| 20260830083326 | 70 | 259 | 9.0 | 14.0 | 0.00 | 0.01 | 0.01 | 67 | 1015.6 |
| 20260830083226 | 70 | 250 | 8.0 | 14.0 | 0.00 | 0.01 | 0.01 | 66 | 1015.6 |
| 20260830083201 | 70 | 246 | 8.0 | 14.0 | 0.00 | 0.01 | 0.01 | 66 | 1015.6 |
| 20260830083127 | 70 | 279 | 8.0 | 14.0 | 0.00 | 0.01 | 0.01 | 67 | 1015.6 |
| 20260830083026 | 70 | 244 | 8.0 | 14.0 | 0.00 | 0.01 | 0.01 | 67 | 1015.6 |
| 20260830082927 | 70 | 281 | 8.0 | 14.0 | 0.00 | 0.01 | 0.01 | 67 | 1015.6 |
| 20260830082827 | 70 | 254 | 8.0 | 14.0 | 0.00 | 0.01 | 0.01 | 66 | 1015.6 |
| 20260830082727 | 70 | 200 | 8.0 | 14.0 | 0.00 | 0.01 | 0.01 | 67 | 1015.7 |
| 20260830082700 | 70 | 234 | 8.0 | 14.0 | 0.00 | 0.01 | 0.01 | 67 | 1015.7 |
| 20260830082623 | 70 | 277 | 8.0 | 14.0 | 0.00 | 0.01 | 0.01 | 66 | 1015.5 |
| 20260830082522 | 70 | 257 | 8.0 | 14.0 | 0.00 | 0.01 | 0.01 | 67 | 1015.6 |
| 20260830082422 | 70 | 271 | 8.0 | 13.0 | 0.00 | 0.01 | 0.01 | 67 | 1015.6 |
| 20260830082322 | 70 | 218 | 8.0 | 13.0 | 0.00 | 0.01 | 0.01 | 67 | 1015.6 |
| 20260830082222 | 70 | 252 | 8.0 | 13.0 | 0.00 | 0.01 | 0.01 | 67 | 1015.6 |
| 20260830082201 | 70 | 259 | 7.0 | 13.0 | 0.00 | 0.01 | 0.01 | 67 | 1015.6 |
| 20260830082122 | 70 | 278 | 7.0 | 13.0 | 0.00 | 0.01 | 0.01 | 68 | 1015.6 |
| 20260830082022 | 70 | 228 | 7.0 | 13.0 | 0.00 | 0.01 | 0.01 | 68 | 1015.7 |
| 20260830081922 | 70 | 256 | 7.0 | 13.0 | 0.00 | 0.01 | 0.01 | 68 | 1015.7 |
| 20260830081822 | 70 | 229 | 7.0 | 13.0 | 0.00 | 0.01 | 0.01 | 68 | 1015.7 |
| 20260830081722 | 70 | 229 | 7.0 | 13.0 | 0.00 | 0.01 | 0.01 | 68 | 1015.6 |
| 20260830081702 | 70 | 290 | 8.0 | 13.0 | 0.00 | 0.01 | 0.01 | 68 | 1015.6 |
| 20260830081623 | 70 | 256 | 8.0 | 13.0 | 0.00 | 0.01 | 0.01 | 68 | 1015.7 |
| 20260830081524 | 70 | 260 | 8.0 | 13.0 | 0.00 | 0.01 | 0.01 | 67 | 1015.6 |
| 20260830081423 | 70 | 279 | 8.0 | 13.0 | 0.00 | 0.01 | 0.01 | 68 | 1015.7 |
| 20260830081323 | 70 | 269 | 8.0 | 13.0 | 0.00 | 0.01 | 0.01 | 68 | 1015.7 |
| 20260830081223 | 70 | 248 | 8.0 | 16.0 | 0.00 | 0.01 | 0.01 | 68 | 1015.7 |
| 20260830081200 | 70 | 255 | 8.0 | 16.0 | 0.00 | 0.01 | 0.01 | 68 | 1015.7 |
| 20260830081123 | 70 | 282 | 8.0 | 16.0 | 0.00 | 0.01 | 0.01 | 68 | 1015.7 |
| 20260830081022 | 70 | 275 | 9.0 | 16.0 | 0.00 | 0.01 | 0.01 | 67 | 1015.7 |
| 20260830080922 | 69 | 271 | 9.0 | 16.0 | 0.00 | 0.01 | 0.01 | 68 | 1015.7 |
| 20260830080823 | 69 | 267 | 9.0 | 16.0 | 0.00 | 0.01 | 0.01 | 67 | 1015.7 |
| 20260830080719 | 69 | 262 | 8.0 | 16.0 | 0.00 | 0.01 | 0.01 | 68 | 1015.7 |
| 20260830080701 | 69 | 288 | 8.0 | 16.0 | 0.00 | 0.01 | 0.01 | 68 | 1015.7 |
| 20260830080618 | 69 | 250 | 8.0 | 16.0 | 0.00 | 0.01 | 0.01 | 68 | 1015.7 |
| 20260830080519 | 69 | 221 | 8.0 | 16.0 | 0.00 | 0.01 | 0.01 | 68 | 1015.7 |
| 20260830080418 | 69 | 265 | 8.0 | 16.0 | 0.00 | 0.01 | 0.01 | 68 | 1015.7 |
| 20260830080318 | 69 | 220 | 7.0 | 16.0 | 0.00 | 0.01 | 0.01 | 67 | 1015.7 |
| 20260830080218 | 69 | 195 | 7.0 | 15.0 | 0.00 | 0.01 | 0.01 | 67 | 1015.6 |
| 20260830080201 | 69 | 235 | 7.0 | 14.0 | 0.00 | 0.01 | 0.01 | 67 | 1015.6 |
| 20260830080118 | 69 | 270 | 7.0 | 14.0 | 0.00 | 0.01 | 0.01 | 68 | 1015.7 |
| 20260830080019 | 69 | 227 | 7.0 | 14.0 | 0.00 | 0.01 | 0.01 | 68 | 1015.7 |
| 20260830075919 | 69 | 286 | 7.0 | 14.0 | 0.00 | 0.01 | 0.01 | 69 | 1015.7 |
| 20260830075818 | 69 | 244 | 7.0 | 14.0 | 0.00 | 0.01 | 0.01 | 69 | 1015.7 |
| 20260830075718 | 69 | 265 | 7.0 | 14.0 | 0.00 | 0.01 | 0.01 | 69 | 1015.7 |
| 20260830075701 | 69 | 246 | 7.0 | 14.0 | 0.00 | 0.01 | 0.01 | 69 | 1015.7 |
| 20260830075619 | 69 | 288 | 7.0 | 14.0 | 0.00 | 0.01 | 0.01 | 69 | 1015.7 |
| 20260830075519 | 69 | 245 | 7.0 | 14.0 | 0.00 | 0.01 | 0.01 | 68 | 1015.7 |
| 20260830075418 | 69 | 267 | 7.0 | 14.0 | 0.00 | 0.01 | 0.01 | 69 | 1015.7 |
| 20260830075315 | 69 | 272 | 7.0 | 14.0 | 0.00 | 0.01 | 0.01 | 69 | 1015.7 |
| 20260830075212 | 69 | 269 | 7.0 | 14.0 | 0.00 | 0.01 | 0.01 | 68 | 1015.7 |
| 20260830075201 | 69 | 259 | 7.0 | 14.0 | 0.00 | 0.01 | 0.01 | 68 | 1015.7 |
| 20260830075112 | 69 | 215 | 7.0 | 14.0 | 0.00 | 0.01 | 0.01 | 69 | 1015.7 |
| 20260830075012 | 69 | 225 | 7.0 | 13.0 | 0.00 | 0.01 | 0.01 | 68 | 1015.7 |
| 20260830074912 | 69 | 271 | 8.0 | 15.0 | 0.00 | 0.01 | 0.01 | 69 | 1015.7 |
| 20260830074812 | 69 | 227 | 7.0 | 16.0 | 0.00 | 0.01 | 0.01 | 69 | 1015.7 |
| 20260830074712 | 69 | 243 | 8.0 | 16.0 | 0.00 | 0.01 | 0.01 | 70 | 1015.7 |
| 20260830074701 | 69 | 202 | 8.0 | 16.0 | 0.00 | 0.01 | 0.01 | 70 | 1015.7 |
| 20260830074613 | 69 | 251 | 7.0 | 16.0 | 0.00 | 0.01 | 0.01 | 70 | 1015.7 |
| 20260830074511 | 69 | 308 | 8.0 | 16.0 | 0.00 | 0.01 | 0.01 | 70 | 1015.7 |
| 20260830074411 | 69 | 236 | 8.0 | 16.0 | 0.00 | 0.01 | 0.01 | 69 | 1015.6 |
| 20260830074310 | 69 | 272 | 8.0 | 16.0 | 0.00 | 0.01 | 0.01 | 69 | 1015.7 |
| 20260830074210 | 69 | 269 | 8.0 | 16.0 | 0.00 | 0.01 | 0.01 | 69 | 1015.7 |
| 20260830074201 | 69 | 234 | 8.0 | 16.0 | 0.00 | 0.01 | 0.01 | 69 | 1015.7 |
| 20260830074110 | 69 | 267 | 8.0 | 16.0 | 0.00 | 0.01 | 0.01 | 69 | 1015.7 |
| 20260830074010 | 69 | 235 | 8.0 | 16.0 | 0.00 | 0.01 | 0.01 | 70 | 1015.7 |
| 20260830073910 | 69 | 227 | 8.0 | 15.0 | 0.00 | 0.01 | 0.01 | 70 | 1015.6 |
| 20260830073806 | 69 | 250 | 8.0 | 14.0 | 0.00 | 0.01 | 0.01 | 70 | 1015.7 |
| 20260830073701 | 69 | 247 | 8.0 | 14.0 | 0.00 | 0.01 | 0.01 | 71 | 1015.7 |
| 20260830073606 | 68 | 246 | 8.0 | 14.0 | 0.00 | 0.01 | 0.01 | 71 | 1015.7 |
| 20260830073504 | 68 | 225 | 8.0 | 14.0 | 0.00 | 0.01 | 0.01 | 70 | 1015.6 |
| 20260830073405 | 68 | 269 | 8.0 | 14.0 | 0.00 | 0.01 | 0.01 | 71 | 1015.6 |
| 20260830073304 | 68 | 252 | 8.0 | 14.0 | 0.00 | 0.01 | 0.01 | 71 | 1015.7 |
| 20260830073205 | 68 | 269 | 7.0 | 14.0 | 0.00 | 0.01 | 0.01 | 70 | 1015.7 |
| 20260830073201 | 68 | 277 | 7.0 | 14.0 | 0.00 | 0.01 | 0.01 | 70 | 1015.7 |
| 20260830073105 | 68 | 225 | 7.0 | 14.0 | 0.00 | 0.01 | 0.01 | 70 | 1015.6 |
| 20260830073005 | 68 | 270 | 7.0 | 14.0 | 0.00 | 0.01 | 0.01 | 70 | 1015.8 |
| 20260830072902 | 68 | 220 | 6.0 | 14.0 | 0.00 | 0.01 | 0.01 | 71 | 1015.7 |
| 20260830072802 | 68 | 219 | 6.0 | 11.0 | 0.00 | 0.01 | 0.01 | 71 | 1015.6 |
| 20260830072700 | 68 | 259 | 6.0 | 11.0 | 0.00 | 0.01 | 0.01 | 71 | 1015.6 |
| 20260830072601 | 68 | 273 | 6.0 | 11.0 | 0.00 | 0.01 | 0.01 | 71 | 1015.6 |
| 20260830072501 | 68 | 259 | 6.0 | 11.0 | 0.00 | 0.01 | 0.01 | 71 | 1015.6 |
| 20260830072425 | 68 | 241 | 6.0 | 11.0 | 0.00 | 0.01 | 0.01 | 72 | 1015.6 |
| 20260830072418 | 68 | 296 | 5.0 | 11.0 | 0.00 | 0.01 | 0.01 | 72 | 1015.6 |
| 20260830072414 | 67 | 252 | 6.0 | 10.0 | 0.00 | 0.01 | 0.01 | 71 | 1015.6 |
| 20260830072101 | 67 | 226 | 6.0 | 15.0 | 0.00 | 0.01 | 0.01 | 72 | 1015.6 |
| 20260830072001 | 67 | 218 | 6.0 | 15.0 | 0.00 | 0.01 | 0.01 | 72 | 1015.6 |
| 20260830071931 | 67 | 287 | 6.0 | 15.0 | 0.00 | 0.01 | 0.01 | 72 | 1015.6 |
| 20260830071927 | 67 | 223 | 7.0 | 15.0 | 0.00 | 0.01 | 0.01 | 72 | 1015.6 |
| 20260830071919 | 67 | 267 | 7.0 | 15.0 | 0.00 | 0.01 | 0.01 | 72 | 1015.6 |
| 20260830071910 | 67 | 257 | 6.0 | 15.0 | 0.00 | 0.01 | 0.01 | 72 | 1015.6 |
| 20260830071647 | 67 | 244 | 6.0 | 15.0 | 0.00 | 0.01 | 0.01 | 72 | 1015.6 |
| 20260830071643 | 67 | 236 | 7.0 | 15.0 | 0.00 | 0.01 | 0.01 | 72 | 1015.6 |
| 20260830071425 | 67 | 210 | 6.0 | 15.0 | 0.00 | 0.01 | 0.01 | 72 | 1015.6 |
| 20260830071418 | 67 | 202 | 6.0 | 15.0 | 0.00 | 0.01 | 0.01 | 72 | 1015.6 |
| 20260830071414 | 67 | 287 | 6.0 | 15.0 | 0.00 | 0.01 | 0.01 | 72 | 1015.6 |
| 20260830071101 | 67 | 229 | 6.0 | 15.0 | 0.00 | 0.01 | 0.01 | 73 | 1015.6 |
| 20260830071001 | 67 | 274 | 6.0 | 12.0 | 0.00 | 0.01 | 0.01 | 73 | 1015.6 |
| 20260830070924 | 67 | 282 | 6.0 | 12.0 | 0.00 | 0.01 | 0.01 | 74 | 1015.6 |
| 20260830070916 | 67 | 271 | 6.0 | 12.0 | 0.00 | 0.01 | 0.01 | 73 | 1015.6 |
| 20260830070912 | 67 | 264 | 6.0 | 12.0 | 0.00 | 0.01 | 0.01 | 73 | 1015.6 |
| 20260830070601 | 67 | 254 | 6.0 | 12.0 | 0.00 | 0.01 | 0.01 | 72 | 1015.6 |
| 20260830070501 | 66 | 230 | 6.0 | 12.0 | 0.00 | 0.01 | 0.01 | 74 | 1015.5 |
| 20260830070401 | 66 | 218 | 6.0 | 11.0 | 0.00 | 0.01 | 0.01 | 73 | 1015.5 |
| 20260830070300 | 66 | 244 | 5.0 | 11.0 | 0.00 | 0.01 | 0.01 | 73 | 1015.5 |
| 20260830070201 | 66 | 288 | 5.0 | 11.0 | 0.00 | 0.01 | 0.01 | 74 | 1015.5 |
| 20260830070101 | 66 | 278 | 4.0 | 9.0 | 0.00 | 0.01 | 0.01 | 74 | 1015.5 |
| 20260830070001 | 66 | 207 | 4.0 | 9.0 | 0.00 | 0.01 | 0.01 | 74 | 1015.5 |
| 20260830065901 | 66 | 253 | 4.0 | 9.0 | 0.00 | 0.01 | 0.01 | 74 | 1015.6 |
| 20260830065800 | 66 | 278 | 3.0 | 9.0 | 0.00 | 0.01 | 0.01 | 73 | 1015.6 |
| 20260830065700 | 66 | 203 | 3.0 | 9.0 | 0.00 | 0.01 | 0.01 | 75 | 1015.6 |
| 20260830065601 | 66 | 223 | 2.0 | 9.0 | 0.00 | 0.01 | 0.01 | 75 | 1015.6 |
| 20260830065501 | 66 | 273 | 2.0 | 7.0 | 0.00 | 0.01 | 0.01 | 75 | 1015.5 |
| 20260830065425 | 65 | 283 | 2.0 | 6.0 | 0.00 | 0.01 | 0.01 | 76 | 1015.6 |
| 20260830065417 | 65 | 284 | 2.0 | 7.0 | 0.00 | 0.01 | 0.01 | 76 | 1015.5 |
| 20260830065413 | 65 | 226 | 2.0 | 7.0 | 0.00 | 0.01 | 0.01 | 76 | 1015.5 |
| 20260830065101 | 65 | 226 | 3.0 | 7.0 | 0.00 | 0.01 | 0.01 | 76 | 1015.5 |
| 20260830065001 | 65 | 219 | 3.0 | 7.0 | 0.00 | 0.01 | 0.01 | 75 | 1015.5 |
| 20260830064902 | 65 | 219 | 3.0 | 7.0 | 0.00 | 0.01 | 0.01 | 76 | 1015.5 |
| 20260830064805 | 65 | 219 | 3.0 | 7.0 | 0.00 | 0.01 | 0.01 | 76 | 1015.5 |
| 20260830064700 | 65 | 243 | 3.0 | 7.0 | 0.00 | 0.01 | 0.01 | 76 | 1015.5 |
| 20260830064644 | 65 | 213 | 3.0 | 7.0 | 0.00 | 0.01 | 0.01 | 77 | 1015.5 |
| 20260830064636 | 65 | 243 | 3.0 | 7.0 | 0.00 | 0.01 | 0.01 | 76 | 1015.5 |
| 20260830064632 | 65 | 254 | 3.0 | 7.0 | 0.00 | 0.01 | 0.01 | 76 | 1015.5 |
| 20260830064628 | 65 | 255 | 3.0 | 7.0 | 0.00 | 0.01 | 0.01 | 76 | 1015.5 |
| 20260830064624 | 65 | 284 | 3.0 | 5.0 | 0.00 | 0.01 | 0.01 | 76 | 1015.6 |
| 20260830064616 | 65 | 234 | 2.0 | 5.0 | 0.00 | 0.01 | 0.01 | 76 | 1015.5 |
| 20260830064146 | 65 | 234 | 2.0 | 5.0 | 0.00 | 0.01 | 0.01 | 76 | 1015.5 |
| 20260830064142 | 65 | 234 | 2.0 | 5.0 | 0.00 | 0.01 | 0.01 | 76 | 1015.5 |
| 20260830063924 | 65 | 214 | 2.0 | 4.0 | 0.00 | 0.01 | 0.01 | 76 | 1015.5 |
| 20260830063920 | 65 | 213 | 2.0 | 6.0 | 0.00 | 0.01 | 0.01 | 76 | 1015.5 |
| 20260830063912 | 65 | 213 | 3.0 | 7.0 | 0.00 | 0.01 | 0.01 | 77 | 1015.5 |
| 20260830063601 | 65 | 212 | 3.0 | 7.0 | 0.00 | 0.01 | 0.01 | 76 | 1015.5 |
| 20260830063501 | 64 | 212 | 3.0 | 7.0 | 0.00 | 0.01 | 0.01 | 76 | 1015.5 |
| 20260830063401 | 64 | 212 | 3.0 | 7.0 | 0.00 | 0.01 | 0.01 | 78 | 1015.5 |
| 20260830063301 | 64 | 212 | 3.0 | 7.0 | 0.00 | 0.01 | 0.01 | 77 | 1015.5 |
| 20260830063201 | 64 | 208 | 3.0 | 7.0 | 0.00 | 0.01 | 0.01 | 77 | 1015.5 |
| 20260830063101 | 64 | 208 | 3.0 | 7.0 | 0.00 | 0.01 | 0.01 | 77 | 1015.5 |
| 20260830063001 | 64 | 208 | 3.0 | 7.0 | 0.00 | 0.01 | 0.01 | 77 | 1015.5 |
| 20260830062901 | 64 | 207 | 3.0 | 7.0 | 0.00 | 0.01 | 0.01 | 77 | 1015.5 |
| 20260830062801 | 64 | 265 | 3.0 | 7.0 | 0.00 | 0.01 | 0.01 | 77 | 1015.5 |
| 20260830062702 | 64 | 249 | 3.0 | 6.0 | 0.00 | 0.01 | 0.01 | 77 | 1015.5 |
| 20260830062602 | 64 | 230 | 3.0 | 6.0 | 0.00 | 0.01 | 0.01 | 78 | 1015.5 |
| 20260830062501 | 64 | 242 | 3.0 | 6.0 | 0.00 | 0.01 | 0.01 | 78 | 1015.5 |
| 20260830062401 | 64 | 273 | 3.0 | 6.0 | 0.00 | 0.01 | 0.01 | 78 | 1015.5 |
| 20260830062305 | 64 | 229 | 3.0 | 5.0 | 0.00 | 0.01 | 0.01 | 78 | 1015.5 |
| 20260830062201 | 64 | 246 | 3.0 | 5.0 | 0.00 | 0.01 | 0.01 | 78 | 1015.5 |
| 20260830062101 | 64 | 275 | 3.0 | 6.0 | 0.00 | 0.01 | 0.01 | 78 | 1015.5 |
| 20260830062001 | 64 | 261 | 3.0 | 6.0 | 0.00 | 0.01 | 0.01 | 78 | 1015.5 |
| 20260830061901 | 64 | 240 | 3.0 | 6.0 | 0.00 | 0.01 | 0.01 | 78 | 1015.5 |
| 20260830061801 | 64 | 233 | 3.0 | 6.0 | 0.00 | 0.01 | 0.01 | 78 | 1015.5 |
| 20260830061701 | 64 | 233 | 3.0 | 6.0 | 0.00 | 0.01 | 0.01 | 78 | 1015.5 |
| 20260830061601 | 63 | 259 | 3.0 | 6.0 | 0.00 | 0.01 | 0.01 | 79 | 1015.5 |
| 20260830061501 | 63 | 227 | 3.0 | 8.0 | 0.00 | 0.01 | 0.01 | 79 | 1015.5 |
| 20260830061401 | 63 | 260 | 3.0 | 8.0 | 0.00 | 0.01 | 0.01 | 79 | 1015.5 |
| 20260830061301 | 63 | 261 | 3.0 | 8.0 | 0.00 | 0.01 | 0.01 | 78 | 1015.5 |
| 20260830061201 | 63 | 254 | 3.0 | 8.0 | 0.00 | 0.01 | 0.01 | 79 | 1015.5 |
| 20260830061101 | 63 | 257 | 3.0 | 8.0 | 0.00 | 0.01 | 0.01 | 79 | 1015.5 |
| 20260830061001 | 63 | 262 | 3.0 | 8.0 | 0.00 | 0.01 | 0.01 | 78 | 1015.5 |
| 20260830060924 | 63 | 249 | 3.0 | 8.0 | 0.00 | 0.01 | 0.01 | 78 | 1015.5 |
| 20260830060920 | 63 | 247 | 3.0 | 8.0 | 0.00 | 0.01 | 0.01 | 79 | 1015.5 |
| 20260830060912 | 63 | 224 | 3.0 | 8.0 | 0.00 | 0.01 | 0.01 | 79 | 1015.5 |
| 20260830060601 | 63 | 235 | 3.0 | 8.0 | 0.00 | 0.01 | 0.01 | 79 | 1015.5 |
| 20260830060501 | 63 | 219 | 3.0 | 8.0 | 0.00 | 0.01 | 0.01 | 79 | 1015.5 |
| 20260830060400 | 63 | 236 | 3.0 | 8.0 | 0.00 | 0.01 | 0.01 | 79 | 1015.5 |
| 20260830060300 | 63 | 223 | 3.0 | 8.0 | 0.00 | 0.01 | 0.01 | 80 | 1015.5 |
| 20260830060200 | 63 | 267 | 3.0 | 8.0 | 0.00 | 0.01 | 0.01 | 80 | 1015.5 |
| 20260830060100 | 63 | 250 | 2.0 | 8.0 | 0.00 | 0.01 | 0.01 | 80 | 1015.5 |
| 20260830060000 | 63 | 250 | 2.0 | 8.0 | 0.00 | 0.01 | 0.01 | 80 | 1015.5 |
| 20260830055900 | 63 | 225 | 2.0 | 8.0 | 0.00 | 0.01 | 0.01 | 81 | 1015.5 |
| 20260830055801 | 62 | 263 | 2.0 | 8.0 | 0.00 | 0.01 | 0.01 | 81 | 1015.5 |
| 20260830055701 | 62 | 243 | 2.0 | 8.0 | 0.00 | 0.01 | 0.01 | 81 | 1015.5 |
| 20260830055601 | 62 | 243 | 2.0 | 8.0 | 0.00 | 0.01 | 0.01 | 81 | 1015.5 |
| 20260830055501 | 62 | 245 | 2.0 | 4.0 | 0.00 | 0.01 | 0.01 | 81 | 1015.5 |
| 20260830055401 | 62 | 243 | 2.0 | 4.0 | 0.00 | 0.01 | 0.01 | 82 | 1015.5 |
| 20260830055301 | 62 | 243 | 2.0 | 4.0 | 0.00 | 0.01 | 0.01 | 81 | 1015.5 |
| 20260830055201 | 62 | 243 | 3.0 | 4.0 | 0.00 | 0.01 | 0.01 | 81 | 1015.5 |
| 20260830055146 | 62 | 224 | 2.0 | 7.0 | 0.01 | 0.01 | 0.01 | 82 | 1015.3 |
| 20260830055141 | 62 | 243 | 2.0 | 5.0 | 0.00 | 0.01 | 0.01 | 81 | 1015.5 |
| 20260830055137 | 62 | 230 | 2.0 | 5.0 | 0.00 | 0.01 | 0.01 | 82 | 1015.4 |
| 20260830054922 | 62 | 242 | 2.0 | 5.0 | 0.00 | 0.01 | 0.01 | 82 | 1015.4 |
| 20260830054918 | 62 | 246 | 2.0 | 5.0 | 0.01 | 0.01 | 0.01 | 82 | 1015.4 |
| 20260830054906 | 62 | 246 | 3.0 | 5.0 | 0.01 | 0.01 | 0.01 | 82 | 1015.4 |
| 20260830054648 | 62 | 244 | 2.0 | 5.0 | 0.01 | 0.01 | 0.01 | 82 | 1015.3 |
| 20260830054644 | 62 | 242 | 2.0 | 5.0 | 0.01 | 0.01 | 0.01 | 82 | 1015.3 |
| 20260830054425 | 62 | 245 | 3.0 | 5.0 | 0.01 | 0.01 | 0.01 | 82 | 1015.3 |
| 20260830054421 | 62 | 244 | 2.0 | 7.0 | 0.01 | 0.01 | 0.01 | 82 | 1015.3 |
| 20260830054413 | 62 | 224 | 2.0 | 7.0 | 0.01 | 0.01 | 0.01 | 82 | 1015.3 |
| 20260830054158 | 62 | 236 | 2.0 | 7.0 | 0.01 | 0.01 | 0.01 | 83 | 1015.4 |
| 20260830054147 | 62 | 247 | 2.0 | 7.0 | 0.01 | 0.01 | 0.01 | 83 | 1015.3 |
| 20260830054143 | 62 | 243 | 2.0 | 7.0 | 0.01 | 0.01 | 0.01 | 83 | 1015.3 |
| 20260830053924 | 62 | 263 | 2.0 | 7.0 | 0.01 | 0.01 | 0.01 | 83 | 1015.4 |
| 20260830053920 | 62 | 246 | 2.0 | 7.0 | 0.01 | 0.01 | 0.01 | 83 | 1015.3 |
| 20260830053912 | 62 | 236 | 2.0 | 7.0 | 0.01 | 0.01 | 0.01 | 83 | 1015.4 |
| 20260830053600 | 62 | 228 | 2.0 | 7.0 | 0.01 | 0.01 | 0.01 | 83 | 1015.3 |
| 20260830053458 | 62 | 228 | 2.0 | 7.0 | 0.01 | 0.01 | 0.01 | 83 | 1015.3 |
| 20260830053427 | 62 | 249 | 3.0 | 7.0 | 0.01 | 0.01 | 0.01 | 84 | 1015.3 |
| 20260830053419 | 62 | 214 | 2.0 | 7.0 | 0.01 | 0.01 | 0.01 | 83 | 1015.3 |
| 20260830053415 | 62 | 248 | 3.0 | 7.0 | 0.01 | 0.01 | 0.01 | 84 | 1015.3 |
| 20260830053152 | 62 | 249 | 3.0 | 7.0 | 0.01 | 0.01 | 0.01 | 84 | 1015.3 |
| 20260830053052 | 62 | 249 | 3.0 | 7.0 | 0.01 | 0.01 | 0.01 | 84 | 1015.3 |
| 20260830052952 | 62 | 249 | 3.0 | 8.0 | 0.01 | 0.01 | 0.01 | 84 | 1015.4 |
| 20260830052852 | 62 | 249 | 3.0 | 8.0 | 0.01 | 0.01 | 0.01 | 84 | 1015.4 |
| 20260830052750 | 62 | 252 | 3.0 | 8.0 | 0.01 | 0.01 | 0.01 | 84 | 1015.4 |
| 20260830052701 | 62 | 247 | 4.0 | 8.0 | 0.01 | 0.01 | 0.01 | 84 | 1015.3 |
| 20260830052648 | 62 | 247 | 4.0 | 8.0 | 0.01 | 0.01 | 0.01 | 84 | 1015.3 |
| 20260830052548 | 61 | 247 | 4.0 | 8.0 | 0.01 | 0.01 | 0.01 | 84 | 1015.4 |
| 20260830052448 | 61 | 244 | 4.0 | 8.0 | 0.01 | 0.01 | 0.01 | 84 | 1015.4 |
| 20260830052348 | 61 | 240 | 3.0 | 8.0 | 0.01 | 0.01 | 0.01 | 84 | 1015.4 |
| 20260830052248 | 61 | 248 | 3.0 | 8.0 | 0.01 | 0.01 | 0.01 | 84 | 1015.4 |
| 20260830052201 | 61 | 248 | 3.0 | 8.0 | 0.01 | 0.01 | 0.01 | 85 | 1015.4 |
| 20260830052148 | 61 | 249 | 3.0 | 8.0 | 0.01 | 0.01 | 0.01 | 85 | 1015.4 |
| 20260830052046 | 61 | 265 | 3.0 | 8.0 | 0.01 | 0.01 | 0.01 | 84 | 1015.4 |
| 20260830051946 | 61 | 233 | 2.0 | 8.0 | 0.01 | 0.01 | 0.01 | 85 | 1015.3 |
| 20260830051928 | 61 | 211 | 1.0 | 7.0 | 0.01 | 0.01 | 0.01 | 87 | 1015.4 |
| 20260830051919 | 61 | 233 | 2.0 | 8.0 | 0.01 | 0.01 | 0.01 | 86 | 1015.4 |
| 20260830051915 | 61 | 212 | 2.0 | 8.0 | 0.01 | 0.01 | 0.01 | 87 | 1015.4 |
| 20260830051646 | 61 | 193 | 1.0 | 6.0 | 0.01 | 0.01 | 0.01 | 87 | 1015.4 |
| 20260830051544 | 61 | 203 | 1.0 | 5.0 | 0.01 | 0.01 | 0.01 | 87 | 1015.4 |
| 20260830051444 | 61 | 231 | 1.0 | 3.0 | 0.01 | 0.01 | 0.01 | 87 | 1015.4 |
| 20260830051344 | 61 | 232 | 1.0 | 2.0 | 0.01 | 0.01 | 0.01 | 87 | 1015.4 |
| 20260830051244 | 61 | 231 | 1.0 | 2.0 | 0.01 | 0.01 | 0.01 | 87 | 1015.4 |
| 20260830051200 | 61 | 231 | 1.0 | 2.0 | 0.01 | 0.01 | 0.01 | 86 | 1015.4 |
| 20260830051144 | 61 | 231 | 1.0 | 2.0 | 0.01 | 0.01 | 0.01 | 86 | 1015.4 |